GFSSE_sfc_thetae_003.txt.gz
Theta_e
327 336 345 348 349 350 350 351 350 350 350 350 348 347 345 344 344 344 344 343 344 346 341 341 341 342 344 343 343 344 344 344 346 348 347 345 342 343 345 347 344 343 348
329 335 343 346 349 350 350 351 350 350 350 348 347 345 344 343 343 343 343 339 338 339 336 337 339 341 343 343 341 342 343 343 343 345 348 349 346 345 344 345 342 344 347
330 335 339 343 347 349 349 350 351 352 349 348 346 345 343 342 342 343 341 336 335 334 333 339 339 342 342 340 340 340 340 341 343 344 346 340 339 345 345 346 342 346 346
333 336 337 343 345 346 347 347 349 350 349 347 346 345 344 343 341 341 336 335 333 331 333 333 337 340 340 342 340 339 340 340 340 343 341 340 340 344 343 345 344 344 345
333 334 336 342 343 345 345 345 345 346 347 346 345 344 343 341 341 340 336 333 332 332 332 334 337 336 335 334 334 335 338 338 338 339 336 338 338 343 344 345 345 346 345
329 331 335 339 342 344 343 343 343 343 344 345 344 342 341 340 338 337 333 332 333 333 334 335 336 339 337 334 335 336 337 337 336 330 334 337 338 341 344 344 344 345 344
329 332 334 337 340 342 341 341 342 342 342 343 344 343 341 339 336 332 333 335 334 335 335 337 339 337 336 334 334 334 334 333 332 331 332 333 334 339 344 344 344 343 344
331 333 334 337 338 339 340 340 340 340 340 340 340 341 339 337 335 334 333 334 334 334 333 333 333 332 332 330 332 332 332 331 332 332 333 332 336 341 342 345 343 343 343
332 332 332 332 334 336 335 336 336 338 339 339 338 337 336 336 336 333 333 333 333 334 335 334 333 331 332 334 332 332 331 332 329 331 333 332 336 340 340 342 342 342 343
330 331 329 329 329 327 327 334 334 335 336 336 336 334 333 333 333 331 329 330 329 329 327 327 328 329 329 329 328 327 328 330 326 327 328 328 336 340 340 343 343 341 341
332 330 329 329 327 325 323 328 333 335 336 336 334 333 329 324 322 322 327 328 329 327 326 326 325 324 322 320 321 323 324 323 323 324 323 328 333 338 340 342 341 341 340
326 329 330 329 328 326 328 327 326 328 329 330 331 327 324 320 319 322 325 327 326 325 324 324 323 322 318 314 315 318 316 318 320 321 323 328 331 335 338 339 339 340 339
326 325 327 327 326 326 326 326 324 325 325 325 325 325 322 320 319 319 317 319 316 320 315 316 313 312 310 311 311 312 313 314 316 318 320 325 327 331 335 338 338 339 338
314 317 320 322 321 319 323 325 324 324 324 323 322 321 318 316 315 316 316 317 316 314 313 313 312 312 311 312 312 312 313 313 314 316 318 323 326 328 331 334 337 338 338
310 313 318 319 320 317 316 314 317 319 323 321 319 319 319 316 314 315 315 315 314 314 313 311 310 311 312 313 313 314 314 315 316 317 317 322 324 327 329 331 334 336 336
308 310 314 317 319 316 313 311 311 312 314 313 313 314 318 317 315 315 315 314 313 311 309 308 306 305 305 306 308 310 312 313 314 315 316 316 321 323 324 329 330 331 333
307 309 313 314 315 315 314 312 310 309 309 309 311 313 315 313 309 311 312 312 310 308 308 307 302 303 301 304 302 303 303 306 310 308 308 312 314 319 322 325 327 329 330
303 307 309 314 312 310 313 312 311 310 307 307 309 309 311 310 306 304 304 306 305 302 307 300 297 298 298 297 298 298 299 302 301 300 302 304 310 313 319 324 325 326 328
303 305 303 309 309 308 308 309 307 307 305 304 306 308 308 309 308 306 304 304 302 301 300 298 298 298 296 297 297 297 296 297 297 300 299 300 303 307 315 322 324 324 325
302 301 300 303 304 303 302 301 299 300 301 302 303 307 309 307 308 304 304 305 302 300 299 299 298 298 297 297 298 298 296 297 296 296 296 301 302 306 309 312 317 321 321
299 300 299 299 299 300 299 298 298 298 298 300 300 303 307 308 306 303 302 303 302 300 300 299 298 296 296 296 294 294 295 295 295 296 297 298 299 302 303 306 308 310 316
298 299 299 300 300 299 298 298 298 297 298 298 299 300 305 307 307 304 301 302 303 301 299 299 298 296 296 296 293 291 289 292 294 297 296 298 298 299 302 303 303 306 309
297 298 299 299 299 300 300 298 297 297 297 297 298 298 300 304 307 305 302 301 301 301 300 298 297 296 294 294 295 293 288 287 290 293 294 296 296 297 299 300 302 305 307
298 298 299 299 299 300 300 299 297 298 298 301 301 300 300 300 303 305 304 300 300 298 296 296 296 295 294 291 292 296 294 292 285 284 290 291 292 295 296 299 300 301 304
298 298 299 301 302 302 301 301 300 298 300 301 301 297 298 298 300 302 303 301 298 299 299 298 295 293 292 291 290 290 289 289 290 287 283 286 290 291 294 296 298 299 300
300 300 301 301 302 303 302 302 300 298 299 298 299 297 298 296 296 298 299 299 296 296 294 291 292 292 292 291 291 292 290 287 286 285 284 285 287 289 292 294 295 296 298

GFSSE_sfc_thetae_006.txt.gz
Theta_e
324 334 345 349 350 349 348 349 349 350 350 350 348 347 347 347 345 346 346 345 347 344 341 342 342 342 343 341 343 345 345 347 346 346 346 344 342 344 346 347 346 344 348
327 333 343 347 349 350 350 349 348 349 350 348 347 346 345 345 345 345 340 338 338 337 337 340 341 340 343 342 341 343 343 343 345 347 348 346 344 344 344 346 345 343 345
331 334 337 345 347 349 350 350 349 350 348 348 346 344 343 342 342 342 339 336 335 333 334 337 340 341 342 341 343 343 343 343 343 344 347 340 340 347 344 346 345 347 346
332 334 337 344 345 347 348 349 349 350 348 347 346 345 343 342 342 341 338 336 333 332 333 335 335 339 340 338 339 340 340 340 340 342 341 340 340 344 344 345 345 345 346
330 332 338 342 343 344 345 345 346 347 347 347 346 345 343 342 340 340 336 332 333 333 333 335 337 337 338 336 336 336 337 338 337 335 334 338 339 341 343 345 344 346 345
327 328 336 339 341 343 343 342 343 344 344 344 343 342 341 340 337 337 335 333 335 335 335 337 337 338 338 335 334 334 336 335 334 332 333 336 339 340 343 344 342 344 344
326 328 333 338 340 342 341 341 342 342 342 343 343 342 340 339 336 331 331 334 334 336 335 335 335 334 334 334 332 333 334 332 330 331 332 333 335 339 341 344 343 342 343
328 329 330 337 338 340 340 340 339 339 339 340 340 341 339 337 336 335 334 334 334 335 335 335 334 332 332 332 334 332 331 331 332 330 333 332 335 339 341 343 342 341 342
329 328 328 330 333 335 335 336 336 337 338 337 337 337 336 336 334 333 332 332 331 331 329 330 330 332 332 330 329 328 328 331 327 327 330 331 335 338 340 342 343 340 342
328 328 326 327 327 326 326 333 334 335 336 336 335 333 332 333 332 330 327 329 328 328 327 327 326 326 324 323 324 324 325 326 324 325 325 327 332 336 339 339 342 341 342
329 327 326 326 325 322 322 328 333 335 335 335 333 332 328 322 320 319 326 328 327 326 325 325 325 323 322 320 321 321 320 318 321 322 322 328 330 334 337 339 340 341 340
326 327 327 326 325 323 325 324 324 326 328 329 329 326 322 319 318 321 323 326 325 324 323 323 321 319 314 311 312 316 313 315 316 318 320 324 327 330 333 336 337 338 338
325 327 329 327 326 324 324 323 322 322 323 324 325 323 321 320 317 317 316 317 315 320 313 314 313 312 311 310 311 312 313 314 314 316 319 324 327 329 330 331 334 335 337
322 326 326 325 324 322 322 323 322 322 322 322 321 321 319 316 314 315 315 315 315 314 312 311 311 312 312 312 312 312 312 313 314 316 318 322 323 326 330 331 332 333 335
318 318 319 319 320 318 320 320 320 321 322 321 320 319 318 315 314 314 314 314 314 313 312 311 309 308 307 308 309 311 311 312 313 314 313 317 318 317 319 324 330 332 332
312 313 316 316 318 315 312 312 314 315 317 318 317 317 317 316 314 313 314 313 312 312 310 308 305 304 303 304 306 306 306 306 309 309 307 307 313 315 317 319 322 327 332
309 309 313 315 316 314 312 311 309 309 310 310 312 312 313 315 314 313 312 312 312 310 307 306 303 302 300 301 300 301 302 303 307 304 302 304 306 310 314 319 322 323 326
304 308 311 315 313 312 312 311 310 308 307 307 308 309 311 313 310 307 307 308 310 306 306 304 297 297 297 297 297 298 298 299 300 299 300 300 303 306 311 318 320 323 324
303 306 308 308 310 309 309 310 309 308 307 305 305 307 308 309 309 304 304 304 305 301 301 302 297 297 296 296 296 297 297 297 297 299 298 300 301 304 308 313 315 319 319
301 304 303 305 307 305 302 301 300 299 300 302 302 303 307 308 308 306 304 304 302 300 299 298 297 297 297 296 298 298 296 297 297 296 298 300 300 302 303 305 308 309 312
300 299 299 300 300 299 299 299 298 299 298 299 300 302 303 306 307 306 304 303 303 301 301 298 297 297 296 296 295 294 294 296 295 296 297 298 300 301 302 303 304 305 307
299 299 298 298 298 297 297 297 297 296 297 297 298 299 300 302 305 306 305 303 302 302 299 298 297 295 295 295 293 291 289 291 293 296 297 296 297 298 299 301 301 303 306
297 296 297 297 297 298 298 297 297 297 297 297 299 298 300 300 302 305 305 304 302 302 302 300 298 296 295 294 294 292 288 286 289 292 292 294 293 294 296 297 300 301 301
297 297 298 299 299 301 300 299 298 296 296 299 299 299 300 300 299 302 305 304 302 301 301 299 298 297 294 292 293 296 293 291 285 284 290 292 292 293 293 295 297 298 300
297 298 299 300 301 300 300 299 299 298 298 299 299 298 299 299 297 298 300 301 300 297 297 298 296 294 294 292 290 290 289 290 290 286 284 286 290 292 293 294 295 297 297
298 298 299 299 300 300 299 298 297 295 295 296 297 296 297 297 295 295 296 296 295 293 292 292 294 293 290 292 292 291 290 288 287 286 285 285 286 289 292 292 293 294 296

GFSSE_sfc_thetae_009.txt.gz
Theta_e
333 342 345 348 348 350 349 349 349 348 349 349 348 349 349 347 347 344 341 341 341 339 339 341 342 342 343 342 342 344 346 347 346 347 346 343 344 346 347 349 348 345 349
337 343 343 347 349 349 348 348 347 348 349 348 348 347 347 346 345 341 340 338 337 337 337 338 339 342 343 343 342 343 343 343 345 346 346 342 341 343 345 346 346 345 349
338 342 344 345 348 349 349 349 348 349 348 347 346 345 344 343 342 342 340 338 336 335 335 337 337 342 344 343 342 341 342 342 342 343 345 340 338 344 344 345 345 347 347
336 340 343 343 345 348 349 349 349 349 348 347 345 344 343 342 342 341 340 336 334 335 335 337 339 338 338 337 337 336 337 339 339 340 340 340 339 345 344 345 344 345 345
334 338 342 342 343 345 346 348 349 349 348 347 346 344 344 342 341 341 337 334 335 336 337 337 337 338 338 336 334 335 337 337 337 336 339 339 340 341 343 345 345 346 345
333 338 340 339 341 343 343 343 344 344 344 344 344 343 342 340 339 337 336 335 336 336 337 337 338 337 337 335 334 334 334 334 333 334 337 338 339 340 343 344 344 344 343
331 335 338 337 340 342 341 341 341 341 342 343 342 341 341 339 335 333 332 334 335 336 336 336 335 333 332 331 332 331 332 333 333 333 333 337 338 339 341 340 343 342 342
330 334 336 338 339 340 340 340 339 339 339 339 340 340 339 337 336 335 335 334 333 332 332 332 333 333 333 333 332 331 332 332 335 336 336 336 336 338 339 341 341 342 341
333 333 335 336 336 336 336 336 336 337 337 337 337 336 335 335 333 332 332 331 331 330 329 329 329 329 328 327 326 325 327 329 334 333 332 335 332 336 338 338 340 340 339
335 334 335 335 334 335 335 333 334 335 336 335 334 333 332 332 330 329 326 328 329 328 327 327 326 325 324 324 324 323 322 324 329 330 331 331 331 334 336 337 338 341 340
333 334 335 335 333 333 333 333 333 335 336 335 334 332 331 334 331 328 327 327 327 326 325 324 324 322 320 319 320 320 320 324 324 325 326 325 328 331 333 335 336 338 340
333 335 335 336 335 332 329 333 334 334 337 339 338 336 335 333 330 328 326 325 325 325 323 323 322 319 317 321 323 321 324 325 326 326 326 325 328 330 331 332 333 337 338
334 335 335 336 337 335 332 334 334 334 335 336 337 336 334 332 332 331 329 328 329 324 326 323 324 325 325 324 324 324 322 323 325 326 324 324 324 327 330 331 332 333 336
333 336 337 337 336 337 336 335 334 333 333 333 334 334 334 332 330 328 327 327 328 329 327 326 326 324 323 322 321 320 319 320 320 321 318 318 317 317 320 324 327 331 332
331 334 337 337 335 333 331 333 333 333 333 334 333 333 331 330 329 327 326 326 327 327 326 325 324 319 316 314 316 315 314 315 317 315 314 312 314 315 318 320 322 325 330
328 331 331 330 330 328 328 329 331 331 332 332 333 332 331 330 329 327 326 325 326 326 325 324 319 315 314 313 313 313 312 313 315 314 311 312 311 313 318 320 322 323 325
326 326 325 326 328 327 325 323 322 324 324 328 329 330 328 327 327 326 325 325 325 325 324 320 316 315 312 311 310 311 311 311 313 311 311 311 312 312 315 318 320 322 320
319 320 322 323 325 326 324 324 323 322 321 320 320 322 323 323 323 324 322 322 323 323 322 319 316 312 309 309 309 309 309 309 309 309 310 310 310 311 313 313 314 314 315
317 318 320 322 322 323 321 321 322 321 321 320 319 318 320 320 321 321 320 319 319 318 318 317 314 311 308 308 307 308 309 308 308 307 307 308 310 311 311 310 311 310 311
313 316 319 318 319 318 317 315 314 313 313 313 314 314 315 316 318 319 318 317 317 314 314 312 311 310 308 308 305 305 308 308 308 308 307 305 309 309 309 309 309 308 309
311 313 314 314 314 312 310 310 310 310 310 310 311 311 311 312 313 315 315 316 316 313 313 313 311 309 307 308 306 306 306 308 308 307 307 307 305 308 308 308 305 304 305
310 310 307 306 307 307 307 308 308 308 309 308 309 311 311 310 311 310 312 312 313 312 313 313 310 309 307 308 304 304 300 303 304 305 305 305 307 305 304 302 302 302 303
306 305 305 306 307 308 309 309 309 309 309 309 308 308 309 310 310 310 310 310 311 311 310 313 312 309 307 307 307 304 300 297 301 303 303 302 303 302 302 302 302 300 303
306 308 309 309 309 308 309 307 306 304 303 305 306 306 307 309 309 308 308 308 309 310 309 310 311 310 308 306 304 303 303 301 297 297 299 300 300 299 299 302 301 301 301
307 307 308 308 308 308 307 305 305 304 305 305 305 304 305 306 307 306 305 305 306 307 308 308 308 306 306 304 302 301 299 298 298 294 293 295 296 297 299 299 299 301 299
307 308 308 308 307 308 307 305 304 304 303 303 304 303 304 304 304 303 302 303 302 302 301 301 300 301 300 300 299 298 297 295 293 293 291 292 293 296 296 297 298 299 301

GFSSE_sfc_thetae_012.txt.gz
Theta_e
336 346 346 349 350 350 349 348 348 349 350 349 350 351 350 348 345 343 342 340 339 338 340 340 341 342 343 344 343 342 343 344 343 342 344 343 343 345 346 347 348 345 348
339 346 345 348 350 350 349 348 347 349 349 349 348 347 348 345 343 341 340 339 338 338 339 339 338 341 344 344 343 342 342 343 344 344 342 343 341 343 344 344 345 346 347
338 345 347 346 349 350 350 349 349 349 348 348 347 345 344 344 343 342 341 338 336 337 336 338 338 342 342 339 337 338 339 339 340 341 342 338 337 343 343 343 343 345 347
337 343 345 344 348 350 349 349 350 348 348 346 345 344 343 343 343 342 338 336 336 337 337 337 339 340 339 337 335 336 336 336 338 338 339 338 337 343 344 344 343 344 346
335 339 343 343 345 347 348 348 348 348 347 346 346 345 344 343 341 339 336 335 337 338 339 339 340 340 338 336 334 334 335 334 335 335 339 339 339 340 341 343 344 344 344
330 335 340 341 342 343 343 344 344 344 344 344 344 343 342 340 339 334 335 336 336 337 337 337 336 334 333 333 331 332 332 333 333 336 338 339 338 339 340 342 343 344 343
331 334 336 339 341 341 341 341 341 342 342 342 342 341 341 338 336 336 335 336 336 336 336 336 335 333 332 334 333 333 332 332 335 336 336 338 340 339 339 341 343 343 343
331 335 335 337 339 340 340 339 339 339 339 339 340 340 338 337 336 335 335 334 333 332 332 332 334 334 332 330 328 328 330 331 334 336 337 337 335 337 338 340 341 341 342
332 333 335 336 337 337 337 337 338 338 337 336 337 336 336 335 333 332 332 331 330 330 329 329 329 328 327 326 325 324 325 327 335 335 334 335 333 335 337 336 337 339 340
334 334 336 338 337 339 338 334 336 336 337 335 333 332 331 333 330 329 326 329 328 327 327 326 326 325 324 323 323 322 322 325 331 333 336 332 329 333 335 335 334 334 337
334 337 339 338 339 340 338 335 333 335 335 335 335 331 331 337 335 331 327 326 326 325 324 324 322 320 319 320 321 320 322 328 328 329 330 326 328 331 332 334 333 333 335
334 337 340 341 340 340 334 338 339 338 340 341 340 340 338 338 336 331 329 325 324 324 322 322 321 321 320 323 325 323 325 325 325 325 327 326 327 329 331 331 332 333 334
334 337 339 342 343 340 338 338 337 337 339 340 340 340 339 338 337 335 334 331 331 326 328 326 326 325 325 325 323 324 323 324 322 323 322 319 318 320 323 326 329 332 333
332 336 340 342 343 342 338 336 337 335 336 336 338 340 339 336 335 334 331 329 329 327 328 327 326 328 326 323 321 319 318 318 318 320 318 314 315 316 318 320 322 326 331
334 338 341 343 343 339 338 337 337 337 336 337 336 336 338 334 333 331 329 327 326 326 325 325 324 323 320 318 316 316 315 316 317 317 318 310 313 316 319 320 321 323 325
334 336 342 343 342 335 333 335 335 336 335 335 332 332 336 336 331 328 326 324 323 323 323 323 322 321 318 317 315 316 315 315 315 316 315 314 311 316 318 319 322 323 323
332 334 339 340 337 334 331 330 331 331 329 328 328 330 332 332 329 328 325 323 323 324 325 324 323 321 318 316 314 314 314 315 314 314 313 314 313 314 315 317 316 317 317
328 330 335 334 332 331 329 329 328 328 328 326 326 326 327 327 328 327 324 323 324 324 322 321 320 318 317 315 313 313 313 313 313 313 313 313 312 312 312 313 312 312 315
323 327 332 333 329 327 328 327 327 327 326 325 325 323 323 324 324 324 322 322 324 322 321 320 319 318 316 314 313 313 313 313 313 311 312 313 313 312 313 310 310 309 309
322 326 330 328 325 325 326 324 321 320 320 320 319 319 319 319 320 320 320 322 322 321 320 319 318 318 316 315 311 310 312 313 313 312 312 311 311 312 312 312 312 310 308
321 321 322 321 317 320 319 315 316 316 316 317 318 318 318 318 318 318 317 318 319 318 319 319 318 317 316 316 312 311 311 313 313 312 312 311 310 311 312 311 310 310 309
316 316 314 313 314 314 316 316 316 316 317 317 317 317 316 315 315 314 315 314 315 314 316 317 317 315 315 316 311 309 305 308 311 311 312 310 311 310 310 308 307 307 307
315 315 314 315 315 316 315 316 316 316 315 313 312 312 312 312 312 312 312 312 313 313 312 314 314 314 312 315 316 310 304 302 306 310 310 309 310 309 308 307 306 305 305
315 316 315 315 314 314 314 313 312 310 309 310 310 311 310 311 310 310 310 311 312 311 311 311 311 312 312 309 312 313 313 311 304 302 306 308 308 307 307 305 305 305 305
314 315 315 314 313 313 312 312 311 310 310 310 310 309 309 309 309 308 309 309 310 310 311 311 311 311 311 309 308 308 307 308 308 302 301 301 305 305 304 304 305 304 305
315 315 314 313 312 313 313 310 310 309 309 308 307 305 305 306 306 307 307 308 308 308 308 307 307 305 305 304 304 303 301 296 297 297 299 302 302 302 303 304 303 303 305

GFSSE_sfc_thetae_015.txt.gz
Theta_e
341 346 348 350 350 351 349 348 348 350 351 351 350 349 347 346 344 343 342 339 340 341 341 341 340 342 343 345 344 343 343 344 345 343 342 341 342 344 346 346 347 343 346
343 347 347 350 350 350 349 348 349 348 349 348 348 347 346 344 342 341 340 340 339 340 339 340 340 345 345 342 341 341 341 341 342 344 344 342 343 343 344 344 347 343 344
344 346 348 349 350 349 349 348 349 348 348 347 345 344 345 343 343 341 339 337 338 338 338 339 341 341 341 339 337 337 338 338 339 340 342 334 338 344 344 343 343 344 343
342 345 347 346 350 350 350 350 349 348 346 345 345 344 344 343 342 340 337 337 338 339 340 339 338 340 338 336 336 336 336 336 337 338 336 337 336 345 344 344 342 343 344
338 343 345 344 346 349 349 349 349 347 347 346 346 345 344 342 341 338 336 337 337 339 339 339 339 338 338 336 334 333 334 335 336 335 336 338 338 342 341 342 343 345 346
333 338 340 343 344 345 344 345 345 344 344 344 344 343 342 341 337 335 336 337 338 338 338 338 336 334 333 332 333 333 332 333 335 333 334 338 337 341 339 340 342 344 344
329 332 337 340 342 342 341 341 341 342 342 342 342 341 340 338 338 337 337 336 335 335 335 336 336 335 335 334 333 333 333 333 332 333 333 334 337 339 340 341 341 343 343
329 332 332 337 339 340 339 339 339 339 339 339 340 340 338 337 335 335 334 334 333 332 332 332 332 331 330 329 327 327 329 330 334 333 334 334 336 337 339 339 339 339 340
330 331 333 334 336 338 338 338 337 337 336 336 336 336 336 334 333 332 331 331 331 330 329 328 328 327 326 326 325 324 325 327 330 332 331 332 333 335 336 337 337 336 336
331 333 335 336 335 337 338 336 336 336 336 334 333 332 332 334 332 330 329 329 328 327 326 325 325 324 324 324 323 323 324 326 328 328 330 328 331 333 334 335 335 335 334
331 335 336 335 335 335 333 335 333 335 336 335 335 333 333 335 334 333 328 327 326 325 324 324 322 321 323 323 324 323 324 327 326 325 327 328 329 330 333 332 333 334 334
331 333 336 339 336 335 331 335 335 333 335 336 337 337 335 336 335 332 330 328 328 327 326 325 325 325 324 324 323 324 324 323 322 322 324 325 324 326 329 331 332 333 334
331 331 334 342 341 336 333 332 333 333 334 335 337 338 336 335 335 333 332 331 331 328 327 326 326 326 326 325 323 322 322 321 320 320 319 318 317 319 322 324 326 329 332
328 330 334 341 342 339 334 331 331 332 333 332 334 335 334 331 332 331 328 327 327 325 326 325 325 326 326 324 320 319 319 317 316 317 317 315 313 315 318 320 323 325 328
327 330 333 338 344 337 336 332 333 333 333 333 334 332 332 330 330 328 327 325 324 324 323 323 323 322 323 321 319 318 317 317 317 317 317 315 313 316 319 319 321 323 325
329 330 333 337 343 337 330 332 332 334 332 332 330 329 330 330 330 327 326 324 323 323 322 322 322 322 321 319 318 318 317 316 316 317 316 314 315 316 317 319 322 323 322
328 330 333 337 342 335 330 329 329 328 326 327 327 328 327 328 328 327 325 324 323 325 326 324 323 322 320 319 318 316 316 317 316 316 316 314 314 315 317 317 317 316 317
327 327 330 336 338 334 328 328 328 327 327 325 326 327 326 326 326 326 323 323 325 325 323 322 320 319 319 318 317 316 316 315 315 315 315 314 314 314 314 315 314 315 316
325 324 327 336 335 330 327 326 327 327 326 324 324 323 323 323 323 323 322 323 327 323 324 322 321 321 318 318 317 317 316 315 316 313 314 314 315 314 314 316 314 313 312
323 325 328 333 330 327 326 325 322 322 321 322 320 320 321 321 321 321 320 322 322 319 320 321 322 321 321 319 316 315 318 317 316 316 314 313 314 315 314 314 311 309 312
326 327 328 326 321 321 320 317 317 317 318 319 320 320 320 319 318 317 316 317 318 316 318 320 319 319 317 320 318 317 317 318 318 316 317 315 314 314 315 314 313 312 309
320 320 319 318 318 318 318 318 319 318 318 319 319 318 318 316 315 314 314 313 314 312 316 317 317 315 316 318 314 314 310 312 316 316 316 315 316 314 313 314 313 312 311
318 318 317 317 318 317 318 318 317 317 317 316 315 315 315 315 314 313 312 312 313 314 312 315 315 314 311 314 317 312 306 305 310 315 317 315 315 314 314 313 313 309 309
317 318 317 317 316 316 317 315 315 313 311 313 314 314 313 313 311 310 310 312 313 312 312 313 311 314 312 309 312 311 314 312 305 304 312 312 312 311 314 313 311 308 308
317 318 318 316 316 316 316 315 313 312 312 313 312 311 310 310 310 308 309 311 310 310 310 310 309 309 308 307 306 306 306 306 306 301 301 306 307 308 308 310 310 308 307
317 318 317 316 315 315 315 315 312 311 310 309 309 307 307 307 306 307 306 308 309 308 308 308 306 305 302 302 300 298 296 295 295 295 293 300 300 305 307 306 307 307 307

GFSSE_sfc_thetae_018.txt.gz
Theta_e
341 345 350 351 352 351 350 350 350 350 351 351 350 348 346 345 344 343 343 343 343 342 342 342 342 346 345 344 343 343 343 344 345 347 347 345 345 344 347 348 347 340 346
344 346 348 351 352 351 350 350 350 350 350 349 348 347 346 344 344 343 341 341 341 341 341 342 342 343 342 340 339 339 340 341 342 343 344 343 346 343 344 346 344 338 341
342 346 347 349 350 350 351 351 350 350 349 348 347 347 345 344 343 340 339 340 340 341 341 340 341 342 340 338 337 337 338 340 340 340 342 335 333 345 343 346 346 347 344
344 345 347 348 349 350 350 351 349 348 347 347 346 345 344 343 342 339 338 339 340 340 340 340 341 341 339 338 337 336 336 337 338 339 332 333 337 340 344 343 344 345 346
341 343 345 345 347 349 349 349 349 348 348 347 347 345 344 342 338 337 338 338 339 339 338 338 337 335 335 334 334 334 334 335 336 334 329 332 335 339 340 340 344 345 345
337 340 340 342 344 346 346 346 345 345 345 345 345 343 342 339 337 337 338 338 337 336 337 337 336 335 335 335 335 335 334 335 334 326 327 332 335 339 339 339 342 342 342
332 336 337 339 341 343 343 342 343 343 343 343 342 340 339 338 338 337 336 335 334 334 334 335 335 334 332 331 330 330 331 332 330 328 329 332 334 339 339 340 341 341 342
329 331 332 340 340 340 341 341 340 340 340 341 341 339 337 336 336 335 334 334 332 331 331 330 330 330 330 329 328 328 328 328 326 326 332 332 337 338 338 338 340 339 339
327 328 331 332 336 338 337 338 338 338 337 338 337 337 336 335 335 333 332 332 330 329 328 327 326 327 327 327 327 327 326 327 323 324 329 329 336 336 336 337 336 337 337
329 331 332 333 333 334 333 336 336 337 336 336 335 334 334 334 334 332 333 330 328 326 326 325 325 325 325 325 326 327 325 325 320 322 326 329 334 334 334 334 334 335 336
328 333 333 332 333 334 334 334 336 337 336 335 335 333 332 333 332 331 329 330 328 327 327 326 325 325 325 325 326 326 326 319 320 317 324 330 330 330 331 333 333 334 335
329 331 334 335 334 333 328 332 335 335 334 335 335 335 335 334 332 331 331 329 330 329 329 328 328 327 325 319 320 324 320 320 317 317 321 326 324 324 325 329 331 332 334
328 330 334 340 337 335 333 328 332 332 333 336 338 334 334 332 334 331 330 329 327 328 326 325 325 322 323 321 320 318 318 315 314 314 318 322 320 318 320 324 326 328 331
327 328 336 340 340 336 333 331 331 331 331 332 332 334 331 329 330 327 326 323 323 321 321 321 320 322 321 322 319 316 315 314 312 312 313 318 318 315 317 321 324 325 327
325 329 332 339 341 338 333 333 333 332 333 331 331 331 330 327 327 327 325 324 322 321 320 319 318 318 319 318 318 316 314 314 314 312 312 316 317 316 318 321 323 324 326
327 330 334 337 342 337 330 330 331 332 332 332 328 327 328 327 327 325 323 323 322 321 320 319 317 318 317 317 316 316 314 312 312 312 311 310 316 319 320 319 322 323 325
327 329 332 329 341 335 329 329 328 327 323 324 326 326 325 325 324 324 322 322 322 322 321 319 319 317 316 317 315 316 314 313 313 312 312 312 310 317 320 320 322 321 320
327 324 327 333 339 334 330 327 326 326 325 324 324 325 324 324 323 322 321 321 322 322 320 319 317 316 315 314 313 314 312 312 312 312 312 311 310 310 316 320 321 319 319
325 325 326 336 335 333 328 325 326 325 323 324 322 321 321 321 323 320 318 319 321 318 317 317 315 315 313 313 313 313 313 312 311 312 310 310 310 310 310 316 318 318 319
326 326 328 330 329 328 326 324 322 321 321 321 320 320 320 318 319 317 316 317 318 314 314 313 314 314 313 313 315 314 313 314 313 310 310 312 310 310 310 310 311 310 315
327 324 326 322 322 320 319 316 317 316 317 318 318 320 318 317 316 314 312 312 311 310 310 311 310 309 309 311 310 310 311 313 313 313 312 310 309 310 310 310 308 306 307
319 319 318 318 318 317 317 317 317 316 317 317 318 317 317 315 314 312 312 310 309 308 307 307 308 308 307 309 307 306 303 306 309 311 312 311 309 311 310 309 310 309 306
318 318 316 317 317 317 317 316 315 316 315 314 313 313 315 314 312 311 310 308 308 308 306 305 305 305 304 305 306 304 300 298 302 306 307 309 311 311 311 310 309 309 308
317 318 317 317 316 316 317 314 314 312 309 312 312 312 311 311 310 308 307 307 306 306 305 305 306 305 304 301 303 303 300 300 297 297 303 306 308 309 310 310 309 309 306
318 318 318 317 316 316 315 315 312 310 310 310 309 309 308 307 306 306 305 304 304 305 304 305 304 302 300 298 297 296 295 295 297 294 292 296 301 305 306 307 306 307 306
318 318 318 316 315 316 314 313 312 310 309 307 307 305 303 303 303 303 304 303 304 304 302 302 300 299 297 297 296 295 293 292 290 290 290 290 291 296 298 302 304 305 306

GFSSE_sfc_thetae_021.txt.gz
Theta_e
339 346 349 350 350 349 349 349 349 350 350 350 348 346 346 345 345 345 344 344 344 343 343 343 345 344 343 342 341 341 341 341 342 342 342 343 342 343 346 346 347 342 346
344 347 347 349 349 350 350 349 349 350 349 348 346 347 346 345 344 341 341 342 343 343 342 342 343 343 341 339 338 338 339 340 340 340 340 340 339 344 344 344 341 342 346
342 347 348 347 349 350 350 350 349 349 347 347 346 347 346 343 341 340 340 341 341 341 341 342 342 342 340 339 338 337 337 337 339 339 339 331 334 342 341 341 344 343 342
344 346 346 347 349 350 349 348 348 348 347 347 346 345 344 342 340 339 339 340 340 340 339 339 338 337 336 335 335 335 335 336 336 337 330 330 335 340 338 336 340 346 347
342 345 345 345 346 348 348 348 348 348 347 346 346 344 342 339 338 338 339 340 338 338 337 337 337 335 335 335 335 335 335 335 336 332 324 328 335 333 330 329 339 341 344
335 338 341 342 344 346 346 346 346 345 345 344 344 341 339 338 338 338 338 336 336 335 336 336 336 335 333 332 331 331 331 332 333 325 324 332 334 334 334 337 339 340 341
332 334 337 339 341 343 344 343 343 343 342 342 342 341 338 338 337 336 335 334 333 332 333 332 332 331 331 330 330 330 329 329 325 320 324 330 334 340 339 338 337 338 339
329 331 334 339 340 340 341 340 339 340 341 341 340 339 337 337 337 335 334 332 331 330 329 328 328 328 329 329 329 329 328 328 323 318 327 331 339 339 338 337 338 338 339
326 326 330 333 336 336 336 336 336 337 337 338 337 337 336 335 335 335 334 332 330 329 327 326 326 327 328 328 328 328 327 327 321 317 327 328 338 338 336 336 336 335 337
324 326 324 328 330 330 331 334 334 334 334 334 334 335 334 333 333 333 333 332 330 329 327 326 327 327 327 327 326 326 326 326 315 316 324 326 336 335 334 334 333 334 335
324 325 326 326 328 327 328 333 334 335 334 333 333 333 331 329 329 329 330 331 331 330 329 328 328 327 326 325 325 325 325 319 317 314 321 330 331 330 331 331 332 332 333
323 325 325 324 326 329 330 330 329 331 331 330 330 329 328 327 328 329 328 330 330 329 329 329 329 328 326 320 317 323 318 317 313 312 321 328 327 324 325 326 329 331 332
324 326 328 326 325 325 323 325 328 328 328 329 329 326 325 327 325 322 323 324 322 327 323 325 323 322 320 319 317 315 314 311 310 309 318 324 323 320 320 322 325 327 329
322 328 330 328 326 325 323 322 323 323 324 326 326 324 322 322 319 320 317 316 317 317 318 316 316 316 316 317 318 315 312 310 310 309 312 320 320 318 317 319 322 325 327
322 328 331 330 327 327 323 323 322 324 323 322 324 323 321 321 319 319 318 317 316 316 314 313 313 314 314 314 314 314 313 311 311 310 308 317 318 319 318 318 321 323 325
321 328 332 331 333 329 324 322 322 322 322 323 320 320 322 319 319 319 316 317 316 316 316 315 313 313 313 314 314 314 313 310 309 310 309 309 317 318 320 320 321 322 324
321 332 329 327 322 330 323 321 320 321 316 317 318 319 320 319 317 316 316 316 317 317 316 315 314 314 312 313 312 313 312 312 310 309 309 309 309 317 319 322 320 322 324
323 326 329 332 322 326 322 318 318 316 316 315 316 317 318 319 317 315 313 313 315 315 314 313 313 312 311 311 310 310 311 311 310 310 310 309 308 309 315 320 322 324 323
316 321 326 330 327 324 320 317 317 317 315 315 313 314 315 316 315 311 311 311 312 312 311 311 310 310 309 309 311 311 309 309 309 312 309 309 308 308 307 315 319 321 322
319 318 318 320 320 320 316 314 313 313 313 313 312 313 312 312 311 309 308 308 308 306 306 306 305 306 306 306 308 309 310 310 310 309 309 309 308 308 307 307 312 313 318
313 314 313 313 311 311 310 308 308 308 309 310 311 311 312 311 310 308 307 306 306 304 304 304 303 303 303 305 303 304 304 306 307 310 311 308 308 308 308 308 308 309 311
309 310 310 310 310 310 309 308 309 308 309 309 310 310 311 308 307 306 304 303 304 303 303 302 301 300 300 302 300 301 297 300 302 304 305 307 307 309 310 310 309 308 305
308 308 309 310 310 309 309 309 308 308 307 307 307 307 306 306 304 303 303 302 302 302 301 300 300 300 299 300 300 297 294 294 295 301 302 304 303 306 306 309 309 309 307
308 309 309 309 309 310 309 307 306 304 303 305 304 304 303 303 302 302 301 301 301 300 299 300 302 299 297 295 296 298 296 296 291 290 297 298 297 300 300 303 306 309 308
309 308 309 309 309 309 309 307 305 304 304 304 303 301 300 300 301 301 301 300 300 300 299 299 298 299 298 297 295 294 294 291 291 288 287 290 293 295 296 298 300 303 308
308 308 308 308 308 309 309 307 305 303 302 300 299 297 297 298 298 299 300 299 299 297 297 297 298 296 295 295 295 294 293 290 290 289 287 287 287 290 292 295 297 301 303

GFSSE_sfc_thetae_024.txt.gz
Theta_e
340 346 348 349 350 349 349 349 349 349 350 348 346 345 345 344 343 344 344 345 345 343 344 344 343 342 341 340 339 339 339 339 339 339 341 341 341 341 343 346 345 344 345
344 346 346 348 350 350 349 349 349 349 348 346 345 345 345 343 342 342 342 342 342 342 342 342 341 341 340 339 338 337 337 337 338 338 339 338 337 340 340 341 340 344 344
343 345 346 347 349 350 350 350 349 349 347 346 345 344 342 341 341 340 340 340 340 340 340 339 339 338 337 336 336 336 336 336 336 336 335 328 337 340 339 339 342 341 343
344 344 345 347 347 348 348 348 348 347 346 345 344 343 342 340 339 339 339 339 339 338 337 336 336 336 336 335 335 335 335 335 335 334 325 326 335 339 337 337 339 342 343
342 344 346 345 346 347 347 347 347 347 346 346 345 342 339 338 338 339 338 337 336 336 336 336 336 335 334 333 332 332 332 331 332 327 323 330 332 335 337 333 336 341 342
340 341 341 342 345 346 347 346 346 345 344 344 342 340 338 339 338 336 336 334 334 333 333 333 333 332 331 331 330 330 329 329 329 319 321 333 332 333 333 330 337 340 339
332 336 339 340 343 344 344 343 344 343 343 341 341 341 338 337 336 335 334 332 331 330 329 329 329 329 329 330 329 330 330 329 321 316 324 328 330 339 339 339 339 338 340
331 333 336 340 341 341 341 341 340 340 340 339 340 339 337 336 336 334 333 331 330 328 327 326 327 327 328 329 329 328 328 328 322 315 319 328 334 339 337 336 338 338 338
329 329 331 333 336 336 336 336 336 338 338 338 337 337 336 335 335 335 333 331 330 327 326 326 328 327 327 328 327 326 325 327 318 315 328 327 337 337 336 336 335 336 337
324 328 326 329 329 329 330 334 334 334 334 335 335 334 333 333 333 334 333 332 331 329 328 328 328 327 327 327 326 325 325 324 315 314 323 325 335 335 335 334 334 334 335
321 322 324 325 326 327 328 331 334 334 334 333 333 332 330 328 327 328 330 330 332 330 329 330 329 328 326 326 325 325 327 317 315 312 318 326 332 333 332 333 332 332 333
320 322 323 324 324 325 329 329 328 330 329 328 329 328 327 325 326 327 328 331 331 330 330 330 330 329 327 319 318 321 316 315 312 309 314 325 328 328 327 327 329 330 331
322 324 324 325 326 324 325 325 325 326 326 327 327 327 325 325 325 325 322 323 321 324 322 322 321 319 319 317 317 315 314 312 308 308 313 325 325 325 323 323 325 326 327
322 324 323 323 324 322 321 323 325 325 325 326 326 323 320 318 316 316 315 314 315 314 316 314 315 314 313 314 315 315 314 310 309 309 310 321 323 323 322 321 322 323 325
323 324 324 324 323 321 321 322 321 322 324 323 322 322 320 318 316 316 316 315 315 314 313 312 312 312 312 313 313 312 312 312 310 309 308 316 321 321 322 322 322 322 323
325 327 328 329 329 326 322 321 321 322 319 321 319 319 320 319 316 317 314 315 314 314 315 313 312 312 312 312 313 313 313 312 310 309 308 308 318 320 322 322 322 322 322
327 330 329 328 325 326 322 320 320 319 318 318 317 318 318 317 315 314 313 311 312 312 311 311 311 311 310 311 309 311 311 311 311 310 308 307 308 318 319 322 324 323 322
329 329 329 329 323 323 324 317 317 314 313 314 315 316 316 316 314 311 309 309 310 309 308 307 307 306 305 305 305 307 308 309 310 309 309 308 307 309 313 319 322 324 324
324 327 324 322 320 323 319 315 315 314 312 312 312 312 314 314 312 308 307 307 306 305 305 305 304 303 302 303 304 304 305 306 307 310 309 309 307 308 307 312 319 320 321
319 323 321 320 320 320 313 310 311 310 310 310 310 309 309 309 308 306 306 304 305 304 303 302 301 302 301 300 303 304 302 305 306 306 307 310 308 307 307 307 308 313 317
311 311 312 311 309 309 309 308 307 306 307 308 309 308 306 306 306 304 302 302 302 301 301 301 301 299 299 300 299 301 300 302 302 302 303 304 305 307 308 308 306 308 311
307 309 308 309 308 307 307 306 307 306 307 306 306 305 304 304 303 303 300 300 300 299 299 298 298 297 298 299 297 296 294 298 297 298 299 300 300 302 301 304 306 308 307
305 307 307 307 307 307 307 306 306 305 305 304 302 301 302 303 302 300 300 299 298 298 298 297 298 297 296 297 297 296 292 290 291 295 295 297 295 297 298 300 301 305 309
305 306 306 307 307 308 307 306 304 302 301 301 300 298 298 300 300 299 300 299 299 299 297 297 299 299 299 295 298 297 296 295 288 287 291 293 293 294 294 295 298 302 305
306 306 306 307 307 307 306 305 304 302 301 300 298 297 298 298 299 299 299 298 297 296 295 295 294 293 294 292 291 291 293 291 290 287 285 287 290 291 292 292 295 298 303
305 305 304 305 306 306 305 303 301 299 298 296 295 295 295 296 296 296 297 297 296 295 294 293 293 292 292 292 291 290 289 288 287 288 287 286 287 288 290 291 293 295 298

GFSSE_sfc_thetae_027.txt.gz
Theta_e
340 344 347 349 349 349 349 349 348 348 348 346 345 344 343 343 342 343 343 345 345 343 343 342 341 341 340 340 339 338 338 337 337 338 339 340 340 338 343 345 344 343 343
342 344 346 348 349 349 349 349 348 348 347 345 344 343 342 341 342 342 341 341 340 341 340 340 339 339 338 337 336 336 336 336 335 336 337 336 337 337 339 341 343 341 343
342 344 346 347 349 349 349 348 348 346 346 345 343 342 341 341 340 339 339 340 339 337 336 336 336 336 336 336 336 336 336 335 335 335 333 326 334 338 335 338 342 342 342
342 343 345 346 348 348 348 348 347 346 345 344 343 342 341 339 339 339 338 337 336 335 335 335 335 335 334 333 332 332 332 331 332 331 324 325 331 339 335 335 337 340 341
341 343 344 344 345 347 347 346 346 346 345 344 342 340 338 338 338 336 336 335 334 334 334 333 332 332 331 330 330 330 329 329 329 322 319 326 331 337 336 333 334 338 341
341 342 341 342 344 346 347 346 345 345 344 343 341 338 338 337 336 335 334 333 332 331 331 330 330 329 329 329 329 328 328 328 325 315 321 328 330 332 332 331 335 340 339
338 340 341 340 343 345 345 344 344 343 342 341 340 339 337 336 335 333 332 331 330 330 328 327 327 327 327 329 328 328 327 328 320 313 316 326 329 336 338 338 339 338 339
336 335 338 341 342 342 343 342 341 341 339 340 340 339 337 336 335 333 331 330 328 327 326 327 327 327 327 328 328 327 326 327 318 313 320 326 333 338 338 338 338 338 338
332 330 332 334 337 338 337 337 337 337 337 337 337 337 336 335 334 334 333 330 328 327 327 328 329 328 328 328 328 327 326 326 314 313 319 324 333 334 335 335 336 336 337
326 327 327 328 329 328 329 334 334 335 335 335 335 334 333 333 333 334 333 332 331 329 329 329 329 328 328 328 327 326 326 322 313 311 317 322 332 335 335 334 334 334 335
323 323 324 325 326 325 326 330 333 334 334 333 333 332 329 326 325 326 329 330 331 330 330 330 330 329 328 327 325 325 325 314 313 310 310 322 329 332 332 331 332 333 333
318 321 322 323 323 324 329 327 326 329 328 327 327 326 326 324 324 326 327 330 331 331 331 330 330 329 326 318 317 320 314 313 312 308 308 321 327 330 328 328 328 328 330
318 320 322 322 322 323 324 325 324 325 325 325 326 325 324 325 323 324 322 320 319 322 318 319 317 317 315 315 315 314 314 313 310 308 310 320 326 326 326 325 325 324 327
318 321 322 323 323 321 322 323 322 323 325 324 325 325 321 317 315 316 314 313 313 312 312 311 311 311 311 312 312 311 311 311 310 309 309 318 323 325 325 325 324 324 326
319 322 321 322 323 323 320 321 322 324 325 325 324 321 319 315 314 314 314 313 312 313 312 311 310 311 310 311 311 310 311 311 310 309 308 316 319 321 325 326 325 325 325
321 322 322 322 322 320 319 319 320 321 322 322 321 320 319 317 314 314 313 312 311 311 310 309 308 307 307 308 307 308 308 309 310 309 309 308 315 318 321 324 325 325 325
323 324 324 324 324 321 319 318 318 319 319 319 317 317 317 316 313 312 309 308 308 307 305 306 305 304 304 305 304 305 306 307 307 308 308 307 308 313 317 320 322 325 326
324 324 325 327 322 322 320 315 314 312 312 312 313 313 312 311 309 306 305 305 305 304 304 303 303 302 301 301 300 300 302 303 305 306 307 307 306 308 311 315 318 321 325
325 324 323 322 322 320 315 314 310 309 310 309 309 308 307 306 306 304 303 302 303 302 302 301 301 300 299 299 300 301 300 300 303 307 305 306 306 307 307 310 313 315 319
318 318 319 321 321 316 311 309 309 309 307 308 305 304 304 303 303 302 302 302 302 300 300 299 298 299 298 297 302 302 300 301 301 300 300 303 304 303 302 303 304 307 311
311 311 312 312 310 311 309 309 306 305 304 304 303 303 302 303 303 301 300 299 299 298 298 298 297 297 297 298 297 298 298 298 297 295 297 297 299 300 299 299 300 302 306
309 310 307 307 307 306 306 306 305 304 303 302 301 300 302 301 300 300 299 298 298 298 298 297 296 296 297 296 293 293 290 292 294 295 294 295 293 297 296 297 297 299 303
305 305 306 305 306 306 306 305 304 304 303 300 298 298 299 299 299 299 299 298 297 297 296 295 295 294 293 295 294 291 287 285 290 292 293 292 291 292 293 294 295 297 301
303 304 305 306 305 306 305 304 303 301 300 299 297 296 297 298 298 298 298 298 296 296 294 294 295 293 292 290 292 294 292 290 288 285 289 291 290 291 291 292 292 296 299
304 303 304 305 305 305 304 304 302 300 300 298 297 296 296 296 297 297 297 296 295 294 293 293 292 291 292 291 289 289 288 289 287 288 284 286 290 289 290 290 291 294 297
304 302 302 304 304 304 303 302 301 298 297 295 295 294 294 294 294 294 295 295 294 294 293 292 292 291 290 289 289 288 289 289 288 288 286 286 286 287 288 289 289 292 293

GFSSE_sfc_thetae_030.txt.gz
Theta_e
340 343 348 350 350 350 349 348 348 348 347 346 345 344 344 343 343 343 343 345 342 341 341 340 340 339 338 337 337 337 337 337 336 337 338 339 340 341 344 345 345 343 345
342 343 346 349 349 349 349 348 347 347 346 344 343 342 342 342 341 340 340 340 339 338 337 337 336 337 337 336 336 336 335 335 335 336 335 337 339 338 340 341 343 342 344
341 343 345 347 349 349 348 348 347 346 345 343 342 342 341 340 339 340 339 337 336 336 335 335 335 334 333 332 331 331 331 332 332 333 333 325 331 340 337 339 342 341 342
341 343 344 346 347 348 348 347 346 345 344 343 342 341 339 338 339 337 336 336 335 334 333 333 332 331 330 330 329 329 329 329 329 327 321 325 328 339 338 335 337 339 341
341 342 344 345 346 347 347 346 346 345 344 343 341 339 338 338 336 336 335 335 333 332 331 331 330 329 328 328 328 328 328 328 326 318 320 324 332 334 339 335 331 337 339
341 342 341 342 344 346 346 345 345 345 344 342 340 338 338 336 335 334 333 333 331 330 330 329 328 328 327 329 329 327 328 328 323 314 317 327 331 336 336 338 338 338 337
339 341 340 340 343 345 345 344 344 343 341 341 340 339 336 335 334 333 332 331 330 328 328 328 328 328 329 329 329 328 327 328 316 314 320 325 328 338 339 340 339 339 339
337 339 338 342 343 343 344 343 341 340 339 340 340 339 336 336 334 332 331 330 329 328 328 329 328 328 330 330 329 328 327 327 316 313 320 325 332 337 336 338 338 338 338
335 332 333 336 339 340 339 338 337 337 337 337 337 337 336 334 334 333 332 331 330 330 331 332 331 331 331 330 329 328 327 325 313 312 317 322 331 335 335 335 336 336 336
327 328 327 330 330 329 331 335 335 335 335 335 335 334 332 332 332 332 331 330 332 332 332 332 332 331 330 330 328 327 326 320 313 311 310 314 328 330 332 334 333 333 333
324 324 324 325 325 324 326 331 334 335 334 333 333 332 329 324 324 325 329 331 332 332 332 331 331 329 328 323 324 325 322 314 313 311 309 317 325 328 330 331 333 331 331
319 321 322 322 322 323 327 326 326 329 328 327 327 326 324 323 323 326 326 328 328 327 325 326 324 323 318 314 314 317 314 314 313 311 309 318 323 326 327 329 331 330 330
318 320 322 322 321 321 323 323 323 324 324 324 325 324 323 323 322 322 320 317 315 317 313 314 313 312 311 311 312 311 311 312 311 311 311 319 321 325 327 327 329 329 329
316 318 321 321 320 320 321 322 321 322 323 323 325 325 321 319 315 315 312 312 312 312 311 310 310 310 309 310 309 308 309 309 310 310 311 318 320 323 325 326 327 330 329
315 317 320 321 321 321 320 321 320 321 323 323 324 322 319 314 313 313 312 311 310 310 308 307 307 306 305 306 306 306 306 307 308 308 309 315 317 319 322 325 326 326 328
317 318 320 320 322 321 319 319 319 321 321 322 320 318 317 315 313 311 308 307 306 305 305 305 304 304 303 304 303 304 305 305 305 306 308 308 313 315 317 320 322 324 326
318 320 321 322 321 319 316 316 318 317 318 317 314 314 313 311 307 305 304 303 303 303 303 303 302 303 301 302 301 302 303 303 304 305 306 307 307 311 313 315 317 319 320
319 322 324 324 321 319 318 317 314 313 313 311 309 307 306 305 304 302 301 301 301 301 301 300 300 300 299 298 298 298 299 301 303 305 304 305 305 305 305 309 310 312 315
322 322 321 322 319 317 314 313 310 309 307 305 304 303 303 303 303 301 300 300 301 300 299 299 298 298 297 298 300 301 300 300 301 301 300 302 303 302 301 303 304 305 308
319 321 322 318 316 314 313 311 308 305 303 302 301 301 301 303 304 303 302 299 300 299 299 298 297 298 297 297 300 299 298 299 298 296 297 299 300 300 299 299 298 299 303
313 317 318 314 314 314 311 306 303 302 300 300 300 301 303 302 301 299 299 299 298 297 297 297 296 296 296 296 294 294 295 297 294 294 295 294 296 297 296 296 297 296 299
312 314 314 312 312 308 306 304 303 301 299 298 298 299 299 299 300 299 298 297 296 295 294 295 294 293 294 294 291 290 287 290 292 294 293 294 292 294 294 295 295 295 299
308 305 305 305 305 305 305 304 302 301 300 297 296 296 297 299 299 298 297 296 295 295 294 293 292 291 290 292 292 290 286 284 288 291 292 291 291 291 292 293 294 294 298
301 303 303 304 304 304 304 302 301 299 298 297 296 295 296 297 297 297 297 296 295 294 293 293 294 292 291 289 290 293 291 290 286 285 291 292 291 291 291 292 292 293 296
302 303 302 304 304 304 303 302 301 298 297 296 295 295 295 295 296 296 296 295 294 294 293 292 291 291 291 289 288 288 288 288 289 287 284 287 291 291 291 291 291 292 294
302 303 304 305 303 303 303 302 300 297 296 295 295 294 293 294 294 294 294 294 293 293 292 292 291 290 289 288 288 288 287 287 287 287 285 284 285 287 289 290 290 291 292

GFSSE_sfc_thetae_036.txt.gz
Theta_e
343 347 348 349 350 350 348 348 348 348 348 347 346 346 346 345 344 343 342 342 341 338 338 338 336 334 334 333 333 332 334 334 334 336 339 339 343 342 341 342 344 340 344
346 347 345 348 349 349 349 348 348 348 347 345 345 344 343 342 342 340 340 341 338 336 334 332 332 330 330 330 330 331 331 332 332 334 336 338 343 343 340 340 343 341 343
345 346 346 347 348 349 348 348 348 346 345 344 344 342 341 341 339 337 338 339 335 334 332 331 330 329 330 331 331 331 332 331 331 332 336 336 339 342 339 339 339 340 340
344 345 346 345 347 348 348 348 347 345 344 343 342 340 340 338 337 337 336 338 336 332 331 330 328 330 330 331 331 331 331 329 329 334 336 337 336 340 340 339 341 339 339
344 346 348 345 346 347 348 347 346 345 345 344 342 339 338 336 336 335 335 336 335 333 332 330 330 330 331 331 331 330 330 329 332 333 335 338 338 339 340 338 338 338 338
345 346 345 343 345 347 347 347 345 344 343 342 341 339 336 334 334 333 334 335 334 333 332 332 331 331 332 332 331 330 329 329 330 326 328 333 336 337 338 337 338 336 338
343 346 348 339 344 346 346 344 344 342 342 341 341 339 336 333 332 332 333 333 332 332 332 332 332 332 332 331 330 330 328 328 322 322 324 326 326 331 333 336 336 335 334
342 344 345 343 344 344 344 344 342 341 341 341 340 339 336 334 334 332 332 332 332 332 332 332 332 332 331 330 329 328 327 327 324 323 321 321 329 329 329 332 338 336 333
343 344 344 345 344 341 341 340 338 338 339 339 338 338 336 335 335 334 334 333 333 333 333 332 331 330 328 327 326 325 324 325 326 325 323 323 327 329 330 329 333 335 333
343 342 340 340 340 340 341 337 336 336 336 336 336 334 333 333 334 332 334 333 332 331 331 329 327 325 325 325 324 324 324 327 324 323 323 324 326 330 330 330 330 332 333
339 338 338 337 338 337 335 336 334 335 335 334 334 332 330 334 334 333 331 331 328 328 327 325 324 324 325 324 322 321 324 322 322 321 321 322 323 327 329 329 330 333 333
333 334 336 336 335 334 330 334 334 332 335 336 335 336 337 338 337 333 330 327 325 325 324 323 323 325 324 321 321 323 319 319 319 318 318 318 320 324 325 326 328 329 332
329 329 331 334 334 331 330 332 332 335 336 337 338 338 338 340 340 339 333 331 331 326 327 326 323 321 321 320 319 319 318 318 317 316 316 317 318 321 324 325 326 327 327
327 328 329 331 332 332 331 332 334 335 336 338 339 340 340 337 334 334 330 329 328 325 324 322 321 320 320 319 318 317 317 316 315 315 317 315 316 319 321 323 324 324 324
325 328 329 330 330 331 332 333 336 338 337 338 339 336 335 334 331 329 327 325 323 323 321 319 318 317 317 317 316 315 314 315 315 315 315 314 313 313 315 318 318 319 319
326 328 332 331 332 332 333 334 335 336 336 336 333 331 329 333 329 325 323 320 319 318 317 317 316 315 315 314 313 313 313 313 312 313 312 315 310 308 309 312 312 313 314
327 330 331 333 334 332 330 330 331 329 328 328 328 327 326 326 324 322 319 316 315 317 317 315 314 312 311 310 309 309 310 309 309 311 311 311 311 309 306 307 308 309 309
328 330 331 329 329 327 327 326 325 319 320 322 323 321 320 318 317 317 316 315 315 314 311 309 308 307 307 307 306 305 307 307 306 311 309 309 309 308 310 306 305 306 306
328 332 330 330 328 327 327 317 316 315 315 316 316 316 315 315 315 315 314 313 312 310 309 307 306 306 305 305 303 304 305 304 305 307 307 307 307 307 306 307 304 304 303
331 331 330 331 328 321 317 319 313 312 312 312 312 312 313 314 315 314 311 310 309 307 306 306 305 305 304 304 301 302 304 305 306 307 305 304 304 305 305 304 304 303 304
330 329 329 326 319 320 317 316 313 310 311 313 314 314 315 314 312 311 309 309 308 306 305 305 304 303 302 304 301 300 301 304 306 304 303 303 303 303 303 303 303 303 303
328 330 328 327 326 324 323 320 319 317 316 315 314 314 314 312 310 308 308 307 307 305 305 305 305 302 302 302 299 298 294 297 301 301 301 302 302 302 302 302 302 302 302
326 328 328 330 328 325 321 319 318 316 314 313 313 313 312 311 310 310 309 307 307 307 304 305 304 303 299 301 301 297 293 291 294 298 298 299 300 300 300 300 300 300 301
328 330 328 326 324 321 320 318 316 316 313 315 314 314 312 311 310 308 307 308 307 307 306 305 303 303 301 298 299 299 299 297 291 290 295 296 297 296 298 298 298 298 299
325 325 323 321 319 319 318 319 318 315 315 314 314 310 311 312 310 308 308 308 307 306 306 305 304 303 301 298 297 296 294 293 293 289 287 291 294 295 296 296 296 297 298
318 319 318 317 316 317 318 317 317 314 312 311 310 308 307 308 308 308 307 308 308 307 306 305 304 301 301 300 297 295 293 291 290 289 287 290 290 292 294 295 295 296 296

GFSSE_sfc_thetae_039.txt.gz
Theta_e
342 345 348 350 350 349 348 348 348 348 348 347 347 346 345 344 343 343 342 342 339 337 335 333 332 331 331 331 331 332 333 334 334 337 337 343 344 342 340 341 342 339 344
344 346 346 348 349 349 348 348 348 348 347 346 345 344 343 343 342 341 341 340 336 334 333 331 330 332 332 332 333 333 333 333 333 335 337 343 342 341 340 339 342 339 342
344 345 346 347 348 348 348 348 348 346 345 344 343 342 341 339 338 338 339 339 335 333 331 330 332 332 332 332 332 332 332 332 334 336 340 338 339 342 340 342 342 340 340
344 345 346 345 347 348 348 348 347 345 344 342 341 340 338 337 337 336 335 337 335 333 330 332 332 332 332 331 331 331 330 333 334 336 333 335 335 340 339 339 340 337 337
344 344 346 345 346 348 348 347 346 345 344 342 342 338 336 336 335 334 335 337 336 333 332 332 332 332 332 332 331 330 331 333 333 329 331 333 333 337 338 337 337 336 336
344 345 343 342 345 347 347 346 344 343 343 342 341 338 335 334 333 334 336 337 334 333 333 332 332 332 332 332 331 331 331 331 330 322 325 329 327 331 334 337 336 334 335
342 344 345 340 344 345 346 344 343 342 342 342 340 338 335 333 333 333 334 334 333 332 332 332 332 332 331 330 329 329 329 329 326 322 320 325 327 331 331 333 336 334 333
340 343 344 343 343 344 345 343 342 341 341 341 340 338 335 334 334 333 333 333 333 333 333 332 332 330 329 328 328 327 327 328 326 324 323 326 329 331 331 331 335 335 332
342 342 342 344 344 342 341 339 338 339 339 339 339 337 336 336 336 335 334 333 333 333 332 331 329 328 327 326 325 326 327 328 326 323 322 325 328 330 332 331 331 333 334
342 341 340 340 339 340 339 337 337 337 337 337 336 334 333 333 333 334 335 333 331 331 330 327 326 325 325 324 324 324 325 326 322 321 322 322 325 327 329 330 331 330 331
338 334 335 335 336 335 334 335 335 337 336 335 333 333 330 331 332 333 330 329 328 328 326 324 325 324 325 324 323 322 323 321 320 319 319 321 321 324 326 327 327 329 330
330 332 334 335 334 334 328 332 332 332 332 334 334 334 335 335 335 332 329 328 327 326 325 324 325 324 325 323 322 325 321 321 320 319 319 320 319 321 323 325 326 327 328
331 331 332 334 334 331 331 330 331 333 335 336 337 336 338 336 336 334 332 329 331 326 327 325 325 323 323 322 321 321 320 320 319 318 318 318 318 319 321 323 323 324 324
328 328 329 331 331 331 330 330 332 333 334 335 337 338 337 334 335 333 330 330 328 326 326 325 323 323 322 321 320 319 318 317 316 316 317 317 316 316 317 319 319 319 319
325 326 327 329 331 333 333 335 335 336 340 340 339 337 336 333 333 331 330 327 325 324 322 321 320 319 319 319 318 316 315 315 315 313 314 315 313 312 312 315 316 315 315
325 328 329 329 332 333 335 336 339 341 339 336 335 333 332 332 333 330 328 324 321 320 319 318 317 315 314 314 313 313 311 311 312 312 311 312 312 310 308 309 311 312 312
327 330 332 333 334 334 333 332 330 330 330 331 330 329 329 329 327 325 320 317 317 318 318 315 313 312 311 310 310 309 308 308 309 308 309 311 310 311 308 307 307 308 308
330 331 333 333 332 330 329 327 325 325 325 324 325 325 324 322 321 321 317 315 316 315 313 311 309 308 308 307 307 306 305 306 308 307 307 309 308 307 310 308 305 306 306
331 332 331 332 329 327 323 320 318 318 319 320 320 318 317 316 317 317 316 313 313 311 310 309 307 307 305 305 304 305 305 305 305 306 308 308 307 306 305 308 309 307 303
331 332 332 330 330 327 325 323 317 315 315 317 315 314 315 316 317 316 313 313 311 310 308 307 306 306 305 304 303 303 305 304 305 308 307 305 304 305 305 304 304 304 307
333 331 329 328 328 326 322 320 316 315 313 314 314 317 317 317 314 313 312 311 310 308 307 308 306 305 304 305 301 301 301 305 305 304 304 304 303 303 304 303 303 302 302
331 330 330 329 327 329 322 324 323 319 317 318 317 318 318 315 313 311 311 309 309 307 307 307 306 304 303 303 299 298 295 297 301 302 302 301 302 302 301 301 301 301 301
328 328 330 329 330 328 328 323 321 320 319 316 316 316 315 313 312 311 310 309 308 308 306 306 306 304 300 302 302 297 293 291 295 298 299 300 301 299 299 299 299 299 299
329 332 330 328 328 325 323 320 318 315 314 316 316 316 315 313 311 310 308 309 309 308 307 306 305 305 303 299 300 299 300 297 291 289 295 296 297 297 299 298 297 298 298
329 328 328 327 324 322 321 320 319 317 318 318 317 314 313 312 311 309 309 309 308 307 307 307 307 305 303 300 299 297 297 296 295 291 288 291 294 296 298 297 297 297 297
326 326 324 322 320 321 320 320 319 317 314 312 313 310 309 308 308 309 308 308 308 306 306 306 306 303 302 302 300 298 296 293 292 291 290 290 290 292 295 296 297 296 297

GFSSE_sfc_thetae_042.txt.gz
Theta_e
339 344 349 350 350 349 349 348 348 348 348 349 348 347 346 344 343 343 342 340 338 334 333 332 334 334 334 335 335 335 335 335 335 339 345 343 342 342 341 343 341 338 345
341 344 347 349 349 348 348 348 348 348 348 345 345 345 343 343 342 341 340 339 337 333 333 334 334 334 334 334 333 334 334 336 338 339 341 341 342 341 341 342 342 340 343
341 344 346 347 348 348 348 348 348 347 345 343 343 342 342 341 340 340 339 338 336 332 334 334 333 333 333 332 332 332 334 336 336 337 341 335 336 340 340 341 339 340 338
342 342 344 346 347 348 348 347 346 345 343 343 342 341 341 339 337 336 338 338 336 334 334 334 333 333 333 332 332 332 334 334 334 336 334 333 332 339 339 338 337 334 336
340 343 344 344 345 347 347 346 346 344 343 342 340 339 336 335 335 336 338 337 337 334 334 334 333 333 332 332 333 333 333 333 332 331 322 323 324 332 337 337 335 334 335
343 343 341 342 344 346 346 346 345 343 342 340 339 338 335 335 336 336 338 337 335 334 334 333 332 332 333 332 332 332 331 331 332 318 321 326 326 333 332 335 337 336 335
340 340 341 340 343 345 345 344 343 342 341 340 338 337 336 334 334 335 336 336 335 333 333 333 331 331 331 331 330 330 330 329 324 318 321 323 326 332 332 332 335 335 334
337 339 340 343 343 343 344 342 341 341 340 339 338 337 336 335 336 335 336 336 335 334 333 332 330 329 329 328 328 327 327 328 322 317 322 323 330 332 332 332 334 334 334
337 337 340 341 342 340 339 338 338 339 339 338 337 336 336 336 336 336 336 335 334 333 332 329 328 328 327 325 325 325 326 326 320 317 320 320 329 328 329 330 331 332 333
336 336 337 340 339 338 335 336 336 336 336 336 335 334 333 333 334 335 334 333 332 331 329 326 327 326 326 324 323 323 324 325 316 314 316 318 325 324 326 328 328 329 330
333 336 336 336 336 335 334 335 336 336 335 334 333 333 330 328 330 332 330 330 330 329 328 326 325 324 326 325 324 322 325 316 316 315 315 324 324 324 324 325 327 328 328
329 331 333 334 334 331 328 331 331 331 330 330 330 330 331 333 331 330 327 328 329 327 326 325 324 325 325 319 318 322 316 317 315 314 315 323 321 322 322 323 323 323 323
328 330 331 333 332 328 328 329 329 330 331 335 335 334 335 335 332 330 326 323 325 327 325 323 322 320 320 318 317 316 316 314 312 312 316 321 319 319 319 319 319 319 319
326 328 330 330 332 331 329 329 331 332 334 334 335 335 334 332 331 329 327 327 325 324 321 320 319 318 317 317 316 315 314 312 310 310 313 318 317 316 316 316 316 316 316
324 325 327 329 331 331 333 334 333 332 333 333 335 333 332 331 330 329 326 324 321 319 317 316 315 313 313 312 313 312 308 307 308 309 307 316 315 313 312 313 313 313 313
323 324 326 328 332 334 334 334 332 333 334 333 331 331 331 330 330 327 321 317 316 316 315 314 311 311 309 309 307 309 307 305 305 307 304 308 314 312 310 310 310 310 310
324 324 327 330 334 331 330 328 326 326 327 327 326 328 327 327 322 318 317 316 315 314 312 310 308 307 306 306 304 305 304 302 303 305 303 303 309 312 310 307 308 308 308
326 326 329 332 331 329 327 325 324 324 323 322 323 323 322 320 319 317 315 313 313 312 308 307 306 303 302 302 300 302 302 302 302 302 302 304 304 303 310 311 309 307 307
327 330 331 329 325 324 323 322 320 321 319 320 321 317 316 316 317 315 313 310 310 309 308 305 303 302 300 300 300 299 300 301 300 302 303 304 303 301 301 308 310 309 306
330 330 329 326 325 324 323 322 321 319 318 317 314 314 315 315 316 314 311 310 309 306 305 304 303 303 302 301 301 300 299 299 300 301 302 304 300 301 299 300 300 300 307
331 328 328 325 325 323 321 318 317 315 314 314 313 314 316 316 313 310 310 308 307 305 304 304 302 301 300 301 297 297 297 298 297 298 298 297 298 299 298 299 297 296 297
329 330 327 326 325 325 323 321 320 317 314 314 314 316 317 314 311 310 308 307 306 304 304 304 302 300 299 300 295 295 290 293 296 297 296 296 295 297 297 296 296 296 295
329 328 327 326 325 326 322 324 322 318 316 315 314 314 314 313 311 309 308 306 305 304 302 303 302 301 297 298 298 295 290 287 291 293 293 294 294 294 295 295 296 296 295
329 328 329 328 327 327 326 320 317 314 312 313 313 314 312 312 311 309 307 306 305 305 303 303 302 301 299 295 297 298 295 293 287 287 290 292 293 293 292 293 293 294 294
327 328 329 328 325 324 321 320 317 316 315 314 314 313 312 312 311 309 308 306 305 304 303 302 302 300 299 297 295 294 294 293 292 288 285 287 291 291 291 292 293 293 294
328 328 327 324 322 320 320 320 318 317 314 312 312 310 310 308 306 307 307 305 303 302 300 299 299 297 297 297 296 295 293 292 290 288 287 286 286 288 290 291 291 292 291

GFSSE_sfc_thetae_045.txt.gz
Theta_e
340 346 348 350 349 349 348 348 348 347 348 348 346 345 344 343 341 340 339 338 338 336 336 335 335 335 335 335 335 335 335 337 340 343 344 343 343 341 340 342 342 338 343
343 347 347 348 349 349 348 348 347 347 347 344 344 344 342 342 341 340 338 337 338 335 335 335 334 333 332 333 333 335 337 338 337 341 342 341 341 341 339 339 340 338 341
343 346 346 346 347 348 348 348 347 346 344 341 342 342 341 340 339 338 338 338 338 335 335 334 333 332 332 332 333 335 336 336 336 337 341 333 334 339 338 339 337 336 335
343 344 345 345 347 347 347 347 345 345 342 342 342 340 340 338 337 336 338 338 338 334 334 333 333 332 332 331 334 335 335 336 338 338 325 325 329 337 338 336 335 334 333
340 343 345 345 345 346 346 345 344 343 342 341 339 339 336 336 336 336 338 337 337 334 334 333 332 331 331 332 332 332 333 333 331 325 320 323 324 331 335 335 333 332 332
340 342 342 342 343 345 346 344 343 342 339 338 338 338 337 336 336 336 338 337 335 334 333 332 331 330 332 331 330 330 330 331 325 318 321 327 325 334 333 333 334 333 334
339 340 340 339 342 345 345 343 342 340 338 338 338 338 337 336 335 335 337 336 334 333 332 331 330 330 330 329 330 329 328 329 317 318 320 323 326 333 333 332 333 333 333
336 337 338 340 342 342 342 341 340 339 338 337 337 337 337 336 336 336 336 336 334 333 332 330 329 329 328 328 329 327 326 328 317 315 318 319 330 330 330 330 330 333 332
334 334 336 339 340 339 338 338 337 337 337 336 336 336 336 335 336 337 336 335 334 332 330 329 328 327 327 325 327 326 326 326 312 314 317 317 329 327 327 328 328 329 330
333 334 335 336 335 333 334 335 335 335 334 334 334 334 333 334 335 334 333 333 333 331 329 326 327 325 325 324 325 326 323 322 312 311 314 319 327 325 326 327 326 326 326
332 334 334 334 332 332 332 335 334 335 333 332 332 332 329 328 329 330 329 331 331 329 327 327 325 324 326 324 326 326 321 313 312 311 314 325 324 323 324 323 323 322 322
328 330 331 333 330 329 331 330 329 330 327 326 327 327 325 326 327 326 327 329 329 328 326 326 324 325 322 315 315 319 312 311 310 310 314 323 321 320 321 320 320 319 319
328 328 331 332 327 324 327 326 327 326 326 326 326 326 328 329 327 325 321 322 321 326 320 320 317 315 313 313 314 311 311 309 306 308 317 320 318 318 318 318 317 316 315
327 326 326 326 323 324 326 325 326 326 328 329 331 331 330 328 326 326 323 324 318 316 313 313 310 310 310 309 309 309 306 304 305 305 312 318 317 315 316 315 314 314 313
324 324 323 325 323 324 324 328 329 329 330 330 329 329 329 327 324 321 315 314 313 312 311 309 306 308 306 306 304 306 303 302 302 304 303 317 317 314 313 313 312 312 311
322 322 321 324 324 330 328 328 329 329 328 327 326 325 326 323 317 315 313 312 312 310 308 305 304 303 302 303 302 303 302 300 300 301 300 301 315 314 312 310 310 310 311
321 321 321 324 329 325 323 323 323 325 324 324 323 323 322 317 315 313 312 309 309 309 305 304 302 301 300 301 299 300 300 300 300 300 299 300 309 313 312 308 308 308 309
320 320 323 329 324 322 320 319 319 318 320 320 319 318 317 316 314 311 309 307 307 305 304 302 300 300 298 298 297 296 298 298 299 298 299 301 300 302 311 312 307 308 307
322 324 324 323 320 320 319 317 317 316 316 316 314 312 313 313 313 311 306 304 306 304 302 301 300 299 297 298 298 296 296 297 296 300 299 300 298 299 298 307 307 306 304
325 324 322 321 319 318 317 317 315 314 313 313 310 309 310 311 311 307 306 304 304 302 300 300 299 299 298 297 300 297 295 296 296 294 295 297 297 296 296 297 295 296 304
325 323 321 319 319 319 315 313 311 309 309 308 308 310 311 311 308 307 305 304 302 301 299 300 299 297 297 297 294 293 294 295 294 294 294 293 295 295 295 294 294 293 295
323 322 321 319 319 319 317 314 313 309 308 308 308 309 311 310 307 305 303 302 301 300 300 299 298 296 296 296 293 291 289 291 292 294 292 293 292 293 294 295 294 294 293
323 322 321 321 320 321 320 316 314 310 308 307 307 308 308 308 307 305 304 302 301 300 299 298 298 297 294 295 295 293 288 285 288 291 291 291 291 291 291 292 293 293 293
322 323 323 323 321 322 321 317 312 308 307 307 308 308 306 307 306 305 303 302 301 300 299 298 300 296 296 293 294 297 292 290 286 285 288 290 291 291 290 289 290 292 292
323 323 323 323 322 322 322 317 313 308 308 309 309 308 307 308 307 305 303 301 300 299 297 296 294 294 294 293 292 292 291 291 290 287 285 285 289 289 289 289 289 289 290
324 324 323 323 322 320 317 313 311 310 309 309 310 309 308 307 304 301 300 297 297 296 295 294 294 293 293 293 293 293 291 291 291 291 286 284 284 286 288 288 288 288 289

GFSSE_sfc_thetae_048.txt.gz
Theta_e
341 346 348 350 350 349 347 347 347 347 346 344 343 343 341 340 339 338 339 339 338 336 335 334 334 334 334 334 334 335 335 340 342 341 342 342 341 339 337 339 339 337 341
344 346 346 348 349 348 348 347 347 346 344 342 342 341 341 340 339 338 339 339 338 334 334 333 333 333 333 334 335 335 335 338 341 341 340 340 339 339 337 336 337 334 336
344 345 346 346 347 348 348 348 346 344 342 340 340 340 340 339 338 339 339 339 337 334 334 333 332 332 333 334 336 340 338 338 340 338 336 330 331 337 336 334 335 333 333
345 345 345 345 346 347 347 346 344 342 340 341 339 338 339 337 337 337 338 337 337 334 334 332 331 330 331 334 334 335 335 335 332 330 322 323 327 334 334 333 332 331 331
342 343 344 344 345 346 345 344 343 342 341 340 339 338 337 336 336 336 338 337 336 333 332 331 330 329 332 332 332 332 332 331 329 326 322 323 324 331 334 333 332 331 331
342 343 342 343 344 345 344 343 342 341 339 338 339 339 337 337 336 336 337 336 335 332 331 330 329 330 331 331 331 331 331 329 325 319 321 327 325 332 333 333 332 332 332
341 341 340 340 342 343 344 342 340 339 337 338 339 339 338 335 335 335 337 336 335 331 331 330 329 330 330 330 330 329 327 327 317 317 318 321 324 330 330 330 331 332 332
335 337 339 340 339 340 341 340 338 337 337 338 338 338 337 336 336 335 336 335 334 331 330 329 330 329 329 328 329 327 325 323 316 314 316 317 328 328 329 329 329 330 329
333 331 331 333 337 339 337 337 336 336 336 336 336 336 336 336 336 336 336 335 333 332 331 330 328 327 328 327 328 325 324 322 311 313 317 317 329 327 327 326 326 324 324
330 329 328 332 334 334 334 335 334 334 334 334 334 334 333 334 334 334 334 334 333 331 329 328 326 326 326 326 327 326 322 319 309 311 314 319 326 325 325 324 323 322 321
326 327 328 330 331 331 332 333 334 334 333 332 333 332 330 328 327 325 329 331 331 328 326 327 328 326 323 322 324 323 318 309 308 311 313 325 322 322 322 321 320 319 319
325 327 330 330 330 330 331 329 328 328 326 326 326 325 324 325 326 325 328 330 329 327 326 326 324 321 317 312 312 315 309 306 305 308 312 322 320 319 320 318 317 316 315
325 329 330 329 328 326 327 326 325 323 323 324 324 323 324 326 325 322 321 320 319 321 314 313 311 310 308 307 307 306 303 302 301 303 313 320 318 316 317 316 315 314 314
326 328 330 328 324 321 324 324 323 323 324 325 327 327 325 325 324 321 318 316 314 312 310 307 307 306 304 304 304 304 301 299 299 302 306 317 316 314 315 315 313 312 312
325 326 329 326 321 323 322 322 324 326 328 327 326 327 327 324 319 315 314 312 310 309 306 304 303 302 302 301 300 301 300 298 298 300 299 310 316 313 313 312 310 310 311
325 324 327 322 320 325 325 326 326 327 326 324 323 322 323 319 314 312 310 309 307 306 304 302 299 299 299 299 299 299 299 298 299 298 297 298 314 315 312 309 308 309 309
323 322 322 324 326 325 324 326 324 324 323 321 321 319 316 315 312 310 308 307 306 303 302 300 299 299 298 299 298 298 298 298 298 297 297 299 307 314 312 308 307 308 307
321 320 326 328 322 321 319 320 319 319 319 319 318 316 315 314 311 308 306 305 305 303 301 299 298 298 297 297 295 294 295 297 296 297 298 297 297 300 307 309 307 306 305
320 322 323 322 320 319 318 316 315 316 316 315 313 312 312 312 310 306 305 304 303 301 300 300 298 297 296 296 297 295 294 295 294 297 295 295 295 295 296 304 303 303 302
320 324 322 320 319 317 316 314 312 312 312 311 309 309 310 310 309 305 304 302 301 300 299 298 297 297 296 296 299 296 294 294 293 293 293 295 294 294 294 294 293 294 304
322 322 320 318 316 316 314 311 310 309 309 308 308 309 310 309 308 305 303 301 300 299 298 299 297 296 295 295 292 292 292 293 292 292 292 291 293 293 293 293 292 292 293
321 321 319 318 317 316 315 312 312 309 308 307 307 308 309 306 305 304 302 300 300 299 298 297 296 295 295 295 292 290 288 291 291 293 291 291 290 291 292 293 291 291 291
319 319 318 318 317 317 316 313 309 307 306 304 304 305 308 306 305 304 302 300 300 299 297 296 296 295 293 293 293 292 287 285 286 290 291 290 290 290 289 290 291 291 291
320 320 319 318 318 318 317 313 309 306 305 305 305 306 306 305 305 304 302 300 300 299 297 297 296 293 293 290 292 295 291 290 286 286 288 290 290 290 288 288 288 289 289
321 320 320 319 318 319 318 315 311 306 306 306 306 306 304 304 304 302 301 299 297 296 295 294 292 291 291 290 289 290 289 289 288 285 284 284 288 289 288 288 288 288 289
321 320 320 320 319 320 319 315 312 308 306 306 305 304 303 302 301 300 298 296 295 295 294 293 291 291 290 290 290 290 290 289 288 290 289 289 288 286 287 288 288 287 288

GFSSE_sfc_thetae_051.txt.gz
Theta_e
340 346 348 349 348 347 347 347 345 344 344 342 340 339 339 340 340 340 340 339 338 335 335 335 334 335 336 336 336 340 341 341 341 342 341 340 339 337 336 335 334 331 338
343 346 347 348 348 347 348 346 344 343 342 339 339 340 339 340 340 340 339 338 337 334 335 334 334 336 339 340 337 338 341 341 340 339 338 337 336 335 335 333 335 330 334
343 346 346 346 346 347 347 346 344 342 339 337 337 339 340 340 340 340 338 338 338 334 334 333 333 336 338 339 340 339 339 336 335 334 333 325 326 333 332 332 331 331 331
344 345 345 345 345 346 346 344 342 340 339 338 339 337 339 338 337 338 338 337 337 336 333 332 332 332 333 336 336 335 334 333 332 330 322 323 327 333 333 333 332 332 331
343 344 343 344 344 345 344 342 341 341 340 340 340 338 338 336 336 335 338 336 336 334 331 332 331 331 333 333 333 333 331 331 329 325 322 323 323 330 332 333 332 332 332
342 343 340 341 343 344 343 343 341 340 339 339 339 339 337 336 335 336 337 336 336 332 330 330 330 333 331 330 332 330 329 326 323 317 319 323 323 331 331 331 331 332 332
339 341 339 339 342 343 343 342 340 339 339 339 339 339 338 336 335 336 336 335 334 333 330 329 332 331 331 329 328 329 327 324 314 314 315 318 322 329 329 329 329 328 329
331 338 338 340 339 339 340 339 338 338 338 338 338 338 337 337 336 336 336 335 334 333 331 331 331 330 329 329 328 325 325 321 314 314 316 316 327 327 327 326 325 324 324
329 329 331 333 335 337 337 336 336 337 337 337 337 336 336 335 335 335 335 334 333 332 331 330 330 330 329 328 327 324 323 320 311 313 317 317 327 325 325 324 323 322 322
325 326 328 332 333 333 332 334 334 335 335 336 336 335 334 334 335 335 334 333 332 330 330 330 328 327 328 326 325 323 319 316 309 310 313 318 324 323 322 322 321 320 319
321 322 323 326 331 331 331 332 334 335 334 333 333 332 329 326 326 324 330 331 330 329 330 328 326 323 321 321 322 319 312 304 307 309 311 324 321 321 320 319 318 317 316
317 319 319 320 327 330 331 329 328 329 328 327 325 325 324 324 322 326 328 330 329 328 326 323 321 317 311 307 307 308 302 301 302 305 310 322 319 318 318 317 316 315 314
320 321 322 321 326 327 327 326 324 323 323 323 323 323 324 325 321 321 319 318 315 316 310 309 307 305 303 304 303 300 299 298 298 302 309 318 315 313 316 315 315 314 313
320 323 328 328 327 323 324 323 322 321 322 322 322 323 323 323 319 317 318 314 310 308 305 305 304 302 301 301 301 300 298 297 297 298 300 310 315 312 315 313 312 313 311
323 326 328 326 325 322 322 320 322 322 323 325 326 327 325 323 320 315 311 310 308 305 303 301 300 300 299 298 298 298 297 297 297 297 296 307 311 312 313 311 310 312 310
324 326 328 325 322 321 321 321 322 325 326 324 322 324 323 317 313 310 308 306 304 302 301 299 298 298 297 297 297 298 297 297 296 296 296 299 315 315 311 309 309 309 308
325 325 327 323 320 322 322 323 324 324 322 321 319 318 315 313 311 309 307 306 303 301 300 299 298 297 297 298 295 296 296 296 296 296 296 297 303 312 311 307 307 307 306
322 324 324 323 322 321 321 320 320 319 319 318 316 314 313 312 310 307 306 305 302 300 299 298 297 296 296 296 294 294 294 295 295 294 294 295 295 297 303 307 305 304 304
320 320 322 322 320 319 317 316 316 316 316 315 313 312 311 310 308 305 304 303 301 299 299 299 297 296 295 295 295 293 294 293 293 295 293 293 294 294 295 301 302 302 302
317 322 322 320 318 317 315 314 313 313 312 311 310 310 310 308 306 304 302 301 300 298 298 297 296 296 295 294 297 295 293 292 292 291 291 294 292 292 292 292 291 293 302
317 320 319 317 316 317 314 311 309 309 309 307 307 308 309 307 306 303 301 300 298 298 298 297 296 295 294 294 292 292 291 292 291 291 291 290 292 292 291 291 290 290 291
318 320 318 318 316 317 316 311 311 309 308 307 307 307 308 307 305 303 300 299 298 298 297 296 295 294 294 293 291 288 287 289 290 292 291 291 289 290 291 291 290 290 289
318 319 319 318 317 316 315 311 307 306 305 304 304 305 307 305 305 303 301 299 298 298 296 295 295 294 291 292 293 290 285 283 286 289 289 290 289 289 288 289 290 290 289
318 320 320 319 317 316 315 311 308 306 304 304 304 304 306 305 303 302 300 299 298 298 296 295 294 292 293 289 290 293 290 289 285 284 287 288 288 289 289 287 288 289 289
318 318 318 318 317 317 315 313 309 306 305 304 304 304 304 302 302 301 300 299 297 296 293 292 292 291 291 289 288 288 288 287 286 285 282 284 288 290 289 288 287 287 288
318 318 317 317 317 318 316 314 310 307 305 304 303 303 301 300 299 299 298 297 297 296 293 291 291 290 289 288 289 288 288 288 287 286 284 286 289 289 287 287 287 286 286

GFSSE_sfc_thetae_054.txt.gz
Theta_e
341 344 347 348 348 347 346 345 344 344 343 341 340 340 340 340 341 340 339 339 339 337 337 338 338 338 339 343 341 340 340 341 341 340 338 337 337 336 335 334 333 330 334
343 345 345 347 347 346 346 344 343 342 341 338 340 340 341 341 340 339 339 339 339 337 338 341 341 341 339 341 341 339 338 338 338 336 334 334 333 333 333 332 333 329 333
342 345 344 345 346 346 345 344 342 341 340 337 338 340 341 340 339 339 339 338 338 337 339 341 340 339 340 341 337 336 334 334 335 334 332 325 327 333 334 333 332 332 332
344 344 343 345 345 345 344 342 341 340 340 339 339 339 340 340 339 339 338 337 337 337 336 338 340 341 339 337 336 335 334 333 332 330 323 324 327 333 333 333 332 333 332
342 344 343 343 344 343 342 341 340 340 339 339 340 339 337 338 339 338 337 336 336 336 333 334 335 333 334 334 334 332 331 330 328 324 322 323 324 329 331 332 332 332 332
341 342 341 341 342 343 342 341 340 340 339 339 339 340 338 337 337 338 336 335 336 335 332 331 331 331 332 331 331 329 328 326 322 317 319 324 324 330 330 329 329 329 330
336 340 339 340 341 342 342 341 340 340 339 339 339 338 339 338 337 338 336 335 334 334 333 330 330 330 331 331 329 327 326 324 315 315 316 320 322 328 327 326 325 325 325
331 331 339 340 339 340 340 339 338 338 339 339 338 338 338 337 337 336 335 334 334 333 333 332 331 330 329 328 328 326 324 320 315 315 317 318 325 325 325 324 323 322 323
328 326 328 331 331 336 336 336 337 337 338 337 337 337 336 336 335 335 334 333 333 333 333 332 331 328 329 327 324 324 322 319 311 314 317 317 324 324 323 322 321 320 320
325 323 324 327 330 331 332 335 335 336 336 336 336 335 334 335 335 334 333 332 332 332 330 329 328 327 326 324 320 317 317 316 309 310 313 319 322 322 321 320 319 318 317
324 323 327 322 323 329 330 333 335 336 335 334 334 333 328 326 326 324 330 330 331 329 327 325 321 320 319 319 316 312 308 302 306 309 311 324 321 320 319 318 317 316 316
318 320 323 326 329 329 330 327 328 331 328 327 326 324 323 321 321 326 328 329 327 325 323 320 316 314 309 303 302 304 299 301 304 308 311 320 316 318 318 316 316 315 315
315 318 319 322 327 327 326 325 324 324 322 322 323 323 323 322 320 320 317 315 312 313 307 306 304 302 302 301 300 298 298 298 298 298 304 314 315 313 316 314 315 313 313
315 316 319 321 324 325 325 323 322 321 321 320 321 323 323 319 318 317 314 310 307 305 304 302 301 300 300 300 299 298 298 297 296 297 298 311 313 312 316 313 313 312 311
317 320 322 324 324 323 322 321 321 320 320 321 322 323 324 319 316 314 310 307 304 303 301 300 299 298 298 298 298 297 297 296 297 297 297 309 312 313 314 311 311 312 310
319 321 326 324 323 321 320 319 320 322 322 323 323 324 323 320 314 311 307 304 302 300 299 298 298 297 296 297 297 297 296 296 296 296 298 305 316 315 311 310 309 309 308
321 325 326 324 320 320 319 320 320 323 323 321 320 321 318 315 311 309 305 302 300 299 299 299 297 297 297 297 296 296 296 296 295 295 296 298 302 309 310 308 309 308 307
321 321 324 324 319 318 318 319 319 320 319 318 316 315 313 314 311 307 304 301 301 300 299 298 297 296 296 295 294 294 294 295 295 294 294 295 296 299 304 305 304 304 303
320 321 320 319 318 317 316 316 316 317 316 316 314 314 311 310 308 306 305 302 300 301 298 298 297 296 295 295 295 294 293 293 294 294 294 294 295 295 296 299 302 303 305
318 319 319 319 317 315 313 313 313 313 313 313 311 310 309 308 306 304 302 300 300 298 297 297 296 295 295 294 297 296 293 293 293 292 293 294 293 293 293 293 293 293 300
315 319 319 316 315 315 315 313 310 310 309 309 311 311 308 305 304 303 301 299 298 297 297 296 295 294 294 294 293 292 292 292 292 292 292 292 293 293 293 293 292 291 292
316 319 318 318 316 316 317 310 311 309 309 308 310 308 308 305 303 302 300 298 297 297 296 296 295 294 294 293 291 289 286 289 291 292 292 292 292 291 292 292 291 292 291
315 318 319 318 316 317 315 311 307 308 307 307 304 305 306 305 304 302 300 298 297 297 295 295 295 294 291 291 292 289 283 283 286 290 290 291 290 291 290 291 291 291 291
316 318 319 318 316 316 314 311 308 307 305 305 304 304 305 304 303 301 299 298 297 297 296 294 294 292 291 288 290 293 290 289 285 285 289 289 290 291 291 291 290 290 290
316 317 319 318 316 316 314 313 310 308 308 307 306 304 304 302 301 300 299 298 296 295 293 293 292 291 290 290 288 288 288 288 287 286 285 286 291 292 291 291 289 289 289
314 315 316 317 316 316 315 313 310 309 308 307 303 303 301 299 299 298 298 296 295 294 293 294 292 292 291 289 289 289 288 288 287 286 284 285 288 288 291 290 288 287 286

GFSSE_sfc_thetae_057.txt.gz
Theta_e
342 345 347 348 348 347 346 345 345 344 343 343 342 342 341 342 341 341 341 341 342 340 340 341 343 343 341 340 339 339 339 338 338 338 335 334 335 335 334 334 335 331 334
344 345 345 347 347 346 345 345 343 342 341 342 342 342 341 341 341 341 340 341 342 342 343 341 343 342 340 337 337 337 336 337 337 336 335 334 335 335 334 333 334 332 333
343 344 345 345 346 346 345 344 343 342 341 340 342 342 341 341 341 340 340 341 345 343 344 341 343 342 336 335 336 335 334 334 334 334 334 330 331 334 334 333 333 333 333
343 343 344 344 344 345 343 342 341 341 341 342 342 341 341 341 340 340 339 340 344 345 343 342 343 337 335 336 336 334 334 332 331 332 329 329 328 332 333 333 333 333 333
343 343 344 343 343 343 342 341 340 340 341 341 341 341 341 341 340 339 338 337 340 342 341 341 337 334 334 335 334 333 331 330 329 329 328 329 328 329 330 330 330 330 331
342 343 340 341 341 341 341 341 340 340 340 339 339 340 341 340 339 338 337 337 337 338 335 334 332 331 333 332 331 329 328 326 328 326 327 328 327 328 327 327 327 327 327
335 341 341 339 340 341 342 341 340 339 339 339 339 339 339 339 338 337 336 336 335 335 335 333 331 332 331 330 329 327 326 325 324 324 324 325 326 327 325 324 324 324 325
331 334 336 340 339 336 339 340 338 338 339 338 338 338 339 338 337 336 335 335 335 334 333 331 331 331 331 329 325 325 323 324 321 322 322 323 325 324 323 322 321 321 322
328 326 324 324 326 327 331 337 337 337 338 337 337 337 337 336 335 334 334 334 334 333 332 331 331 329 327 325 323 322 322 320 320 321 320 322 323 322 322 320 319 319 319
327 326 324 321 320 323 328 334 336 336 336 336 336 335 334 334 334 334 332 333 333 333 331 328 328 326 322 320 319 317 316 318 317 318 320 321 322 322 320 319 318 318 318
323 323 323 320 321 323 331 334 335 336 335 334 334 333 330 329 329 327 331 331 330 329 327 324 322 320 319 317 314 313 316 316 316 317 318 323 321 320 319 318 317 317 317
321 321 321 321 319 318 319 326 332 333 331 332 331 330 329 329 328 326 329 328 326 325 323 319 316 313 312 309 308 309 309 310 309 309 314 319 316 319 317 317 316 315 315
320 318 318 319 323 326 326 328 331 330 330 330 329 329 328 329 328 327 325 321 319 316 312 312 309 309 310 309 308 308 308 307 308 308 308 314 316 316 316 316 315 314 313
319 318 324 325 327 327 328 328 329 328 328 327 328 330 328 326 326 324 319 316 313 312 311 310 309 310 308 308 308 308 307 306 306 307 307 312 313 315 316 313 315 312 311
316 319 322 326 329 328 327 327 327 327 326 329 329 330 328 325 325 321 316 314 311 311 309 308 308 307 307 307 307 306 306 306 307 308 313 318 317 315 314 312 312 311 310
317 319 322 325 329 329 327 327 326 328 328 328 327 329 329 324 323 317 314 312 310 309 309 308 308 307 306 307 306 306 306 305 306 309 313 314 314 314 312 310 309 309 309
319 321 324 326 328 329 327 326 326 326 327 326 327 330 330 326 323 318 314 311 309 309 308 308 308 308 306 306 305 306 306 305 305 306 310 312 311 312 310 309 307 306 306
320 322 326 328 328 329 327 326 326 327 328 329 329 331 329 326 321 317 313 310 309 309 307 307 308 307 306 306 306 305 305 305 303 304 304 307 308 308 306 306 305 305 305
324 325 328 330 328 327 327 326 327 328 329 330 328 326 324 322 319 316 312 309 310 308 309 308 307 307 306 306 306 307 306 305 303 302 303 304 304 305 305 301 301 301 303
325 327 329 329 328 326 326 325 326 327 328 327 325 323 321 320 316 314 311 308 310 307 308 308 307 307 306 307 303 304 305 305 303 303 304 303 304 303 303 302 303 301 298
326 326 327 327 326 324 322 320 320 321 323 323 321 321 319 317 314 313 309 308 309 308 308 308 306 306 305 306 304 303 303 303 302 302 303 304 302 303 303 303 301 301 300
324 325 325 326 325 324 324 323 323 322 322 323 321 319 318 315 314 312 308 309 308 307 307 307 307 305 305 304 300 299 296 298 300 302 302 302 303 303 302 300 300 299 299
322 324 324 325 325 324 324 321 319 319 318 317 317 318 316 314 312 310 309 309 308 308 307 307 306 305 302 302 301 297 293 292 295 299 300 301 301 302 301 300 300 300 298
322 325 325 325 325 324 322 321 319 319 319 318 317 317 316 311 309 308 309 308 308 307 306 306 304 303 301 297 299 300 300 297 292 291 298 299 300 299 300 299 298 298 297
324 323 325 325 324 324 322 322 321 320 322 316 315 315 314 313 311 308 308 307 307 307 305 304 302 301 300 297 297 297 297 298 297 293 290 294 297 298 298 297 298 298 296
323 323 324 324 323 323 322 321 320 320 317 313 313 312 312 311 309 309 307 307 307 305 303 300 299 297 296 299 297 297 296 295 294 294 292 292 292 294 296 296 297 297 295

GFSSE_sfc_thetae_060.txt.gz
Theta_e
343 345 347 349 349 349 348 348 347 346 345 344 344 343 343 343 342 343 343 343 345 347 346 345 345 341 340 339 339 338 337 338 338 338 336 336 336 335 335 335 337 333 334
345 345 346 347 348 348 348 347 345 343 344 344 343 343 342 342 342 342 343 344 345 345 345 343 341 337 337 336 336 336 336 336 337 338 338 335 335 335 335 334 335 334 334
345 344 347 345 346 347 346 345 344 344 344 344 343 342 342 342 343 343 345 346 345 345 345 342 337 336 336 336 336 335 334 334 335 335 337 330 332 334 334 334 334 334 334
346 343 342 345 345 345 344 343 342 343 344 343 342 342 342 342 342 344 345 344 346 346 345 338 336 336 336 335 335 334 333 332 333 336 329 329 328 331 332 331 333 333 333
346 343 343 343 343 343 342 342 341 342 342 341 341 342 342 342 341 343 344 343 344 346 343 336 336 335 334 335 334 332 331 331 332 330 328 329 327 328 329 329 328 329 329
345 344 342 341 342 342 342 341 341 341 340 340 340 341 341 341 341 340 340 342 344 344 337 335 333 332 333 333 331 329 328 327 331 326 327 328 327 326 326 326 326 326 326
335 343 342 339 340 341 342 342 341 340 339 339 340 340 340 340 339 338 338 338 338 338 335 332 330 330 331 331 328 327 327 327 323 323 325 326 326 325 324 323 324 323 323
326 328 337 339 338 336 335 336 338 339 338 338 338 338 339 338 338 337 336 335 336 336 335 333 332 330 329 327 325 325 325 326 322 322 324 325 324 323 322 321 321 321 321
325 324 323 323 326 327 329 330 332 337 338 338 337 337 337 336 335 336 335 335 334 333 332 330 330 329 326 324 323 322 322 322 321 321 322 323 323 322 321 320 320 320 320
324 324 321 318 319 320 321 328 333 336 336 336 336 335 334 334 334 334 333 333 333 332 331 327 327 325 323 320 319 318 320 320 318 318 321 322 322 321 320 319 319 319 319
322 321 321 319 320 320 322 329 333 335 335 334 333 332 328 327 328 329 331 333 332 330 328 324 322 319 318 316 315 317 318 316 315 316 318 323 321 321 319 318 317 317 317
320 320 321 323 321 320 323 327 332 332 332 330 329 330 327 329 328 329 329 329 328 326 323 319 317 318 318 315 313 314 312 312 311 312 314 317 318 320 318 317 316 315 315
320 318 320 320 319 323 326 325 327 330 331 330 331 329 330 329 330 328 325 323 322 322 316 316 317 317 316 314 312 312 312 311 311 310 310 314 316 319 317 317 315 314 313
316 317 316 318 322 322 322 321 323 325 328 327 328 331 330 328 329 328 325 324 322 321 319 318 317 315 313 312 312 311 311 310 310 310 311 314 313 317 315 315 314 313 312
315 317 319 326 326 325 325 326 327 327 327 328 329 330 330 328 328 327 325 323 321 320 318 316 314 313 312 311 311 310 309 309 310 313 315 318 317 318 314 313 314 311 310
317 320 322 323 326 327 327 330 328 327 328 329 329 330 331 329 329 327 324 321 320 319 318 316 314 312 311 311 310 309 309 308 310 312 314 315 315 315 313 311 310 310 309
320 322 324 325 329 328 327 329 328 327 327 326 329 334 330 329 329 327 323 320 319 318 317 315 313 312 311 310 308 309 310 309 309 309 313 314 313 312 310 309 308 307 307
322 323 325 325 328 330 328 327 327 327 327 327 330 334 336 331 330 326 321 319 318 316 315 314 314 312 311 310 311 312 311 310 309 309 310 313 312 307 307 305 304 304 305
323 323 324 325 326 332 331 328 329 329 328 329 332 333 336 335 330 326 323 320 318 316 313 313 313 313 311 311 311 312 312 311 307 306 306 308 309 307 306 304 301 300 302
324 326 327 327 329 334 333 331 328 328 328 331 332 334 335 332 329 327 323 319 317 315 315 314 313 312 313 313 308 309 311 309 308 307 306 306 307 306 306 305 305 305 299
326 327 328 329 331 333 331 326 324 324 326 329 331 333 331 330 328 326 322 317 316 315 314 315 313 312 310 313 310 309 308 307 307 306 306 306 305 305 306 305 304 304 303
326 327 328 330 333 332 330 327 325 325 327 328 331 331 331 328 327 324 321 317 314 316 315 314 313 311 312 311 307 305 304 305 305 305 306 304 306 305 304 304 304 304 304
327 328 328 330 332 332 332 328 326 326 327 327 327 327 328 326 324 322 318 315 314 316 314 314 313 311 309 308 306 302 302 301 301 304 303 303 304 304 304 304 303 302 302
328 329 329 330 331 331 333 328 325 322 320 325 327 328 328 325 323 320 315 314 315 314 314 314 313 312 309 305 302 301 303 302 298 296 301 302 304 302 303 303 301 301 301
329 330 330 329 330 332 331 330 327 324 323 326 328 326 325 322 318 315 315 313 313 314 315 313 311 309 303 299 300 300 301 301 300 296 293 296 300 301 301 301 301 300 300
331 331 331 330 330 331 331 331 330 328 326 325 324 323 323 322 319 316 312 312 313 314 314 312 310 304 301 298 298 298 297 297 297 296 295 296 296 298 300 299 299 299 299

GFSSE_sfc_thetae_063.txt.gz
Theta_e
342 346 348 351 351 350 349 348 347 346 346 345 344 344 345 345 345 345 347 347 348 348 345 343 342 340 339 338 338 337 338 339 339 339 337 336 336 336 336 338 336 333 335
344 345 347 349 350 350 349 348 346 345 345 344 344 344 343 344 344 345 346 347 348 347 341 339 338 337 337 336 336 335 335 336 338 339 338 335 335 335 336 335 336 333 334
346 344 348 347 348 349 348 347 345 345 345 344 344 343 343 344 344 345 345 346 347 345 339 338 337 337 337 336 335 334 333 334 334 335 339 328 330 334 335 334 334 334 334
345 343 347 345 347 348 346 345 344 345 344 344 343 343 344 344 346 347 345 345 346 343 338 338 337 336 335 335 334 333 332 332 332 333 328 326 326 332 331 331 330 331 332
344 341 347 344 344 345 344 343 343 343 342 342 342 344 344 346 347 347 345 344 344 341 337 337 336 335 334 334 333 332 331 332 332 329 326 325 324 327 329 328 328 328 327
346 341 342 341 343 343 343 343 342 342 340 341 342 343 344 346 346 345 344 343 343 340 337 335 333 332 332 332 330 328 329 329 331 326 326 325 323 326 326 326 325 325 325
334 331 341 339 340 342 343 342 341 340 340 340 341 341 342 343 343 343 343 341 339 338 334 332 331 330 330 329 327 327 329 328 324 325 324 323 323 324 324 323 323 323 323
331 332 336 336 334 336 338 339 338 339 339 339 339 339 340 339 339 339 338 337 336 335 334 332 330 328 327 326 325 325 325 326 323 324 324 322 323 322 323 322 322 321 321
329 331 327 327 327 327 329 330 333 335 337 338 338 337 337 336 336 336 336 336 335 334 333 330 329 328 325 324 323 322 321 323 322 322 323 322 322 321 321 321 321 320 320
323 323 323 324 322 320 321 326 329 333 336 336 335 334 334 334 334 334 333 333 333 331 330 327 326 324 322 319 319 321 319 323 319 320 321 321 321 321 320 320 319 319 319
321 321 321 320 321 321 322 325 330 334 334 334 334 332 329 329 328 328 331 332 332 330 327 324 322 320 320 318 319 318 318 315 315 317 319 324 321 321 319 318 318 318 317
318 319 320 320 321 320 321 323 329 330 331 331 330 329 328 329 329 329 329 330 329 327 324 322 321 321 319 315 313 316 313 313 312 312 315 318 320 320 318 317 316 315 315
319 320 320 322 322 322 322 323 327 328 328 329 331 330 329 330 330 329 326 323 323 322 316 316 315 318 318 315 314 313 312 312 311 311 310 315 317 320 319 317 315 314 313
317 317 319 320 320 320 323 326 327 328 329 328 328 334 332 329 331 328 325 324 323 322 320 321 319 318 316 314 313 313 312 311 310 310 313 314 314 319 317 318 315 313 312
316 317 318 319 321 323 322 321 322 324 326 329 328 332 332 331 331 328 328 325 324 323 322 321 318 316 314 313 312 311 310 310 311 314 314 319 318 319 315 314 315 311 311
315 315 319 321 322 321 320 324 325 326 326 328 328 331 334 332 332 327 327 325 324 323 322 320 318 316 314 313 311 310 310 310 311 313 315 314 316 317 314 311 311 310 310
317 319 320 321 325 325 326 328 327 326 325 326 327 331 331 332 332 330 326 324 323 324 323 320 317 316 314 312 311 310 310 310 309 310 312 314 313 314 313 310 308 307 307
321 320 320 321 325 327 328 328 326 325 326 328 328 330 332 330 330 330 327 325 326 322 320 319 317 315 314 312 311 311 312 310 309 309 311 312 313 308 311 308 304 303 304
321 323 323 325 326 326 327 327 328 332 327 325 328 330 333 330 331 329 326 325 324 321 320 318 318 317 313 312 311 312 313 312 309 308 308 308 309 306 306 306 304 303 302
324 325 324 324 326 327 329 328 326 326 325 326 327 329 333 334 332 330 327 326 322 320 318 318 318 316 314 313 310 310 313 312 311 309 308 308 308 307 307 307 306 305 303
325 324 324 324 326 328 327 324 322 322 324 325 328 331 333 333 332 331 329 326 322 320 319 320 318 315 313 314 311 312 311 311 309 309 309 308 307 307 307 306 306 305 305
323 324 325 324 325 328 328 327 324 323 323 325 327 331 333 332 331 329 329 325 322 320 320 319 318 314 314 314 310 309 306 307 308 308 308 308 308 307 306 305 305 305 304
324 325 326 327 328 329 329 328 324 324 324 324 325 327 332 332 330 329 329 324 322 320 318 319 317 315 311 312 310 307 304 300 304 308 308 307 307 306 305 305 305 304 303
326 327 327 328 329 330 331 328 325 320 318 322 324 327 328 329 328 327 326 324 321 319 318 316 317 317 315 310 309 305 303 302 299 299 305 304 305 304 305 305 304 303 302
329 329 330 328 328 330 330 330 327 324 323 324 325 327 328 329 328 326 324 320 319 318 318 316 317 315 314 311 303 300 303 303 305 299 297 300 302 303 304 303 303 302 301
329 331 331 329 329 330 331 331 331 328 327 323 324 327 327 327 325 324 321 319 319 316 315 314 317 315 308 304 300 301 299 299 298 297 297 298 298 300 302 302 301 301 300

GFSSE_sfc_thetae_066.txt.gz
Theta_e
341 346 349 350 350 350 349 348 347 346 346 346 346 346 346 346 346 347 348 348 348 347 343 341 340 338 338 338 338 337 340 340 339 339 337 336 336 337 337 338 336 330 335
335 347 348 349 349 349 349 348 346 346 346 346 346 345 345 345 347 348 348 347 345 344 341 339 338 337 337 335 335 336 337 339 338 338 337 334 335 337 337 334 335 330 336
328 344 349 348 349 349 349 347 346 346 346 346 345 345 345 346 347 348 347 344 343 342 339 338 337 337 335 334 334 335 335 335 335 336 334 325 327 332 333 332 332 332 333
328 343 347 345 347 348 347 346 345 346 345 345 344 345 345 346 346 347 346 342 341 341 339 338 337 335 333 333 333 334 335 335 335 333 322 322 323 331 331 330 330 330 331
342 343 347 345 345 346 345 344 344 344 343 343 343 345 345 346 347 346 344 340 341 341 338 336 335 333 332 333 333 332 332 332 332 324 319 318 320 326 328 327 327 328 327
342 344 341 343 344 345 344 344 343 342 341 342 343 345 347 347 346 345 342 340 341 339 336 334 332 331 331 331 330 330 330 330 331 320 318 320 319 326 326 325 325 324 325
335 338 334 332 341 343 344 343 342 341 341 342 343 345 345 346 345 344 340 339 339 337 333 332 330 329 329 329 328 328 328 327 320 318 317 316 318 324 325 324 323 323 323
330 329 328 331 330 339 341 340 339 340 340 340 341 342 344 344 342 341 338 337 336 335 333 330 329 327 326 326 325 324 324 326 323 318 317 316 321 323 323 323 322 322 322
331 328 324 323 325 328 330 333 334 337 338 338 338 338 338 337 337 337 336 336 335 333 331 329 327 327 324 323 322 321 322 324 318 319 318 316 322 322 322 322 321 321 320
330 329 324 322 322 321 324 329 331 335 335 336 336 335 334 334 335 335 334 334 334 332 329 327 326 324 322 320 318 318 321 322 315 317 317 317 321 321 321 321 320 319 319
320 323 324 321 319 319 320 323 327 335 334 334 333 332 329 328 328 328 331 332 332 330 328 325 323 322 319 318 320 319 319 308 311 316 317 324 321 321 320 319 318 317 317
317 319 320 320 320 321 323 319 322 329 330 329 329 327 326 324 327 328 330 330 329 328 326 325 323 321 318 308 309 316 308 309 309 314 314 324 321 321 319 318 317 316 315
317 318 319 320 321 321 321 319 325 326 328 328 328 327 327 327 326 325 323 322 321 321 314 316 316 313 314 311 310 309 309 307 307 306 314 320 323 321 319 317 316 314 313
317 318 319 320 321 320 321 323 325 325 325 324 329 328 327 326 325 323 321 321 319 317 313 315 316 314 311 311 310 308 308 306 306 307 313 316 320 320 319 317 315 313 312
316 317 318 320 320 321 321 323 324 324 324 326 328 329 327 326 325 324 323 321 319 321 318 318 314 312 311 309 308 307 307 306 307 310 312 319 318 320 317 318 314 312 312
316 316 318 319 322 320 321 322 323 324 327 327 328 330 331 327 327 324 325 322 321 321 320 318 314 312 310 309 307 307 306 307 306 310 310 312 318 319 317 313 312 311 310
315 317 317 319 321 320 319 319 320 320 325 326 327 330 331 330 329 327 324 323 321 321 320 318 314 313 309 310 307 307 306 305 305 305 310 310 311 315 316 314 311 308 306
316 318 319 320 319 320 321 318 323 323 324 325 327 328 329 329 329 327 325 323 322 321 318 315 313 311 310 308 306 306 306 305 305 304 305 309 309 309 313 313 309 305 304
318 318 316 319 320 323 324 324 325 325 325 325 326 328 328 328 328 326 325 323 321 320 317 316 314 313 309 307 307 307 307 306 304 306 304 304 303 302 305 311 309 307 304
319 316 316 318 321 324 325 327 325 325 324 324 324 326 328 326 328 327 324 323 320 318 317 314 314 313 311 308 309 307 308 307 306 305 303 305 304 303 302 302 302 302 307
320 320 320 320 324 325 322 322 321 322 322 322 323 325 330 330 330 328 324 324 320 317 315 315 315 312 309 309 306 306 307 307 305 304 304 304 304 304 302 301 300 300 300
320 322 322 323 325 324 324 323 322 322 322 322 324 325 329 330 330 329 327 324 320 318 317 316 314 310 311 310 305 304 299 302 303 305 305 304 302 303 303 303 301 301 300
321 322 322 322 323 324 325 324 323 322 321 321 322 324 329 330 329 328 327 325 320 319 317 317 315 313 309 310 307 303 298 297 298 305 304 303 302 301 301 301 301 302 299
321 323 323 323 322 324 327 324 322 318 316 319 320 323 328 330 328 328 326 325 321 318 316 315 315 312 311 307 306 304 299 299 296 296 301 302 301 301 299 300 300 300 299
323 323 324 325 324 325 326 326 324 320 320 320 322 322 326 326 326 326 325 323 317 316 315 316 313 312 311 308 305 298 299 300 301 296 294 296 299 299 299 301 299 298 298
325 325 325 325 325 326 327 327 326 323 321 319 320 321 325 325 325 325 323 318 317 315 314 315 313 311 308 302 300 299 298 298 297 296 292 293 294 295 298 298 297 296 296

GFSSE_sfc_thetae_069.txt.gz
Theta_e
341 348 348 350 350 350 348 347 346 346 346 347 347 346 347 347 349 348 348 346 345 344 341 339 339 338 339 339 339 340 341 339 338 339 338 337 336 336 336 335 335 332 337
329 343 343 349 350 350 348 347 346 346 347 347 346 346 346 348 348 348 346 345 344 341 339 338 336 336 337 338 338 340 339 338 336 336 333 333 333 335 334 333 335 332 335
330 332 337 341 349 349 348 347 347 347 347 347 346 346 348 348 348 346 344 343 342 341 338 337 334 334 335 335 337 336 335 336 334 332 330 324 325 332 332 332 331 332 332
332 331 331 334 342 348 347 346 346 347 347 346 346 347 348 348 346 344 342 341 342 340 337 335 333 334 334 333 334 334 334 331 329 327 320 321 324 330 330 329 329 329 331
329 330 330 336 344 347 346 345 345 345 344 344 345 347 348 347 345 343 341 340 340 338 336 334 332 331 331 332 332 331 332 330 327 321 316 317 320 326 328 327 327 328 330
339 338 339 341 344 346 346 345 344 343 342 342 344 346 348 347 343 342 340 340 340 337 334 332 330 328 330 330 330 329 330 327 323 315 314 320 319 326 326 325 325 326 326
333 332 333 333 338 334 345 345 343 342 342 342 343 344 345 345 342 341 340 338 337 335 332 330 328 327 328 328 328 328 329 325 316 314 313 314 319 325 325 324 324 325 324
329 329 331 334 332 330 329 342 341 341 341 343 343 344 344 342 340 339 338 337 336 334 332 329 327 326 326 326 326 326 327 324 318 315 314 314 323 324 324 323 322 323 322
326 325 327 328 328 329 327 334 335 337 340 341 342 342 341 338 338 337 336 336 335 333 330 327 326 326 325 324 323 323 324 324 315 315 316 314 323 323 323 322 322 321 321
326 323 322 324 324 324 325 328 328 330 334 337 337 337 335 335 335 335 334 334 333 331 328 326 326 324 321 320 320 320 322 322 314 314 314 317 322 322 322 321 320 320 320
323 322 320 320 322 322 322 325 327 330 334 332 333 333 331 330 329 329 332 332 332 330 328 325 324 321 319 317 317 318 316 314 314 315 315 323 322 321 321 319 319 318 318
318 319 319 318 319 320 322 322 324 329 329 327 326 323 325 325 326 328 329 330 330 329 328 325 322 320 314 305 307 312 304 311 314 314 316 324 321 321 319 318 317 317 316
318 319 320 320 321 319 318 320 323 326 327 326 324 322 325 325 324 323 322 321 320 322 316 316 313 310 310 306 305 304 304 305 305 309 319 324 322 321 319 318 316 315 315
316 317 319 320 321 318 318 320 324 325 325 325 323 325 323 321 319 319 318 317 314 312 308 310 311 308 306 307 306 305 303 302 302 305 314 321 323 321 319 318 316 314 312
316 317 319 320 319 321 322 324 324 325 323 324 324 325 322 321 317 318 318 316 315 313 310 313 309 309 306 305 305 304 303 303 306 307 307 318 321 321 320 318 316 314 313
316 317 319 320 320 322 321 321 323 324 323 325 324 325 324 321 319 318 317 316 315 316 316 312 310 308 306 305 304 304 303 304 307 308 310 313 318 321 318 316 315 312 311
316 318 318 320 319 319 318 321 322 322 324 323 325 326 323 323 319 320 319 317 317 317 316 312 311 308 307 306 304 304 303 303 303 307 309 309 313 317 318 315 314 311 308
316 316 319 321 318 319 319 320 320 320 322 322 323 324 324 325 324 321 319 319 318 318 315 312 310 308 306 305 303 302 302 303 302 302 307 308 307 309 315 316 312 308 305
316 318 318 320 318 319 319 319 319 319 319 321 321 322 324 325 324 322 320 320 318 316 313 312 310 308 306 304 303 303 302 301 301 304 303 306 306 305 305 314 312 309 306
316 317 317 319 318 318 319 315 318 316 318 319 320 323 323 323 324 323 321 318 316 315 313 312 310 311 307 304 307 305 303 303 301 300 300 302 300 302 303 303 303 303 309
315 314 314 315 316 317 315 314 318 315 315 316 318 323 323 322 324 321 320 318 315 314 313 311 310 309 307 306 303 303 303 303 302 301 300 300 301 300 300 300 298 298 303
311 312 313 314 315 318 319 319 316 317 316 316 317 319 324 323 324 323 320 319 315 314 313 310 310 308 308 307 302 302 298 300 301 302 301 302 301 301 301 300 299 298 297
310 311 312 314 317 320 319 318 316 316 316 316 315 318 324 326 326 325 323 321 317 316 314 311 310 309 308 309 305 304 298 295 296 300 301 303 302 299 299 299 299 299 298
314 315 316 317 319 320 319 318 316 316 315 316 316 317 324 326 326 326 325 323 319 317 315 313 315 314 310 307 305 303 300 299 294 293 298 301 302 299 298 297 298 299 297
316 318 318 319 319 320 320 319 317 315 315 315 315 317 323 325 325 325 324 321 318 317 315 315 314 312 311 309 304 300 300 299 299 295 292 296 299 297 297 297 297 297 297
318 318 318 318 318 319 320 320 321 318 314 313 315 316 321 324 324 323 324 322 318 315 314 312 312 312 308 305 302 301 300 298 298 296 294 293 292 295 296 296 297 295 295

GFSSE_sfc_thetae_072.txt.gz
Theta_e
344 346 348 350 349 349 348 347 347 346 347 348 348 348 348 348 347 346 345 344 344 343 340 340 343 341 339 339 338 338 338 339 338 338 336 335 336 335 336 336 336 331 335
343 346 347 349 349 348 347 347 346 346 346 348 347 348 347 347 346 345 344 343 342 341 338 339 340 340 339 338 339 338 335 336 335 334 333 333 333 333 334 334 335 333 336
335 343 347 347 348 347 346 347 347 347 347 347 347 348 347 347 345 344 343 342 341 339 336 339 338 338 337 334 334 335 333 332 332 331 330 324 325 332 332 331 333 335 335
334 332 339 337 340 340 345 345 346 347 346 347 348 348 347 346 344 343 342 340 340 339 336 337 337 336 332 332 335 334 331 328 327 326 320 321 323 330 330 329 332 332 333
331 331 332 337 335 342 344 344 346 345 344 346 347 347 346 345 343 343 341 339 339 337 334 336 335 332 330 332 332 332 330 327 326 320 315 317 320 325 328 329 328 329 326
336 332 331 335 336 338 342 344 345 344 344 345 346 345 345 344 343 341 339 338 338 336 333 333 331 329 330 332 331 330 328 325 321 313 314 321 318 326 326 327 326 325 325
332 332 337 333 333 332 333 333 344 343 343 345 345 343 343 343 342 340 338 337 336 334 330 328 328 329 329 331 329 327 325 323 314 312 312 314 319 325 326 326 324 323 323
327 330 333 333 334 331 329 332 341 341 342 343 343 341 342 341 340 339 337 336 335 333 330 327 328 328 328 329 329 326 324 322 316 312 313 315 323 324 325 324 323 322 322
325 327 328 329 330 329 328 331 336 336 340 342 341 339 339 338 337 337 336 335 333 331 329 327 326 326 326 325 327 325 323 321 313 314 315 314 324 324 324 323 322 321 320
322 323 324 324 324 324 324 327 328 329 333 338 338 337 336 335 335 334 334 333 332 330 328 326 324 324 324 323 326 324 323 320 311 312 312 317 323 323 323 322 321 320 319
320 320 323 323 323 323 323 325 325 327 331 335 335 334 331 331 329 328 331 331 331 329 327 325 324 321 318 321 324 323 320 313 312 312 313 323 322 322 321 320 319 319 318
317 318 321 321 321 322 322 321 321 325 327 328 327 326 327 326 327 328 329 330 329 328 325 323 323 320 313 305 307 315 311 312 312 313 315 324 321 321 319 319 318 317 317
317 318 318 320 321 319 319 319 322 325 326 324 324 325 325 326 325 324 323 322 321 321 315 313 309 308 305 303 303 304 308 310 310 313 320 323 322 321 319 317 317 316 315
317 317 319 320 319 319 318 319 322 324 325 324 324 324 323 320 318 317 316 314 312 311 309 308 309 305 304 304 303 303 304 305 306 310 319 323 322 321 320 318 316 314 313
316 317 319 319 317 318 319 319 321 324 323 323 324 322 321 317 316 315 313 311 311 308 310 310 307 305 304 303 303 303 302 302 304 307 310 323 323 321 320 318 317 315 312
317 318 319 319 319 319 320 323 324 323 323 323 324 323 320 317 316 314 312 312 312 309 312 309 308 306 304 304 303 303 303 304 304 306 308 313 321 323 321 319 317 313 312
317 319 318 319 321 321 322 323 323 322 324 323 324 323 321 318 316 316 313 313 313 312 313 309 307 306 304 304 302 302 303 305 305 307 308 309 314 319 319 318 315 313 311
317 318 319 321 320 319 320 322 322 321 323 324 324 323 322 319 318 317 315 314 315 314 313 310 308 306 304 303 301 301 300 301 304 305 307 308 309 310 316 318 315 312 307
317 318 319 318 317 317 317 317 319 319 321 322 323 322 321 321 321 319 317 316 316 314 312 311 308 306 304 302 302 300 300 300 300 304 306 306 306 307 307 315 315 312 308
316 318 319 317 317 318 318 317 318 317 319 320 320 321 322 322 321 319 317 317 315 313 310 309 308 308 306 304 305 303 300 300 299 299 303 306 305 305 305 305 306 304 310
316 317 318 317 317 318 315 314 315 314 314 315 318 320 321 321 321 319 318 316 314 312 311 310 308 307 307 303 302 301 301 301 299 299 298 300 300 300 302 302 300 298 303
313 314 314 316 315 316 315 313 316 314 313 317 316 319 321 320 321 319 318 316 313 312 311 310 308 307 307 305 301 303 300 301 300 300 298 299 298 299 300 300 298 297 298
312 312 312 315 314 315 316 313 314 314 313 313 313 315 320 321 321 321 319 317 315 313 311 309 308 307 305 306 306 304 299 298 298 301 301 300 300 298 299 299 298 298 297
311 312 312 313 312 315 317 314 314 313 313 314 314 314 318 322 321 322 321 318 316 314 312 311 311 309 309 308 307 303 301 301 297 296 299 300 301 301 300 298 298 298 298
310 310 310 312 313 315 318 316 316 314 316 314 313 313 316 321 323 323 322 320 317 316 315 314 312 310 311 308 305 300 300 300 301 297 296 298 300 299 300 299 296 296 296
309 310 310 311 313 316 318 317 316 315 312 312 314 313 315 320 322 323 323 323 321 316 314 314 312 312 310 308 304 302 301 300 299 298 296 296 295 296 297 297 295 296 296

GFSSE_sfc_thetae_078.txt.gz
Theta_e
338 344 348 349 349 348 348 347 349 349 349 350 349 348 348 349 348 348 347 347 346 346 342 340 341 340 339 339 337 338 338 337 338 338 337 337 336 335 334 334 336 333 337
338 346 346 348 348 348 348 347 348 349 350 349 348 348 348 348 347 346 345 345 345 344 341 340 339 338 338 338 337 335 336 336 336 337 336 335 338 338 337 336 335 332 334
342 345 344 344 346 347 346 346 347 349 349 349 348 348 348 347 346 344 344 344 344 343 340 339 338 337 337 336 335 334 333 332 333 332 330 326 331 337 337 335 333 332 332
337 339 339 342 342 343 342 343 344 348 348 348 348 347 347 346 344 344 343 342 343 343 339 338 339 336 335 334 333 332 331 329 328 326 320 322 329 333 333 331 330 330 328
333 335 336 338 336 337 337 336 341 345 346 346 346 347 346 345 344 343 342 341 342 343 341 340 339 336 333 332 332 329 329 327 326 320 317 319 325 327 329 327 326 326 326
332 333 335 336 337 337 337 335 334 340 343 344 345 345 345 344 343 342 341 341 341 340 337 337 338 333 332 330 330 328 326 325 321 315 317 324 321 328 327 326 325 324 324
331 331 334 333 333 334 337 335 336 336 340 342 343 343 343 342 341 340 339 339 338 336 334 336 333 331 330 329 327 326 325 323 314 313 314 317 321 327 327 325 324 323 323
329 331 332 335 336 335 338 339 338 337 339 341 341 342 342 340 338 338 339 337 334 334 335 336 333 330 328 327 326 326 325 322 316 314 315 319 324 326 326 324 322 322 322
327 330 329 332 331 332 332 334 336 337 338 339 339 340 339 337 336 336 336 334 332 334 336 333 331 329 328 327 326 325 323 321 313 315 317 319 325 325 324 323 322 321 320
324 325 328 329 325 324 328 333 333 335 335 336 337 337 336 335 334 333 332 331 331 333 334 332 330 328 327 326 325 324 323 320 312 314 315 320 325 325 324 323 322 320 320
322 323 324 324 324 323 324 331 333 336 334 334 334 334 331 330 328 325 327 328 328 328 331 332 329 327 326 325 324 323 318 312 313 314 316 325 325 325 323 322 321 320 319
318 320 322 322 322 324 323 328 332 331 331 330 330 329 328 326 324 325 325 327 327 326 328 330 329 326 322 318 318 317 312 312 313 314 317 324 323 324 323 321 319 318 317
318 320 321 321 322 321 320 325 327 326 328 327 326 326 324 324 324 323 320 318 317 318 317 321 321 313 314 313 311 311 311 312 312 314 320 324 323 322 322 321 318 317 316
317 318 320 321 320 319 321 323 325 325 325 323 325 324 323 322 320 318 315 311 306 306 306 305 306 307 309 309 310 310 310 310 311 314 320 323 322 322 321 320 318 316 315
316 317 319 319 318 318 317 321 324 325 324 324 324 323 321 319 317 314 311 308 306 307 305 303 303 306 307 308 308 309 309 310 312 314 316 322 322 321 320 319 317 316 315
317 317 318 317 317 318 318 321 322 324 324 324 322 320 320 318 315 312 309 307 307 308 305 304 303 303 304 304 305 307 307 309 311 312 314 318 321 322 321 319 318 317 315
317 319 317 316 317 317 319 320 322 323 324 324 321 318 318 316 314 311 309 307 308 309 306 304 303 303 301 301 302 303 304 306 308 310 313 314 318 321 322 321 318 317 315
318 318 318 319 317 318 318 319 322 322 322 323 320 318 316 315 313 311 309 308 309 310 307 305 304 302 302 300 300 301 303 303 303 306 309 311 313 315 319 321 320 316 314
318 318 318 318 317 319 319 321 322 322 321 321 320 318 316 316 314 311 310 310 310 310 307 306 305 303 302 301 300 300 301 303 303 304 304 308 310 311 311 318 318 317 314
318 319 319 318 318 320 320 320 320 320 321 321 320 318 316 315 315 312 311 311 311 310 308 307 306 306 303 302 302 300 299 299 300 302 303 305 307 309 309 310 312 311 314
317 318 319 317 318 318 318 317 317 317 319 320 320 319 316 316 316 314 313 311 312 311 309 308 307 306 304 302 301 300 300 300 299 298 299 303 304 307 307 307 308 306 307
316 317 317 317 317 317 317 319 318 316 317 320 320 319 319 316 315 315 313 312 313 311 310 308 307 304 304 302 300 299 297 300 301 301 299 300 302 305 305 305 305 304 302
314 316 317 316 317 317 318 317 315 315 316 315 314 316 317 318 316 316 315 314 313 311 310 307 306 306 304 303 303 302 298 297 299 302 302 300 300 301 303 303 304 303 302
313 315 317 316 316 317 317 316 313 314 314 315 313 315 316 317 318 318 317 315 314 312 309 309 308 306 306 303 304 304 303 304 300 299 300 302 301 300 300 300 301 301 301
313 313 313 314 314 316 315 315 313 311 312 313 313 313 313 316 317 318 317 315 313 312 311 309 308 306 307 306 303 300 300 301 302 300 300 299 301 302 302 302 301 300 300
311 311 310 312 313 315 314 311 311 309 310 309 310 312 312 312 315 316 317 316 315 314 312 311 310 308 307 306 304 303 303 302 301 300 299 300 300 301 300 300 300 300 300

GFSSE_sfc_thetae_081.txt.gz
Theta_e
340 346 348 350 350 349 349 350 349 348 349 350 350 349 348 349 349 349 348 348 347 347 344 342 344 342 340 338 338 340 340 341 340 339 339 337 337 337 339 338 338 333 337
342 348 347 349 349 349 349 350 349 349 350 350 349 348 348 348 349 348 348 346 346 344 342 341 341 341 339 336 339 338 338 339 338 338 340 338 338 337 337 336 336 331 334
344 349 349 346 348 348 348 350 350 350 350 350 348 348 348 348 348 347 346 345 344 343 340 340 339 339 337 337 336 335 334 335 335 336 339 334 334 336 334 333 332 331 332
336 345 348 345 346 347 347 348 349 350 350 349 349 349 348 347 346 346 344 343 343 343 339 339 338 338 336 335 334 333 332 331 330 333 333 331 331 333 332 331 329 331 330
336 338 343 342 343 344 343 342 344 347 344 346 348 348 347 346 346 345 343 342 342 342 338 337 337 335 334 334 333 332 331 329 330 330 330 328 327 328 329 328 327 327 327
337 337 337 338 341 343 342 341 340 340 342 343 346 346 346 346 345 344 342 341 342 342 341 336 336 333 333 332 331 330 328 327 329 327 327 326 326 328 328 326 326 326 325
335 334 336 336 338 338 338 340 339 338 339 341 344 344 344 344 344 342 341 341 341 341 340 337 333 331 331 330 328 327 326 327 325 325 325 325 326 327 327 326 324 324 324
333 333 334 334 334 335 339 337 336 338 338 340 341 342 342 342 341 341 340 338 338 338 338 335 331 329 329 328 327 326 325 325 325 324 324 325 326 327 326 325 323 323 322
330 332 335 335 336 337 336 336 334 336 337 337 339 339 339 338 338 339 337 335 336 337 336 333 331 330 329 327 326 325 324 325 324 324 323 324 326 325 325 324 323 323 322
326 331 331 331 329 330 334 332 335 335 334 336 337 337 336 336 337 335 333 335 336 336 334 332 330 329 328 327 326 325 324 324 324 324 324 324 325 326 325 323 323 322 321
324 325 329 327 326 327 331 333 334 336 335 335 336 335 332 335 334 331 330 334 336 334 332 330 329 328 326 326 325 324 323 322 323 323 323 326 326 326 325 323 321 321 320
321 322 323 326 325 326 328 333 336 333 333 333 335 331 330 330 329 327 329 332 334 332 330 329 328 326 324 322 323 321 321 322 322 322 324 326 325 325 323 322 321 320 319
321 321 322 323 325 325 328 330 332 333 332 331 329 328 327 326 327 326 324 326 330 331 328 327 325 322 322 321 320 320 321 322 322 322 323 325 325 324 322 321 319 318 317
319 320 321 322 321 322 325 327 327 331 328 327 327 326 326 325 323 323 318 319 322 326 328 326 322 322 321 319 319 320 321 321 321 322 323 324 324 323 323 321 319 317 316
319 319 320 320 320 322 322 324 326 326 326 325 325 327 325 320 318 317 315 314 314 317 321 320 319 319 319 318 319 319 320 321 322 321 321 323 323 323 322 320 318 317 315
318 319 319 318 319 321 322 324 324 323 324 324 324 325 323 319 315 313 312 312 313 315 315 315 317 318 318 318 317 318 319 319 321 321 321 321 322 323 322 319 318 317 316
319 319 317 318 319 321 321 323 324 323 324 323 322 322 323 318 315 313 312 312 313 312 312 313 314 317 316 316 316 317 318 319 320 320 321 321 321 321 322 322 319 318 317
319 318 318 318 318 321 320 322 323 324 324 323 322 322 321 319 315 315 313 315 315 313 312 310 311 313 313 313 313 313 314 317 319 319 320 320 321 320 320 322 322 319 316
320 319 317 318 318 320 320 323 323 322 323 321 322 320 320 318 318 315 315 316 317 313 313 311 310 310 309 309 309 309 310 312 314 316 318 320 321 321 320 320 321 319 318
319 320 318 317 319 320 321 322 322 322 321 322 322 320 320 318 317 316 315 314 314 313 314 313 312 311 310 309 306 307 309 310 311 310 312 316 319 320 320 320 320 316 316
319 319 318 317 318 319 318 319 319 318 320 320 321 320 321 320 318 317 317 316 316 316 316 316 314 312 309 310 308 308 308 309 309 310 312 311 311 316 317 317 318 317 314
317 319 319 318 318 319 319 319 320 319 320 320 321 320 320 321 319 318 318 317 317 317 318 315 314 312 313 312 310 310 308 309 309 309 309 309 308 308 309 310 314 312 311
316 318 318 318 318 318 320 319 318 318 318 318 318 318 321 321 320 320 320 319 319 319 318 317 316 316 313 312 313 314 308 308 310 311 310 308 308 306 308 310 308 309 308
316 319 319 319 318 319 319 318 317 316 315 317 317 318 320 322 321 320 320 320 320 320 319 319 318 317 316 313 311 312 314 313 310 309 307 311 310 308 309 308 308 308 307
316 317 318 319 319 319 319 318 317 317 318 319 319 320 322 323 322 320 321 322 322 321 321 320 319 317 318 317 315 313 311 312 311 310 308 306 308 308 310 306 305 303 304
315 315 317 317 319 320 319 320 318 319 319 317 317 320 321 322 323 324 323 322 323 323 322 321 321 320 318 318 317 314 314 311 308 308 305 306 310 312 311 308 307 303 303

GFSSE_sfc_thetae_084.txt.gz
Theta_e
344 348 349 350 350 350 352 351 349 349 350 351 351 350 348 349 349 349 349 348 347 348 345 344 345 343 342 341 340 341 342 341 340 342 341 342 341 341 339 341 340 337 339
345 347 347 349 350 350 352 350 349 349 350 351 350 348 348 348 349 349 348 347 347 347 344 343 342 341 340 340 339 342 341 339 339 339 340 340 339 338 336 336 337 334 336
344 348 350 347 349 350 351 351 350 350 351 351 349 348 349 349 349 349 347 347 346 346 342 342 341 338 338 337 338 339 339 339 339 339 339 333 332 335 334 333 333 334 334
342 348 349 347 348 349 349 349 349 351 351 350 348 349 349 349 349 348 346 344 344 344 341 342 341 338 337 336 335 335 334 334 337 337 331 330 330 332 332 332 332 332 331
340 343 349 345 346 348 349 348 346 345 348 347 347 349 349 349 348 346 344 342 342 343 341 341 340 337 335 335 335 334 333 333 334 334 331 330 329 329 330 329 329 329 331
340 341 344 342 344 346 346 345 342 342 343 343 344 345 348 347 347 345 342 342 342 342 340 337 337 335 334 334 333 331 332 332 333 329 330 329 328 329 329 328 327 327 327
338 339 344 339 342 344 342 340 341 343 341 341 341 342 345 346 345 343 341 340 340 340 339 335 334 332 332 332 330 329 330 330 328 327 326 327 328 329 328 327 326 326 325
338 338 338 338 338 340 340 340 338 339 340 340 339 341 343 343 343 341 340 340 340 339 337 334 333 331 330 329 328 327 328 328 327 326 327 326 328 328 327 326 325 324 324
336 338 337 339 339 334 337 336 336 338 339 339 338 339 340 340 340 340 340 340 339 337 335 333 331 330 329 328 327 327 326 329 326 326 325 326 326 327 326 325 324 323 323
331 334 335 336 339 338 338 335 334 336 336 337 337 337 337 337 338 337 337 338 337 336 333 332 330 329 328 327 326 325 325 327 326 325 325 325 326 326 326 325 324 323 322
328 330 333 333 335 333 336 335 335 335 336 335 335 336 334 335 337 335 335 336 335 334 332 331 330 328 327 326 326 325 325 325 326 325 324 327 326 326 325 324 323 322 321
328 326 329 328 329 333 335 334 333 337 334 334 333 335 332 333 333 334 334 334 334 331 330 330 329 327 324 323 324 323 324 325 325 325 325 327 326 326 325 323 322 321 320
326 324 325 325 327 327 328 333 335 342 337 334 331 332 333 331 331 334 335 335 332 329 327 327 325 324 323 322 322 323 324 325 325 324 325 326 325 325 324 322 321 320 319
325 324 325 324 324 325 330 331 334 336 336 336 328 329 328 326 325 330 332 331 330 328 326 326 324 326 324 323 322 323 323 323 324 324 325 325 325 324 323 322 320 319 318
323 324 325 324 322 323 325 332 332 334 331 329 326 327 325 323 321 324 329 330 329 329 327 326 326 324 323 321 322 323 322 323 324 323 324 324 324 324 322 321 319 318 316
325 323 323 323 323 326 326 326 326 328 327 325 324 324 324 323 320 320 323 323 328 330 328 326 325 322 320 320 320 321 322 322 323 324 323 323 323 324 323 320 319 318 316
325 323 323 322 322 324 327 325 324 325 324 323 322 321 321 322 322 321 318 318 320 323 325 324 324 321 320 319 319 320 321 322 322 323 323 323 322 321 322 322 319 318 317
323 321 322 321 321 324 323 324 323 323 322 322 321 320 321 321 320 319 317 316 318 319 319 320 319 319 319 318 318 318 319 321 322 322 323 323 322 321 320 323 322 319 318
322 322 321 321 321 323 323 323 323 323 322 322 321 321 321 319 318 317 317 317 317 315 316 317 318 318 315 316 316 317 318 319 321 320 321 322 323 323 322 321 322 321 321
323 322 321 320 319 323 323 323 323 322 322 322 322 319 318 317 318 319 319 319 318 315 316 315 316 316 315 314 311 312 315 317 318 319 319 320 322 323 323 323 321 318 318
322 320 319 317 321 323 320 319 320 318 320 320 320 320 320 318 318 319 319 320 319 317 319 320 318 316 314 315 312 312 312 315 315 315 316 318 319 320 322 322 320 321 317
322 321 318 317 318 320 322 322 321 320 320 320 320 320 320 319 317 319 321 320 319 319 320 320 320 317 317 316 313 315 312 312 314 314 316 316 317 316 317 318 316 315 315
322 320 319 318 318 320 321 321 320 320 321 319 320 319 320 322 320 319 321 322 321 324 322 322 321 320 317 318 318 317 314 313 316 317 316 315 316 314 315 315 317 318 318
322 321 321 320 319 320 321 319 318 315 314 318 320 320 320 323 322 321 322 323 324 323 323 324 323 322 321 318 318 317 321 321 315 313 317 316 315 310 312 313 313 317 317
321 320 321 321 320 319 320 320 318 316 317 321 318 317 317 323 324 323 324 324 324 323 324 325 324 323 322 321 321 320 318 318 319 316 313 314 316 316 313 312 316 316 316
321 319 321 320 319 319 320 320 320 318 317 317 316 315 315 321 323 326 324 325 325 324 325 326 326 325 324 324 323 322 320 318 317 316 314 314 314 318 315 314 316 316 315

GFSSE_sfc_thetae_087.txt.gz
Theta_e
345 350 349 350 351 353 352 351 350 350 350 351 351 349 349 350 350 349 348 348 348 348 345 344 345 345 344 343 342 344 344 343 343 343 343 342 342 341 341 343 341 338 341
349 351 347 350 350 352 353 351 350 350 351 352 350 349 349 350 349 349 349 348 348 348 345 344 344 343 342 341 342 342 342 341 341 342 342 339 339 339 338 338 339 336 338
348 349 350 347 349 351 353 351 350 351 351 351 350 349 349 350 349 348 348 347 347 347 344 343 342 341 341 341 341 341 340 340 340 340 340 333 334 337 337 336 336 335 336
347 351 350 347 348 350 351 349 349 351 351 351 349 349 350 350 349 348 347 345 346 346 343 341 340 340 339 338 338 340 340 340 338 337 331 330 331 334 334 333 333 334 333
345 348 350 346 347 349 349 348 347 348 347 348 348 349 350 349 349 348 346 344 345 345 342 341 339 338 336 336 336 338 337 338 337 332 330 330 330 331 332 331 331 331 333
342 347 346 343 346 348 346 346 345 343 343 343 346 347 348 347 347 344 343 343 343 344 342 340 338 336 335 335 335 334 334 334 334 329 328 330 328 331 331 330 329 329 330
341 345 348 342 343 347 348 344 340 339 339 335 333 341 344 344 345 343 342 342 342 342 341 338 336 334 334 333 333 332 331 330 328 327 327 326 327 329 330 329 328 327 327
339 342 345 341 339 340 343 341 338 339 335 334 335 340 341 342 341 341 341 340 340 338 338 336 335 333 332 331 330 329 328 329 327 326 326 326 328 328 328 327 326 325 325
339 341 344 345 340 334 338 338 337 337 337 338 336 337 337 339 338 339 340 339 338 337 336 334 333 332 331 330 329 327 326 329 326 326 325 325 328 327 327 326 326 325 324
336 339 340 343 343 340 341 334 334 335 334 335 336 335 334 336 337 338 338 338 337 336 334 332 331 331 330 328 327 326 326 327 326 325 324 325 327 327 327 326 325 324 324
333 335 338 339 339 339 340 339 335 334 335 334 334 332 326 335 336 338 336 335 335 333 332 331 330 328 327 327 326 325 327 325 325 324 324 327 327 327 326 325 324 323 323
330 333 335 336 337 338 336 338 338 338 337 337 334 334 333 333 335 337 336 333 333 331 331 330 328 327 324 323 323 324 326 326 325 324 324 327 326 326 325 324 323 322 322
330 331 332 330 330 336 337 336 335 337 336 335 334 333 331 332 332 337 335 333 331 329 326 325 323 321 322 321 323 325 325 326 325 324 324 327 326 325 324 323 322 321 320
328 327 329 328 326 327 328 331 336 338 337 333 331 330 330 330 330 334 333 331 328 326 325 322 322 326 324 322 322 324 325 324 324 324 324 325 326 325 324 323 322 320 319
328 325 327 328 325 326 327 330 331 335 337 333 332 330 330 329 328 329 330 330 326 327 326 323 325 323 323 322 323 323 323 324 325 323 323 325 325 324 323 322 321 319 318
327 326 326 327 327 326 324 326 331 333 334 332 330 329 327 325 327 328 329 327 329 328 327 326 325 323 321 321 322 323 323 323 324 324 323 323 324 324 324 322 320 319 317
327 328 326 326 326 325 328 326 327 330 328 327 324 323 323 323 323 324 327 328 329 329 330 328 325 322 319 319 320 321 322 323 323 324 322 322 322 322 323 323 320 318 317
327 326 324 324 323 325 325 325 325 324 323 322 322 322 321 320 320 320 323 327 330 329 327 324 322 319 320 318 319 320 321 322 323 324 323 323 322 321 321 323 323 321 318
327 326 323 322 321 323 324 324 322 321 320 320 319 319 319 319 319 319 321 322 324 323 323 323 322 321 319 318 317 318 320 321 322 321 323 323 324 322 321 321 322 321 321
327 325 323 321 321 324 323 322 320 319 319 319 318 318 318 318 319 319 319 318 318 317 320 319 320 322 320 318 315 316 319 320 321 321 321 322 323 323 323 323 320 319 320
326 323 322 320 320 322 320 318 317 317 318 317 317 318 319 320 319 319 317 318 316 316 317 321 321 320 317 318 314 314 315 318 319 319 321 321 320 322 323 322 323 321 318
325 324 321 320 321 321 321 319 318 317 317 317 318 319 319 318 318 320 321 319 320 318 319 320 321 318 316 319 313 314 311 312 315 317 318 318 322 321 320 322 323 322 320
323 322 321 321 321 323 322 321 319 319 319 318 317 316 318 318 317 320 325 321 322 321 321 323 324 321 317 318 320 318 314 313 317 317 318 318 321 319 320 319 321 320 321
325 323 324 322 320 322 323 320 317 314 313 316 315 315 318 321 319 317 320 323 321 322 323 323 324 325 324 318 319 318 322 320 315 314 318 319 320 318 320 318 318 319 318
327 322 323 322 320 321 322 320 318 315 314 315 316 317 320 322 322 320 319 323 326 325 326 327 327 324 324 322 320 320 319 319 321 315 311 316 318 318 317 314 316 316 318
327 325 323 321 320 321 321 320 318 317 315 316 315 316 318 319 320 321 322 326 326 327 327 328 328 326 326 326 324 324 321 318 316 317 315 317 316 318 320 321 317 316 319

GFSSE_sfc_thetae_090.txt.gz
Theta_e
344 345 349 351 352 353 351 350 350 348 348 351 350 349 351 350 348 347 348 347 347 348 345 345 348 346 345 346 345 346 345 344 344 344 345 344 344 343 342 343 342 338 342
348 347 348 350 351 353 352 350 349 350 350 351 349 349 350 349 348 348 348 348 348 347 346 346 345 344 343 343 344 344 343 342 341 341 343 342 341 341 341 341 340 338 338
349 347 346 348 351 352 352 351 350 351 351 351 350 349 350 349 349 349 348 347 347 348 346 345 344 343 342 342 342 342 343 342 341 339 339 333 334 338 339 337 337 336 336
348 352 349 346 348 351 352 350 350 350 351 351 350 350 350 349 349 349 348 346 346 346 344 344 343 342 341 342 341 341 341 339 338 338 329 331 332 337 337 336 335 334 333
345 348 348 345 346 348 350 350 349 349 348 348 349 350 350 349 349 349 346 345 345 346 343 342 342 339 339 339 339 339 338 338 335 331 325 327 328 333 334 333 332 332 332
344 347 345 345 346 348 348 349 348 347 345 343 335 329 348 349 348 347 344 343 344 344 342 340 339 337 337 337 337 338 337 335 337 324 323 329 326 333 333 331 330 330 332
344 347 348 343 345 347 348 348 347 344 341 338 333 330 333 345 344 343 343 343 342 343 341 338 336 336 335 335 335 333 331 332 327 323 323 324 326 331 330 329 329 327 328
344 346 345 342 342 344 346 344 341 338 337 332 333 331 331 338 340 340 341 341 342 341 339 337 335 335 334 333 331 329 327 329 326 322 322 322 328 329 329 327 326 326 327
343 343 344 343 340 339 340 339 336 338 334 335 333 330 331 336 337 339 338 340 340 339 337 335 334 333 332 331 328 327 327 329 322 322 323 322 328 328 328 327 326 325 325
338 340 341 342 339 339 338 337 336 336 335 333 334 332 331 335 335 337 337 338 337 337 335 333 333 332 331 329 326 326 326 328 321 321 322 323 328 328 327 327 326 325 324
335 336 337 335 340 339 339 335 335 337 336 335 335 333 331 332 333 335 334 335 335 334 333 332 331 329 328 326 325 326 326 321 320 321 321 328 326 327 326 325 324 324 323
331 333 334 334 336 338 337 335 335 336 335 333 332 330 331 331 332 334 333 333 333 332 331 330 329 327 325 320 320 323 320 322 321 320 321 328 327 327 326 325 324 323 323
332 331 332 331 332 335 335 335 335 335 333 333 331 331 329 331 331 331 331 330 328 329 326 325 323 320 318 317 319 319 321 322 320 319 323 327 326 326 325 324 324 323 321
330 329 330 328 328 330 332 332 333 333 333 331 331 331 328 330 330 330 328 327 324 323 321 319 318 318 317 319 320 322 320 321 320 320 322 326 326 326 325 324 323 322 321
328 327 327 327 326 327 328 331 330 331 333 331 331 331 329 329 328 329 328 323 321 320 318 316 319 318 317 317 319 319 320 321 319 320 320 325 325 325 324 324 323 321 320
328 326 327 326 327 326 326 327 330 330 332 332 330 330 329 329 328 328 326 321 321 322 318 319 319 319 317 317 318 319 319 320 319 319 319 320 323 324 324 323 322 321 320
328 327 326 325 325 327 326 327 328 330 330 330 330 329 329 329 328 327 325 321 322 323 320 323 320 319 318 318 317 318 319 320 319 319 319 318 319 322 323 323 322 320 319
327 325 325 324 323 326 326 327 328 328 328 325 324 328 327 327 326 326 324 325 324 324 323 321 318 316 315 316 315 315 317 318 320 319 319 319 318 318 321 323 323 321 318
326 325 323 323 322 324 325 324 322 322 322 323 322 322 323 324 323 324 324 324 325 324 322 320 318 317 314 314 315 315 317 317 318 320 318 317 318 317 316 321 322 321 321
327 324 322 321 323 324 321 319 319 319 318 319 319 319 319 319 319 319 319 320 320 320 320 318 316 318 315 313 314 314 316 317 317 316 318 320 318 318 317 316 316 316 320
326 323 320 320 322 322 318 316 315 314 315 316 317 317 317 317 317 317 317 316 316 315 316 316 317 316 313 316 312 312 312 315 316 316 316 316 317 318 318 319 316 315 316
324 322 320 320 322 321 319 318 316 315 314 315 316 316 316 316 317 316 315 314 314 313 314 316 315 313 313 313 309 309 305 308 311 313 314 315 315 316 317 318 316 316 315
322 320 320 319 321 321 320 318 317 315 314 312 313 314 315 316 317 316 315 314 314 314 314 315 317 312 310 312 314 312 309 306 307 311 312 312 311 314 315 317 317 318 316
324 321 320 321 321 321 319 316 314 311 310 312 312 313 315 317 316 316 315 317 315 316 317 317 320 316 316 311 313 316 315 315 311 308 311 312 313 313 312 313 314 316 316
324 321 320 321 321 321 319 317 314 312 313 314 314 313 313 314 315 316 320 319 319 318 319 319 320 321 319 318 314 313 313 313 314 311 307 309 312 312 313 314 313 312 315
325 322 320 319 319 321 320 318 315 313 313 313 312 312 313 314 316 316 318 319 319 319 320 321 321 321 320 319 318 317 315 312 311 310 308 309 310 312 314 312 311 311 313

GFSSE_sfc_thetae_093.txt.gz
Theta_e
340 345 348 352 351 350 349 348 348 350 351 351 351 351 350 350 349 349 349 349 349 350 347 348 349 347 347 347 348 347 346 345 345 345 346 345 345 344 343 343 342 338 343
341 346 347 350 352 351 350 349 347 346 350 350 351 350 349 348 348 348 348 347 347 346 347 347 346 346 346 345 346 345 344 343 343 343 344 343 343 343 342 341 341 338 341
341 345 347 348 351 351 351 350 349 348 350 350 351 350 349 349 348 348 348 347 347 348 346 346 345 345 345 345 344 343 342 341 340 340 340 333 335 341 341 339 338 338 337
343 343 344 347 350 351 350 349 349 350 351 350 350 350 350 349 349 348 347 346 348 348 346 344 343 343 343 343 343 342 341 339 337 336 332 333 335 339 339 337 335 334 334
343 345 343 344 347 350 350 349 349 350 349 349 347 336 336 344 349 348 347 346 346 347 345 343 342 341 342 341 340 339 338 337 335 330 328 330 332 336 336 334 332 332 332
342 344 342 343 345 349 350 350 349 348 347 339 336 335 333 333 344 348 346 345 346 346 343 342 341 340 339 338 338 338 337 334 330 324 325 330 330 335 334 332 332 331 329
340 341 342 342 345 347 349 350 349 347 346 337 336 335 335 330 331 344 343 344 344 343 342 340 339 339 338 338 337 335 333 331 324 322 323 326 328 332 331 330 330 328 328
336 339 340 343 344 345 346 345 345 344 341 337 336 334 333 330 328 339 341 342 342 341 339 338 337 337 337 335 333 330 328 328 324 322 323 326 329 331 331 328 327 327 327
332 336 336 338 341 341 342 340 338 338 337 336 335 333 330 332 336 338 340 340 341 339 338 337 335 335 334 333 330 327 328 327 320 320 322 325 329 330 329 328 327 326 325
330 331 334 334 336 334 335 337 336 335 335 334 334 332 330 331 335 337 336 338 339 338 337 335 334 333 332 330 327 326 327 326 320 320 321 325 329 328 327 327 326 326 325
327 329 331 336 337 336 333 336 336 336 334 334 333 332 330 330 334 334 335 337 337 336 335 334 332 330 329 327 327 326 325 321 321 320 320 326 327 328 327 326 325 325 325
324 326 327 332 336 336 336 329 330 333 332 331 331 330 330 330 330 334 334 334 334 333 333 332 330 328 324 317 318 322 320 320 319 319 320 326 327 327 327 326 325 324 324
325 325 326 326 328 333 333 332 329 330 330 330 330 330 328 329 331 331 332 330 329 330 326 325 324 319 317 316 316 317 319 319 319 319 323 327 328 327 326 325 324 324 322
324 324 324 324 327 328 332 332 331 330 329 330 330 328 326 329 327 329 328 326 325 323 320 320 316 314 314 316 317 318 319 317 318 319 322 324 327 326 326 325 324 323 322
322 322 322 324 325 326 327 329 330 329 329 329 330 327 329 328 327 328 326 324 322 321 318 315 314 314 313 316 316 318 318 317 318 319 318 324 325 326 325 325 324 323 322
322 321 322 322 323 324 321 323 324 327 330 330 330 328 328 329 329 327 322 320 319 317 315 316 314 313 314 314 316 318 318 318 318 318 319 321 323 325 325 324 323 323 322
322 322 321 322 325 324 320 321 322 325 328 330 329 329 328 330 329 324 320 319 317 314 315 316 315 314 313 316 316 317 318 318 318 318 317 317 320 322 324 324 323 322 321
321 320 321 323 323 325 322 322 322 325 328 330 329 329 328 328 329 323 320 319 320 314 317 318 317 314 313 314 313 313 317 317 317 317 317 317 316 317 321 323 323 323 321
321 321 319 319 321 323 323 322 321 324 325 325 328 329 328 328 328 324 321 320 322 316 320 318 314 315 314 314 313 313 314 317 317 318 317 317 315 315 315 321 322 321 321
320 320 319 319 322 322 321 320 320 319 320 322 324 326 328 328 327 324 323 321 321 320 317 316 315 314 314 314 315 314 313 316 317 316 317 317 316 315 315 315 317 316 319
319 317 317 318 321 319 318 316 315 314 315 316 319 321 323 325 324 323 321 320 321 318 316 315 315 313 312 312 310 310 311 313 313 314 316 315 315 315 314 315 314 314 316
317 317 317 318 321 319 318 317 316 315 315 315 316 316 318 320 321 320 318 316 317 316 314 313 314 311 311 312 308 307 303 306 309 312 312 315 314 316 315 314 313 313 313
316 315 317 319 320 319 318 316 315 314 314 312 312 313 315 317 319 318 316 314 313 313 312 312 313 311 309 309 311 308 304 302 304 307 309 311 312 312 315 315 314 314 313
316 317 317 319 320 319 318 315 312 311 309 312 312 312 314 316 316 316 314 314 313 312 311 313 315 311 309 307 309 315 314 313 305 304 307 308 309 310 311 312 315 315 315
317 316 317 319 320 318 317 315 312 310 311 312 312 311 313 314 316 315 315 314 314 314 313 314 315 313 313 310 310 310 310 311 312 308 304 305 308 309 310 311 313 315 316
317 316 317 319 319 318 316 315 311 309 310 310 310 311 311 313 313 314 314 314 313 314 316 316 317 316 316 315 315 314 311 309 308 308 305 306 306 308 311 312 311 311 311

GFSSE_sfc_thetae_099.txt.gz
Theta_e
339 345 348 350 350 349 349 349 349 349 351 352 352 352 352 352 352 351 351 351 351 351 351 352 352 351 350 349 348 348 346 344 343 346 346 345 344 344 343 342 342 338 343
341 347 347 349 350 349 349 349 349 350 351 352 352 351 351 351 351 351 350 349 351 351 349 349 352 351 349 348 347 346 345 344 344 344 344 343 342 342 342 341 342 339 342
341 346 346 347 349 349 349 349 350 351 351 351 351 351 351 351 351 351 350 348 349 347 348 348 348 348 347 347 345 345 344 343 343 342 342 337 336 341 341 340 341 340 340
341 345 346 347 348 349 348 349 350 351 350 350 350 350 350 350 350 350 349 348 348 347 345 347 347 347 345 344 344 343 342 341 340 339 335 335 336 340 341 339 339 339 339
339 342 345 345 346 348 348 348 349 349 349 348 348 349 349 349 348 349 347 347 347 348 345 347 346 345 343 341 340 340 339 338 337 333 330 333 334 338 339 337 336 335 336
338 340 341 344 345 347 348 348 348 348 347 347 346 347 349 348 348 346 345 346 347 347 347 346 344 342 340 339 338 337 336 335 331 328 331 334 332 337 336 334 334 334 334
337 336 339 341 345 348 349 349 348 347 343 343 342 343 345 347 346 345 344 344 343 344 345 344 342 339 339 338 336 334 332 331 326 327 327 328 330 335 334 333 331 331 331
337 336 337 342 344 346 348 347 346 344 341 340 338 339 341 342 341 342 343 342 342 343 342 340 340 338 338 336 334 331 330 330 326 325 326 328 334 334 332 330 329 329 329
336 335 335 337 341 342 343 343 342 341 338 338 337 337 336 335 334 337 339 340 341 340 339 339 338 336 335 333 331 329 329 328 324 325 327 328 334 332 331 329 328 327 327
332 333 333 334 335 339 341 339 340 339 337 336 336 336 335 335 334 334 335 336 339 339 337 337 336 335 332 331 329 328 327 327 322 323 325 327 331 331 330 329 327 328 327
328 329 329 329 329 330 336 337 339 338 336 336 336 336 333 329 329 331 334 335 337 337 335 336 334 332 329 329 328 327 325 320 321 322 323 330 329 329 328 329 328 327 326
323 326 328 327 327 328 334 333 334 337 336 335 334 331 327 324 327 331 334 335 336 335 335 335 333 329 327 324 324 324 319 319 321 321 323 329 330 329 328 328 326 326 325
323 325 326 328 327 328 329 329 333 332 330 330 328 327 324 327 326 328 329 331 333 332 331 330 326 318 322 322 319 317 318 318 319 320 324 328 329 328 328 326 326 326 324
320 324 323 326 326 326 327 327 331 331 328 328 327 326 323 327 328 329 330 328 328 329 327 326 319 316 316 317 317 317 317 318 317 317 322 326 328 327 328 327 326 325 324
320 322 323 322 324 326 326 326 328 330 329 328 327 325 325 326 327 329 329 329 329 327 324 321 317 314 315 316 317 317 316 316 316 318 318 325 326 328 327 327 326 326 325
322 322 321 321 323 324 326 324 326 327 328 328 327 327 326 327 327 328 326 328 326 325 322 319 315 313 313 315 315 316 316 316 316 316 319 322 324 326 327 326 325 325 324
323 322 321 320 321 322 322 322 323 325 327 326 327 327 327 327 326 327 325 323 324 322 319 317 314 312 311 315 314 314 315 315 315 315 317 318 321 323 325 326 325 324 323
322 321 321 322 320 319 319 320 321 326 327 327 328 327 328 328 326 323 325 322 319 318 316 315 312 312 313 314 313 313 315 315 315 316 317 317 317 318 322 324 325 325 323
321 321 319 320 319 318 317 318 318 324 327 328 328 326 328 328 325 322 321 319 317 316 315 314 312 312 313 314 313 313 314 315 315 317 316 316 316 316 316 322 323 323 324
321 320 320 320 319 318 319 319 319 324 326 327 328 327 328 328 324 321 319 317 316 314 314 313 311 311 314 314 315 313 312 314 315 315 316 316 315 315 316 317 317 317 321
319 319 318 317 320 320 318 318 318 319 319 322 326 327 327 328 324 321 318 316 313 313 314 312 312 311 310 315 312 310 309 312 312 314 314 314 315 315 314 313 313 313 315
318 317 316 317 320 319 319 318 315 317 317 319 321 323 327 327 324 322 319 315 311 313 314 312 312 309 309 314 311 309 305 307 310 311 312 313 312 314 313 313 312 312 311
317 316 316 318 318 318 316 314 314 314 314 314 315 319 321 327 324 322 319 316 311 315 314 312 313 312 310 309 313 308 303 303 306 307 309 311 312 311 312 313 312 313 312
316 316 317 317 316 317 316 314 313 312 311 312 313 315 317 322 324 323 321 317 313 317 314 313 314 313 313 309 308 312 310 308 305 301 306 311 311 311 311 311 312 312 312
316 315 317 317 316 316 316 312 311 312 313 312 312 313 316 318 323 323 320 316 314 317 315 314 312 311 313 310 309 309 311 310 309 304 301 303 307 310 312 312 313 312 313
315 315 316 316 316 316 315 311 311 312 311 310 311 311 313 314 318 320 319 316 317 316 315 313 312 311 311 311 310 311 310 309 308 308 305 304 305 307 311 312 313 313 313

GFSSE_sfc_thetae_102.txt.gz
Theta_e
337 342 348 349 350 350 349 349 350 351 353 353 352 352 352 352 352 351 351 351 352 352 353 352 352 352 352 350 349 348 346 346 347 347 347 345 345 345 344 344 344 341 345
340 344 346 349 349 349 349 349 350 351 353 353 352 352 351 352 351 351 351 351 351 353 351 351 352 351 349 348 348 346 345 345 344 344 345 344 344 344 344 342 343 342 345
340 345 345 347 349 349 349 349 350 352 353 353 352 352 352 352 351 351 350 350 351 352 350 349 351 349 348 347 346 346 345 344 343 343 343 336 337 342 342 342 343 344 342
341 344 344 347 348 349 349 349 350 351 352 352 351 352 352 351 351 351 350 347 348 351 350 348 349 348 347 344 344 344 344 343 341 340 335 336 337 342 342 341 341 341 341
341 343 344 345 346 348 348 349 350 349 349 350 350 351 352 351 350 350 348 347 347 348 349 347 347 346 344 343 342 342 341 340 338 334 334 334 334 339 340 340 339 338 339
338 341 343 343 345 347 348 349 349 349 347 348 348 350 350 350 350 349 347 345 345 346 347 346 345 344 341 340 339 339 338 336 334 330 331 336 334 338 338 336 338 336 337
335 336 340 341 344 347 348 348 348 347 346 346 347 348 349 349 347 345 344 344 344 344 346 345 343 342 340 338 338 336 334 334 328 327 328 330 332 337 336 335 334 335 334
334 334 337 343 344 345 347 346 345 344 344 344 345 346 347 347 345 344 344 344 343 343 343 342 340 340 338 337 335 333 332 332 328 326 327 328 336 335 334 332 332 331 331
333 332 333 337 343 343 342 343 342 341 341 340 341 342 341 341 342 344 343 342 341 340 342 341 339 338 336 334 333 331 330 329 326 326 328 329 336 334 332 331 329 329 329
331 331 331 333 335 338 341 340 340 339 338 338 337 337 335 335 336 337 338 339 340 341 340 338 337 336 334 332 330 329 329 327 323 324 326 329 334 332 331 329 329 327 326
333 332 330 331 332 333 336 341 340 339 337 337 337 336 333 332 332 333 334 336 337 336 337 336 335 332 331 330 329 328 325 321 321 322 325 332 332 330 331 327 328 327 327
331 332 329 328 328 328 333 338 338 339 336 335 335 334 332 330 330 332 332 334 336 334 334 335 332 331 328 325 325 324 320 320 320 321 324 330 331 331 330 329 327 326 327
329 329 328 325 325 325 333 334 335 335 336 334 333 332 328 328 329 330 328 330 331 333 331 332 328 325 324 322 320 316 317 318 318 321 326 329 330 329 330 329 327 327 327
321 325 326 324 324 324 331 331 332 330 331 330 330 328 327 326 326 329 329 330 329 329 329 328 322 322 321 320 317 316 317 317 317 319 325 328 330 329 329 328 328 325 325
319 321 323 324 325 324 326 327 329 328 328 327 328 326 326 326 325 327 328 327 328 329 327 320 318 320 318 317 317 317 317 317 317 319 321 325 326 329 328 328 328 326 326
321 320 322 323 325 327 327 327 328 330 328 327 326 326 325 324 327 327 328 327 327 326 325 318 317 317 317 317 315 316 315 316 317 318 319 323 324 327 327 327 327 326 326
321 322 322 322 323 327 328 325 327 327 328 328 327 326 325 324 325 328 326 326 326 325 322 317 316 317 316 316 314 314 316 317 316 317 319 320 323 323 325 327 327 326 325
320 321 323 324 322 324 327 324 324 325 327 327 327 326 326 327 327 327 325 325 326 323 320 316 315 315 314 314 312 313 315 316 315 316 317 318 319 320 323 325 326 326 324
320 321 320 322 321 321 319 323 324 325 325 326 327 326 327 327 325 324 326 323 324 320 318 316 314 315 313 312 312 312 313 313 314 316 316 317 318 318 319 323 323 323 324
320 321 320 321 320 318 318 320 321 323 325 326 326 325 327 327 324 323 321 319 320 319 316 316 313 315 314 313 314 311 311 313 314 314 314 316 316 317 317 319 320 319 321
317 318 319 320 318 319 320 320 320 321 321 323 325 327 327 327 324 321 319 316 317 316 314 314 313 313 313 314 311 309 309 312 313 313 315 314 315 316 317 317 317 317 319
317 318 320 319 319 320 320 321 319 319 319 321 324 326 327 327 324 321 318 316 316 315 313 313 313 312 313 314 311 308 306 309 311 312 313 313 312 314 315 315 315 314 314
316 318 319 318 319 320 320 318 315 315 315 316 317 321 324 326 324 322 319 316 315 315 313 312 313 313 311 313 314 308 304 303 306 309 311 312 312 312 314 314 313 314 313
316 319 318 318 319 319 318 315 313 311 311 313 316 317 319 324 324 323 319 316 314 314 313 312 314 314 314 310 312 311 311 310 305 302 307 310 312 311 312 312 313 313 314
316 317 318 318 318 317 316 316 314 313 314 313 313 315 316 318 323 322 319 316 312 314 314 312 313 312 314 312 311 309 309 310 308 305 302 305 309 311 312 312 312 313 313
316 316 317 317 316 316 315 314 312 310 312 311 312 313 315 316 320 322 321 317 313 315 314 312 314 313 313 313 311 311 310 309 308 308 304 304 306 307 311 312 313 313 314

GFSSE_sfc_thetae_105.txt.gz
Theta_e
343 347 347 347 349 350 350 350 351 352 352 353 353 353 352 353 353 352 353 352 353 353 353 353 353 352 351 350 350 349 349 348 347 348 348 347 347 346 346 346 346 344 347
346 348 346 345 346 350 350 350 351 353 353 353 352 352 352 352 352 352 352 352 352 353 351 353 353 353 351 350 348 347 347 346 345 346 346 346 346 345 345 345 345 344 346
346 348 349 346 348 349 350 350 352 354 354 353 353 352 352 352 352 351 352 351 351 353 351 351 352 351 350 348 347 346 345 345 345 345 345 342 342 344 344 345 345 345 345
346 348 349 346 348 349 349 350 352 354 354 353 353 352 352 352 351 352 351 350 351 352 352 350 350 349 348 346 345 345 344 344 342 341 339 340 339 343 343 342 343 343 343
345 346 348 346 346 348 349 349 350 351 351 352 351 352 353 352 351 350 349 347 349 350 351 350 349 348 345 344 342 342 342 341 339 339 337 340 338 342 342 341 342 342 342
344 345 344 343 346 348 349 349 349 350 349 349 350 351 352 352 351 348 347 347 348 348 349 350 347 345 343 341 341 341 339 338 338 338 337 340 340 341 340 339 340 340 339
344 344 345 342 345 347 349 349 349 348 347 348 349 350 350 350 350 347 345 344 345 345 346 347 346 343 341 340 339 338 336 336 339 338 338 339 338 338 338 337 336 337 338
344 346 348 344 344 345 346 347 346 345 345 346 347 348 349 349 347 345 344 343 342 344 344 344 343 341 339 338 337 335 334 335 337 338 338 337 338 337 336 335 335 335 334
343 344 347 348 347 343 342 342 342 343 343 344 345 343 345 344 341 343 342 342 343 343 342 342 341 338 338 336 334 332 331 334 337 336 335 336 337 336 335 333 331 331 331
341 342 343 347 347 348 349 340 340 340 340 340 342 341 338 339 340 340 340 341 342 341 340 340 339 337 336 334 332 330 330 332 335 335 335 335 336 334 333 331 330 330 330
337 341 342 344 347 346 348 347 341 341 339 338 339 338 336 344 343 342 340 336 339 339 340 339 337 334 332 331 331 329 330 334 334 334 334 333 335 333 332 331 329 329 329
335 336 340 342 343 346 345 348 344 345 343 340 341 343 343 341 341 340 338 335 337 336 336 336 334 332 331 330 332 329 332 333 333 333 333 332 334 332 330 329 327 327 328
336 336 335 337 342 342 342 344 343 342 340 339 341 338 337 334 336 337 337 337 338 336 339 333 333 332 330 330 329 330 332 332 331 331 331 331 333 332 331 329 328 328 328
334 335 334 336 339 340 340 341 341 339 337 338 337 339 338 334 332 333 332 333 334 338 337 331 333 329 327 328 326 328 330 330 330 330 329 328 330 331 330 329 329 328 327
331 335 334 336 337 337 334 336 338 336 334 334 336 335 338 335 330 335 332 332 335 336 336 329 327 325 324 326 326 326 327 328 329 328 328 327 328 330 329 329 329 327 327
329 331 334 336 337 335 333 331 333 333 332 332 333 334 335 337 335 330 331 332 332 331 332 325 322 322 322 325 323 325 326 326 327 327 327 328 326 328 329 329 327 327 327
329 330 329 333 336 334 333 330 331 333 333 331 330 330 333 334 331 329 331 331 330 326 326 322 321 320 320 323 322 324 325 325 325 326 326 326 325 324 326 328 327 328 326
328 328 329 329 333 333 331 329 330 332 332 332 331 331 331 331 330 331 330 327 327 322 319 320 318 317 318 321 319 322 323 324 325 325 325 325 325 324 323 325 327 327 326
325 327 328 329 330 331 330 329 328 329 329 331 332 330 331 329 330 331 330 327 325 322 317 318 317 317 318 318 319 321 322 322 323 323 323 324 325 325 325 324 324 324 325
316 325 327 329 330 330 328 326 327 327 327 329 329 329 330 328 327 329 328 324 324 321 318 318 317 317 317 317 318 319 321 322 322 323 324 324 325 326 326 325 325 323 322
317 323 326 327 328 327 323 322 323 324 325 326 328 328 327 328 328 327 325 322 324 320 316 316 317 315 317 321 317 316 318 320 321 322 323 324 323 324 323 324 323 323 322
319 323 325 326 325 328 326 326 327 326 325 325 327 327 327 328 327 324 321 319 320 319 317 315 316 315 315 317 315 314 308 311 318 320 322 322 322 323 323 324 324 324 324
320 322 323 325 323 328 328 326 325 322 322 321 322 325 326 328 325 324 320 318 316 316 315 316 316 316 313 315 318 316 308 307 312 318 319 320 321 321 321 322 322 323 323
318 323 323 323 322 325 325 322 322 320 318 319 320 323 326 328 324 323 320 319 318 317 315 316 317 316 315 313 317 316 319 315 311 308 315 317 320 319 320 321 321 322 322
318 321 322 321 321 323 323 323 321 318 319 319 320 319 323 325 325 322 320 318 317 317 316 316 316 316 317 317 315 313 313 315 317 312 309 312 317 318 320 320 320 320 320
320 322 321 319 319 321 322 320 317 317 319 318 316 316 319 319 321 323 319 318 316 316 315 316 317 317 317 318 318 316 314 312 311 312 311 312 312 314 317 319 319 319 320

GFSSE_sfc_thetae_108.txt.gz
Theta_e
341 349 347 349 350 351 352 352 353 353 353 353 353 353 353 353 354 354 354 354 354 354 353 352 353 352 350 350 351 350 349 349 348 349 349 348 348 348 347 348 347 346 347
344 350 345 346 349 351 351 352 352 352 353 353 353 353 353 353 353 353 353 353 353 354 352 352 353 352 350 351 350 349 348 347 347 347 347 347 346 346 346 347 346 346 346
347 351 349 345 349 350 351 352 353 353 354 354 354 353 353 353 353 353 352 352 352 353 352 351 352 352 351 349 347 347 347 346 345 345 346 344 345 345 346 346 345 346 345
348 352 352 345 348 350 351 352 353 354 354 353 353 353 353 353 352 353 352 351 351 353 353 351 351 351 349 347 346 346 346 345 344 344 341 341 343 344 344 344 344 344 345
346 351 352 345 347 349 350 351 352 353 352 352 352 353 353 353 353 352 351 350 351 352 351 351 350 349 347 344 344 344 343 342 341 341 339 340 342 343 343 343 343 343 343
346 349 346 343 346 348 349 351 351 351 351 351 351 352 353 353 353 351 348 349 349 349 351 351 349 346 344 342 342 342 340 339 337 339 338 339 338 342 342 341 341 341 341
346 349 352 343 345 348 349 350 350 350 349 349 350 351 351 352 350 348 347 347 347 349 349 348 347 344 342 341 341 339 338 337 340 339 338 338 341 341 341 340 339 340 339
348 351 352 346 345 346 348 348 347 347 347 348 349 349 350 349 347 346 345 346 345 346 346 346 344 341 341 340 339 337 336 336 337 336 336 339 340 340 339 337 337 338 337
350 350 353 352 349 343 343 344 343 344 345 345 346 346 347 345 344 344 344 344 342 343 342 343 342 339 340 338 337 334 334 336 338 337 336 336 339 337 336 335 334 334 335
348 349 351 352 351 349 351 341 341 341 341 343 344 344 341 340 342 342 342 341 341 343 342 342 338 338 337 336 334 333 332 334 338 335 335 335 338 337 335 333 333 332 332
344 345 348 349 349 348 348 347 341 341 341 340 343 340 337 349 347 346 341 339 340 340 340 339 337 336 333 332 332 332 332 337 336 334 335 335 337 335 334 332 331 331 330
341 343 345 347 348 348 347 350 350 349 347 349 348 347 348 347 346 342 340 337 338 336 338 338 336 333 333 333 331 332 339 336 336 333 333 334 336 334 332 331 330 329 329
338 341 343 347 349 347 347 346 347 347 349 349 349 349 348 346 346 345 344 340 341 337 337 339 335 335 333 331 329 331 337 336 334 333 331 333 334 334 332 328 329 329 329
336 340 343 345 347 347 345 345 346 343 346 345 347 346 345 343 342 342 342 340 339 339 339 339 333 335 333 330 329 333 333 335 330 332 330 330 332 332 331 330 328 329 329
336 340 342 342 346 346 345 344 343 345 344 343 343 345 344 340 340 341 338 337 338 338 340 333 336 331 329 330 329 332 331 332 331 330 330 328 330 332 331 330 330 329 329
334 338 342 342 345 346 345 341 342 343 343 343 343 341 342 343 338 341 339 335 337 338 339 334 335 332 328 328 327 331 331 331 331 330 330 330 327 329 331 331 330 328 329
331 335 339 343 345 345 343 341 341 340 340 341 339 338 340 340 340 340 339 336 338 336 335 334 330 331 328 326 327 329 329 330 330 329 327 326 328 325 327 329 329 328 328
328 330 335 337 341 344 342 340 337 337 338 335 335 335 337 337 339 337 336 336 334 335 331 327 324 322 322 323 325 327 327 328 328 327 328 326 327 327 325 327 328 328 328
324 327 331 337 337 341 342 339 336 336 335 338 337 334 333 336 337 335 336 332 331 328 325 324 322 321 320 321 323 327 327 326 327 325 326 326 327 328 326 324 325 325 326
320 322 326 331 336 338 341 338 333 334 334 336 337 336 337 336 334 335 334 331 326 321 319 319 320 320 319 319 321 323 326 325 326 323 324 323 326 326 325 325 325 324 323
323 323 323 327 333 334 333 330 328 327 330 331 334 335 336 334 336 332 331 329 324 319 319 320 319 317 317 320 319 320 322 324 323 323 324 324 324 323 326 326 325 325 323
324 325 326 328 332 334 331 330 331 329 329 331 332 335 333 334 333 329 328 327 323 320 320 321 319 317 317 320 317 315 311 314 320 322 323 323 324 324 323 326 324 323 325
323 325 326 328 331 333 334 329 330 330 329 328 329 330 331 332 331 329 328 326 324 321 317 318 318 317 314 318 321 317 309 308 315 320 321 321 323 322 324 325 325 325 325
323 325 327 328 330 332 333 328 328 327 324 328 327 328 329 330 329 329 329 327 323 321 318 317 318 317 317 315 318 321 322 319 313 311 318 320 322 321 322 323 323 324 325
322 326 327 328 329 329 330 328 329 330 330 331 330 328 326 328 329 329 324 321 319 319 318 318 318 317 317 316 316 316 319 318 319 314 311 313 319 321 322 322 323 323 324
322 325 328 327 327 327 326 328 330 331 330 327 324 323 322 324 327 325 323 321 320 319 318 318 318 317 317 317 317 317 318 316 315 314 312 312 313 317 320 322 323 323 323

GFSSE_sfc_thetae_111.txt.gz
Theta_e
341 351 349 350 351 352 353 353 353 353 353 354 354 354 354 354 354 355 355 354 355 355 355 353 353 351 351 350 351 352 351 350 349 350 351 350 349 348 348 348 346 346 348
343 349 347 349 351 351 351 352 353 354 354 353 353 354 353 353 354 354 354 353 354 355 353 353 352 351 350 350 350 349 349 348 347 348 349 348 348 347 347 347 347 346 347
345 349 349 347 350 351 351 352 354 354 354 354 354 354 353 354 354 354 353 353 354 354 353 352 351 351 350 349 349 348 348 347 346 347 348 343 345 347 347 347 346 346 345
345 350 350 346 349 351 352 353 353 354 354 354 353 354 354 353 354 353 352 351 352 354 353 351 352 350 350 348 346 347 346 346 345 344 342 341 343 346 346 345 346 345 345
344 349 351 345 347 350 351 352 353 353 353 353 353 354 354 354 354 353 350 350 352 353 354 352 351 350 348 345 345 344 345 344 344 342 341 340 341 344 344 344 344 343 343
343 346 344 344 346 349 351 352 353 352 351 351 351 353 353 353 353 352 349 350 352 353 353 352 350 347 344 343 343 343 342 341 341 339 337 339 340 343 343 343 343 341 341
343 349 351 343 346 349 350 351 352 351 350 351 351 351 352 352 352 350 349 349 349 349 349 348 347 344 343 342 342 340 339 338 339 338 337 338 342 342 342 341 340 340 340
345 351 354 346 346 347 348 349 349 348 349 349 350 350 351 351 349 348 348 348 347 347 347 346 345 343 342 341 340 338 336 336 337 336 339 339 341 341 341 340 339 339 339
348 351 355 352 348 344 345 345 345 345 346 347 348 346 346 346 344 346 346 344 345 345 345 345 343 340 340 340 336 335 335 335 338 338 337 339 340 340 339 338 337 337 336
347 349 352 353 351 350 350 342 342 342 343 344 345 344 342 341 343 343 342 343 344 342 344 343 340 339 339 337 334 332 333 333 338 336 337 338 339 339 337 335 334 334 334
344 345 349 349 350 351 351 347 342 342 341 342 344 343 341 348 347 346 342 340 340 340 341 341 339 337 335 333 333 331 332 338 335 335 337 336 339 337 336 334 333 333 332
340 341 344 347 348 349 346 350 348 348 348 347 348 349 350 348 347 344 342 339 339 339 338 337 336 334 334 338 335 332 335 337 336 335 335 335 338 337 335 333 332 331 331
339 339 340 346 349 347 345 346 346 347 347 347 348 348 349 347 349 346 347 346 344 338 338 338 337 338 337 336 335 334 334 335 335 333 333 334 336 335 334 332 331 330 330
335 338 340 343 347 349 344 343 344 347 347 347 348 352 349 348 346 345 342 343 343 340 338 339 340 339 337 335 336 333 332 332 333 334 332 332 334 334 333 331 330 330 329
330 336 340 343 346 348 348 344 345 348 345 348 346 348 348 345 344 343 343 342 340 338 338 339 338 337 335 333 334 332 331 331 331 332 332 330 330 333 331 329 331 330 330
327 332 341 343 347 347 346 347 346 347 347 345 345 346 348 346 345 346 344 342 342 341 341 340 338 335 333 333 331 329 329 330 331 330 331 330 328 330 331 331 331 330 330
326 329 339 344 348 346 346 345 345 344 344 345 344 346 346 346 345 343 342 341 342 340 340 339 337 337 334 331 328 328 329 331 329 328 329 329 328 326 328 330 331 330 329
326 328 332 339 344 346 347 345 344 342 342 342 343 343 343 344 344 341 339 339 341 341 339 336 334 331 329 327 326 327 327 328 329 326 328 327 329 328 326 328 329 330 330
324 326 329 338 340 344 347 345 346 344 341 341 341 338 341 339 340 339 339 340 341 337 335 333 327 328 324 324 324 325 326 327 327 325 327 326 328 328 327 326 326 327 328
322 324 327 330 338 341 343 346 343 340 339 340 339 339 340 340 339 338 337 339 338 332 329 327 324 323 322 322 323 323 324 327 326 325 325 325 327 325 326 327 327 325 324
323 323 323 324 331 338 336 338 340 333 334 335 339 339 339 337 336 335 334 334 333 328 325 324 322 321 320 322 320 320 321 325 326 324 326 324 325 324 325 326 326 325 324
323 324 326 326 327 330 334 336 338 332 332 334 336 339 338 337 335 334 334 330 326 324 323 322 319 317 318 321 318 316 312 317 322 322 323 324 323 323 324 325 326 325 325
323 325 325 327 328 330 334 337 334 333 331 330 331 334 336 336 334 335 334 331 325 323 320 320 319 318 315 319 320 316 310 309 315 321 322 322 325 323 324 323 324 325 325
323 325 328 328 328 330 335 334 330 328 326 328 331 333 333 336 334 333 332 329 325 322 320 320 322 319 317 315 318 320 319 317 312 311 319 322 325 322 324 324 324 323 325
321 324 328 329 329 330 332 334 331 328 331 333 333 332 330 333 331 333 331 327 325 322 321 319 319 317 317 315 315 316 316 317 319 314 310 315 320 320 322 323 324 325 326
320 323 326 327 328 330 331 333 331 328 332 331 332 331 328 331 332 330 329 328 327 325 321 319 320 318 317 316 317 317 316 314 315 315 313 314 314 319 319 322 324 324 325

GFSSE_sfc_thetae_114.txt.gz
Theta_e
345 347 350 352 352 353 353 353 354 353 354 354 354 354 354 355 355 354 355 355 356 357 356 354 354 352 351 351 352 351 351 350 350 350 351 351 349 349 349 348 347 344 348
346 347 348 350 352 352 352 352 353 353 354 354 354 354 354 354 354 354 354 354 355 356 355 353 353 351 350 351 350 350 349 348 347 348 350 350 349 348 348 348 346 345 346
344 346 347 349 351 352 352 353 354 355 354 354 354 353 353 354 354 354 353 353 353 356 354 353 352 351 351 349 348 348 348 347 347 347 347 341 343 348 348 347 346 346 346
346 347 347 347 350 352 352 353 354 355 354 354 354 354 354 354 354 353 352 352 353 354 353 352 352 351 350 348 347 347 346 346 345 345 341 341 341 346 347 346 345 345 344
344 347 347 346 348 351 352 353 353 353 353 353 353 354 354 354 353 353 351 350 352 354 354 352 351 350 347 346 345 345 345 344 344 343 338 339 339 344 346 345 344 343 343
343 348 342 345 347 350 351 353 353 352 351 351 352 353 354 354 353 352 350 349 352 354 352 353 349 346 345 343 343 343 342 342 342 337 337 340 338 344 343 343 342 342 341
347 348 345 343 346 349 352 353 353 352 351 351 351 352 352 353 352 350 349 349 349 349 350 349 347 345 343 342 342 341 340 340 338 333 336 337 337 343 343 342 341 341 341
352 351 346 345 346 347 349 350 350 349 349 349 350 350 351 351 348 349 348 348 348 347 347 346 344 343 342 341 341 339 337 337 335 337 336 337 340 342 342 341 340 339 339
352 353 348 347 346 345 345 346 346 346 347 347 348 347 348 345 345 345 347 346 345 345 343 343 342 341 341 340 338 335 334 333 333 336 337 336 342 341 340 340 338 337 337
348 352 349 348 347 346 346 343 343 343 344 345 346 345 345 343 344 343 343 344 343 344 342 343 340 339 339 337 336 334 333 332 332 335 335 335 340 341 340 338 338 336 335
344 347 350 349 347 347 346 345 342 343 343 343 345 344 340 347 345 345 342 341 342 341 340 342 338 337 336 335 335 332 331 332 333 331 335 336 340 340 339 337 335 335 334
340 342 346 347 347 348 346 346 345 345 345 345 347 346 345 347 345 343 341 340 340 338 339 338 338 335 334 334 332 333 333 335 333 334 333 335 338 338 337 335 334 333 334
339 339 341 346 348 347 343 346 345 345 345 344 345 345 346 345 344 342 341 339 339 337 336 336 334 334 335 334 332 332 333 332 332 334 333 334 336 337 336 335 333 333 332
336 337 338 344 347 347 345 344 345 343 344 343 344 344 345 344 343 341 340 339 338 337 334 334 334 332 334 334 333 332 330 332 331 333 332 332 335 337 336 334 333 332 331
331 336 337 341 345 347 347 343 344 345 344 344 344 345 345 343 341 341 340 339 338 337 335 333 333 333 333 332 332 332 330 330 330 328 330 330 331 334 334 333 332 331 330
326 333 338 339 344 346 345 346 342 347 344 345 344 344 346 344 342 340 339 337 337 337 336 334 334 332 333 331 331 331 329 329 329 330 330 329 329 331 332 332 331 331 331
324 327 338 340 345 345 346 345 345 343 345 343 343 344 344 344 343 340 339 337 337 336 334 334 332 332 331 331 329 328 329 328 329 329 329 328 327 327 328 330 331 331 330
322 324 337 340 344 344 345 345 342 343 344 344 342 342 342 343 342 339 338 337 337 334 333 332 330 329 329 327 327 326 326 326 328 329 328 327 326 326 326 328 330 331 331
319 325 328 340 344 344 344 345 344 342 342 340 342 341 341 341 341 339 337 337 337 333 331 331 330 328 327 326 326 325 325 326 326 327 325 326 326 325 324 326 327 327 328
319 324 329 337 341 345 343 343 344 342 340 340 339 339 339 337 340 337 335 335 336 334 331 330 328 329 326 325 325 324 324 325 325 323 323 325 324 325 324 324 324 324 325
322 322 324 328 338 340 340 340 339 338 337 336 337 338 336 336 337 335 334 333 333 330 327 327 325 323 322 324 321 320 321 323 323 322 323 323 322 323 323 323 323 322 323
321 325 326 326 326 332 337 337 339 339 337 335 335 337 337 337 336 333 333 330 330 327 325 324 322 319 320 323 318 317 313 315 319 321 322 322 320 322 323 323 322 322 321
323 325 324 325 326 328 327 334 336 335 332 330 331 331 336 336 335 334 331 330 328 326 323 323 322 319 316 319 321 316 310 308 314 318 318 320 320 320 321 322 322 321 321
323 326 325 327 327 327 331 329 333 329 327 329 330 330 333 334 333 333 332 328 326 325 322 322 322 320 319 316 318 319 317 316 310 308 316 317 319 318 319 319 320 320 321
322 325 325 327 328 328 329 330 333 330 330 329 328 328 329 331 332 331 331 328 325 323 322 321 320 319 319 318 317 315 315 315 315 312 307 312 317 318 319 319 319 318 320
321 323 324 324 323 328 329 330 332 329 328 327 328 326 328 330 330 331 330 328 325 323 321 321 320 319 318 319 318 316 315 313 313 313 309 311 312 315 317 319 320 318 319

GFSSE_sfc_thetae_117.txt.gz
Theta_e
341 347 349 351 352 352 353 352 351 352 353 354 354 354 354 354 353 354 355 355 356 357 355 354 354 352 352 351 351 351 351 350 349 351 351 351 350 349 349 349 348 345 348
344 347 348 350 351 352 352 353 351 352 353 354 354 353 353 353 353 353 354 355 356 357 354 353 353 351 351 350 350 350 349 348 348 348 350 351 350 349 349 348 347 346 347
343 347 348 348 351 351 352 352 353 354 354 354 354 353 353 353 353 353 353 353 355 356 355 353 352 351 350 349 348 348 348 347 346 346 347 342 344 349 348 347 347 347 347
343 345 346 347 349 350 351 352 353 354 354 354 354 353 353 353 353 353 352 351 353 354 355 353 352 351 349 347 347 347 346 346 345 345 340 339 342 347 347 346 347 346 345
342 344 346 346 347 350 351 352 352 353 352 353 353 354 354 353 353 353 350 350 353 354 354 352 352 350 347 345 345 345 345 344 343 340 336 337 339 345 347 345 344 344 343
342 344 343 344 346 349 351 352 352 351 349 351 351 353 354 354 353 352 349 350 353 353 354 353 351 348 344 343 343 343 342 340 336 334 334 341 336 344 344 342 342 342 342
341 341 342 343 346 349 352 352 351 349 348 350 351 352 352 353 352 350 348 349 349 349 352 349 348 345 343 342 342 341 340 337 334 332 333 335 339 343 342 342 341 342 340
340 340 342 345 345 347 350 350 349 348 348 349 349 349 351 350 349 348 347 347 348 347 346 346 344 343 342 341 341 336 337 335 334 333 336 334 340 342 343 342 341 340 339
343 340 341 342 344 345 345 345 345 346 346 347 347 347 347 346 345 347 346 346 344 343 344 343 342 341 341 340 339 336 334 335 331 332 329 336 342 342 342 341 339 338 338
343 341 339 339 340 339 341 343 343 343 344 344 345 345 345 343 343 343 344 344 344 341 342 342 340 340 340 338 337 335 332 333 331 334 335 334 340 342 341 340 338 336 336
344 341 340 340 339 338 338 342 342 343 343 342 344 343 341 342 342 342 341 341 343 341 341 340 339 338 336 335 335 333 332 331 330 333 333 335 340 341 340 339 336 335 335
336 340 342 340 340 340 343 339 338 341 342 342 342 340 341 341 340 342 340 339 340 339 339 339 337 335 334 331 330 332 329 332 331 331 330 335 339 340 339 338 335 335 334
336 340 342 341 341 341 341 339 339 339 339 340 340 340 338 341 339 339 337 336 335 337 335 336 333 332 331 329 327 327 328 331 331 330 330 334 337 339 339 337 335 335 333
335 336 340 341 341 341 338 339 339 339 338 338 338 339 339 337 336 335 335 334 334 331 331 331 330 330 330 330 329 327 329 330 329 329 330 332 335 338 338 337 335 334 333
333 334 337 340 341 341 337 341 339 339 340 339 338 339 339 337 335 335 334 334 334 333 331 330 330 329 329 329 329 328 327 328 328 328 329 330 331 335 338 337 336 334 332
334 333 334 338 341 341 339 337 337 339 339 339 338 339 338 338 336 335 333 333 333 333 330 331 330 329 329 328 328 329 326 326 328 326 327 328 328 331 334 336 335 334 332
318 333 331 337 340 340 338 338 336 340 340 338 339 339 340 339 337 335 334 332 333 332 330 330 328 328 327 330 327 330 326 325 327 329 330 329 328 327 329 332 333 333 331
312 325 332 338 339 341 339 338 338 339 339 338 338 337 340 340 338 335 334 331 331 330 329 329 328 326 326 326 324 324 324 325 328 328 329 328 327 327 326 329 331 331 331
313 315 332 336 338 339 338 339 336 335 338 339 337 337 335 337 337 335 334 332 331 329 327 328 324 326 326 326 324 326 325 324 326 329 327 327 325 325 324 326 326 327 329
311 314 329 336 339 339 340 337 336 334 334 335 338 337 336 336 337 334 333 332 332 328 325 326 326 322 326 325 326 325 324 324 325 325 326 326 325 324 324 324 325 324 325
311 314 324 336 337 338 335 333 331 334 333 330 333 335 336 336 337 335 333 331 332 329 327 327 327 325 322 323 322 322 322 324 324 324 325 324 324 323 324 324 323 325 325
313 315 316 327 337 338 337 336 334 332 332 334 330 332 334 332 334 336 334 330 329 327 327 326 324 321 321 324 319 317 313 316 321 323 322 323 322 323 322 322 322 321 322
313 314 315 317 320 329 335 332 329 328 326 326 326 328 331 332 332 333 332 330 328 325 324 324 323 322 318 322 322 317 310 309 314 319 320 321 320 321 322 321 321 321 321
312 315 317 320 320 321 320 326 327 326 322 324 325 326 330 333 333 334 332 329 325 324 324 324 323 321 319 316 320 319 315 315 311 309 316 319 319 319 320 321 321 321 321
313 314 316 319 319 320 320 321 327 324 327 324 324 324 325 331 333 332 331 328 325 323 321 322 322 321 320 318 318 317 314 315 315 312 309 313 317 318 319 320 320 320 319
312 312 312 312 313 316 319 319 326 325 324 322 323 324 326 327 330 329 330 327 326 325 322 322 322 320 320 319 319 318 315 314 313 312 311 312 312 315 317 318 318 319 319

GFSSE_sfc_thetae_120.txt.gz
Theta_e
341 346 349 352 352 352 351 350 351 351 353 353 354 354 354 354 354 355 355 355 355 356 354 353 353 354 352 351 352 351 350 349 349 350 351 351 351 351 350 349 348 346 348
344 346 347 350 352 352 352 351 351 352 353 354 353 353 353 353 354 354 355 355 355 355 354 352 352 352 351 351 350 350 348 348 348 348 350 350 350 349 348 347 347 346 347
344 346 348 348 350 352 353 352 352 353 354 353 353 352 353 353 353 354 354 354 355 355 353 352 352 351 350 349 348 347 348 347 346 347 346 340 345 348 347 347 347 347 346
344 346 346 347 349 350 351 352 352 354 353 353 353 353 353 353 352 353 353 353 354 355 353 352 351 350 349 348 346 347 347 345 344 343 339 341 344 346 347 346 345 345 346
343 345 346 346 347 349 350 351 352 352 352 352 352 353 354 353 353 352 350 351 352 354 354 352 351 348 346 345 344 345 345 343 341 338 333 338 339 344 346 345 344 344 344
341 343 343 343 346 349 351 351 352 351 350 350 351 352 353 353 352 351 349 350 352 353 354 352 350 347 343 343 343 343 342 339 336 334 335 339 338 344 345 344 343 343 342
339 341 342 342 346 349 351 352 350 349 349 349 350 351 352 352 351 349 348 350 350 351 351 349 347 344 342 342 342 340 338 337 333 333 333 334 339 345 345 343 341 341 342
337 340 342 344 346 347 349 349 347 345 347 347 348 350 350 350 349 348 347 348 347 348 348 347 344 343 342 341 341 337 335 336 334 333 334 334 340 343 342 342 341 340 340
337 339 339 341 345 345 344 344 343 344 345 346 346 346 347 345 345 346 346 346 346 346 345 344 342 341 341 340 339 333 333 334 330 327 335 336 342 342 343 341 339 338 338
336 337 337 337 340 343 344 342 342 342 343 343 344 344 343 342 343 344 343 344 344 344 343 342 341 340 340 338 337 332 332 333 329 327 332 335 341 341 342 340 339 337 336
336 335 337 337 336 335 340 344 342 343 342 342 343 343 341 341 341 343 342 342 343 341 341 341 339 338 336 336 335 332 332 329 330 332 331 337 341 342 341 340 337 336 335
334 334 336 336 336 335 342 342 342 344 344 342 342 341 341 338 337 341 341 339 341 339 339 338 337 336 335 331 330 332 329 329 330 328 330 335 340 341 341 339 337 335 334
337 336 337 336 336 336 337 337 339 340 339 340 340 337 338 339 338 337 335 337 336 338 336 335 333 332 331 328 326 326 327 328 329 329 331 335 339 341 341 339 336 335 333
337 338 338 337 337 337 337 336 336 337 337 338 341 338 337 338 336 334 333 332 332 331 331 330 329 328 328 327 326 326 327 327 326 326 329 332 336 339 340 339 337 335 333
335 338 339 338 338 338 337 336 336 336 336 336 337 338 338 337 336 334 333 332 331 329 330 328 327 327 327 327 326 326 326 326 327 326 325 329 332 337 339 338 337 336 334
334 335 339 339 339 339 338 338 336 337 336 336 336 338 338 337 336 333 332 332 331 330 329 329 327 326 326 327 326 326 326 325 325 325 327 329 328 332 335 337 336 336 335
333 335 337 338 340 339 337 338 337 338 338 337 337 337 337 337 336 334 332 331 332 332 328 328 325 325 326 326 324 326 326 325 325 324 324 328 329 327 329 333 334 335 334
333 332 333 339 339 339 338 337 336 338 338 338 337 338 337 336 336 334 333 331 331 331 329 328 327 325 325 325 322 324 327 327 325 325 327 328 328 329 328 329 331 333 332
315 331 331 335 337 338 337 337 336 337 337 337 338 337 338 337 336 335 333 331 330 329 328 328 326 326 325 325 325 325 325 325 325 327 327 327 327 328 328 327 328 328 329
306 318 330 333 336 338 338 336 334 336 336 336 337 337 336 338 336 335 333 331 330 327 324 326 325 320 326 327 325 325 324 325 325 324 326 327 326 325 324 324 326 325 325
305 308 328 330 334 337 336 334 331 332 332 333 335 337 336 336 336 334 333 333 333 329 326 325 325 325 324 326 322 322 323 324 324 324 325 325 325 324 323 324 324 323 325
309 311 326 331 333 336 336 336 333 331 330 333 333 334 336 334 335 335 333 331 333 329 325 325 326 323 322 325 320 317 313 317 322 323 323 324 323 324 322 323 323 323 323
311 317 329 334 335 336 335 331 328 328 326 326 325 330 333 334 334 334 333 332 331 330 328 327 326 324 320 323 322 317 311 310 315 321 321 323 322 322 322 322 322 322 322
310 315 318 321 322 324 327 328 324 327 327 326 328 329 330 332 332 332 331 329 330 329 328 326 325 324 322 319 321 320 316 315 311 309 318 320 322 320 321 321 321 320 320
309 309 311 312 313 317 318 320 326 325 326 323 323 326 328 330 332 333 331 331 329 327 326 324 323 322 322 319 319 318 315 315 315 311 309 314 318 320 321 320 320 320 320
307 307 308 308 308 311 313 314 317 320 323 322 322 323 323 326 331 331 331 329 329 327 323 323 323 322 321 320 319 319 317 315 313 312 310 313 313 316 319 320 319 319 320

GFSSE_sfc_thetae_123.txt.gz
Theta_e
338 345 350 351 352 351 350 350 350 350 352 353 353 354 354 354 354 355 355 355 355 355 353 352 354 354 353 351 352 350 349 349 350 351 352 351 351 351 349 349 348 345 348
341 346 348 350 351 351 351 350 350 351 352 353 353 353 353 353 354 354 354 354 354 353 352 352 352 351 351 350 350 349 349 348 348 348 349 351 350 350 349 348 347 345 347
341 346 349 349 350 351 351 351 351 352 353 353 353 352 353 353 354 354 354 354 354 354 352 352 351 351 350 350 349 349 348 347 347 346 346 341 343 348 347 347 347 347 347
343 344 346 348 350 351 351 351 351 353 353 352 352 352 353 353 354 354 354 353 353 354 352 352 350 349 349 347 347 347 346 345 344 343 340 341 341 347 347 346 346 346 345
342 344 345 346 348 350 350 351 351 352 351 351 351 353 352 353 354 353 352 351 353 354 352 350 349 348 346 344 344 345 344 342 340 337 333 336 341 345 346 345 345 344 344
341 343 343 343 346 349 350 351 351 350 349 350 350 352 352 352 352 351 350 350 353 354 353 350 348 346 343 342 343 343 339 339 337 334 335 340 337 345 345 344 344 343 342
339 341 342 342 345 348 351 351 350 349 348 348 350 350 351 351 350 349 348 349 349 352 352 350 347 344 342 342 342 340 337 337 333 333 334 334 338 345 344 343 342 342 342
338 340 341 344 345 346 348 349 347 346 347 347 348 349 350 350 348 347 347 348 348 348 348 346 344 343 341 341 339 337 335 335 334 332 333 334 340 344 344 342 341 341 341
337 338 339 342 345 344 344 344 343 344 345 345 346 346 346 345 345 345 346 347 346 346 346 344 342 341 341 340 337 334 333 334 330 331 333 334 343 344 343 340 339 339 339
335 336 339 342 344 345 344 341 340 341 342 343 344 343 342 342 343 343 343 345 345 345 344 343 340 339 339 338 334 333 332 332 326 330 331 333 342 343 343 341 339 338 337
332 335 338 339 341 342 343 343 341 342 342 341 343 342 339 341 341 342 341 341 343 342 342 341 339 338 336 335 333 333 332 329 323 328 329 337 341 342 342 340 338 337 336
329 332 335 337 337 338 341 343 344 344 344 344 343 342 341 337 337 341 340 339 341 339 339 339 338 336 335 330 331 332 327 327 328 327 328 336 340 342 342 340 338 336 335
329 332 333 335 335 337 339 340 340 341 341 342 339 337 339 338 336 336 335 337 336 337 335 334 333 331 330 328 326 326 326 327 327 326 328 334 340 342 341 340 337 336 334
329 330 333 334 334 334 337 337 337 338 338 338 340 334 336 340 336 333 334 333 333 333 331 330 328 328 328 327 325 325 325 326 325 325 327 332 337 340 340 340 338 336 334
332 331 333 334 333 334 334 335 336 335 336 337 338 338 337 338 337 334 332 331 331 330 330 327 327 326 326 325 324 324 325 325 325 324 325 330 333 337 340 339 338 336 335
335 334 333 333 334 334 334 333 334 335 336 336 337 339 337 338 337 333 331 331 330 330 329 329 327 325 324 324 324 324 324 324 324 323 324 327 329 332 335 338 337 337 335
334 336 335 334 334 334 334 333 333 334 334 334 335 336 338 336 334 333 332 330 330 329 327 325 324 323 323 324 323 324 323 324 324 323 323 324 326 325 329 334 336 336 335
331 332 337 338 335 334 334 335 334 334 334 333 333 334 336 336 335 332 331 330 330 329 327 326 324 321 322 322 320 322 326 324 324 322 322 323 325 328 327 329 332 333 333
331 331 332 337 336 336 335 336 335 334 335 335 334 334 334 335 335 333 332 330 329 328 327 326 323 323 323 324 323 323 324 326 326 326 324 323 323 326 329 328 327 328 329
324 331 331 335 336 337 337 334 331 332 333 334 335 335 334 335 335 334 332 330 330 327 326 326 326 323 324 326 325 324 325 325 326 325 326 327 326 327 328 328 328 326 325
307 318 328 329 334 336 335 331 330 332 333 333 335 335 335 335 334 334 332 330 330 329 326 325 323 324 324 327 322 322 322 324 324 325 325 326 325 325 325 326 327 325 325
303 306 322 327 331 334 336 335 334 334 332 334 334 335 335 335 335 334 332 331 332 330 327 326 327 323 324 326 320 318 314 317 322 323 324 325 325 325 323 324 324 323 323
303 305 317 325 328 333 334 331 327 327 326 325 327 332 334 333 335 335 333 332 330 330 327 326 327 325 321 323 322 316 311 309 313 320 322 323 323 323 324 323 323 323 323
308 316 318 321 322 327 328 327 326 326 324 328 329 332 331 333 333 334 332 331 331 331 329 328 328 327 324 320 322 320 317 314 311 309 318 321 323 322 322 322 322 322 322
307 308 309 311 312 314 319 322 323 323 325 324 324 326 326 330 331 333 333 331 331 330 330 328 327 325 324 322 320 318 315 311 315 311 309 314 320 322 323 322 321 321 321
305 305 306 306 306 307 310 310 310 310 314 319 321 322 323 326 329 330 331 331 332 329 328 327 326 325 323 322 321 319 317 315 313 312 310 313 314 317 320 321 320 320 320

GFSSE_sfc_thetae_126.txt.gz
Theta_e
336 345 349 351 352 351 350 349 350 351 353 354 354 354 354 354 354 354 354 354 355 355 353 353 354 353 353 353 352 350 350 349 350 351 352 351 351 349 350 350 348 346 349
339 346 348 350 351 351 350 350 350 351 353 354 354 354 353 353 354 354 354 354 354 354 352 352 353 352 351 351 350 350 350 348 347 348 349 350 350 349 348 348 348 345 348
341 346 348 349 350 351 351 351 351 353 353 354 353 353 353 353 354 354 354 353 353 353 352 352 351 351 350 350 349 349 348 347 346 347 346 342 344 348 347 347 347 348 346
343 345 347 348 349 350 350 351 351 353 353 352 353 353 353 354 354 354 353 352 353 353 352 352 351 350 349 348 348 347 347 345 344 344 340 341 344 347 347 347 347 347 346
342 345 346 347 348 350 350 350 351 351 350 351 352 353 354 354 354 354 352 351 352 353 351 350 349 348 347 345 344 345 344 342 341 338 336 340 343 345 347 345 345 344 343
341 344 344 345 347 349 350 350 350 349 349 349 350 352 353 353 353 352 350 351 352 352 351 349 347 346 344 343 342 341 340 339 338 336 337 341 341 346 346 344 344 343 342
339 341 343 343 346 348 350 351 350 348 348 348 349 350 351 352 352 350 349 350 351 351 350 349 346 344 342 342 340 338 338 337 334 334 335 336 339 345 345 343 343 342 341
338 339 341 344 345 347 348 348 347 346 346 347 348 349 350 349 348 348 347 348 349 349 348 346 343 342 341 341 339 336 336 336 334 333 334 336 341 344 345 343 342 341 341
336 338 338 341 343 343 344 344 343 343 344 345 346 346 346 345 344 346 346 347 347 346 345 343 342 340 340 339 338 335 334 334 332 332 334 335 343 344 345 342 340 341 340
333 334 337 339 341 343 344 341 341 342 342 343 344 343 342 342 342 343 344 345 345 345 344 342 340 339 339 336 335 333 332 333 330 331 333 336 343 344 343 341 340 340 339
333 335 338 339 340 342 343 343 341 342 342 341 342 341 339 342 341 341 341 342 343 343 342 341 339 337 336 334 334 333 332 328 327 330 331 336 342 343 342 340 339 338 337
329 332 336 337 338 339 341 343 342 344 344 344 343 341 340 338 339 340 340 340 341 340 340 339 338 336 334 332 331 332 328 327 326 328 330 336 342 342 342 340 338 337 336
328 331 334 335 337 338 339 340 340 342 342 341 342 342 341 336 337 338 335 338 337 338 336 335 334 332 330 331 328 327 327 327 326 327 329 334 339 342 341 341 338 336 335
326 329 333 334 334 336 338 338 338 338 339 339 339 339 339 339 336 334 335 333 333 333 332 331 329 329 328 327 326 325 326 326 326 326 327 331 336 341 341 341 339 337 335
323 327 331 333 333 335 336 337 337 337 337 339 339 337 339 337 337 335 332 332 332 331 330 328 327 326 326 325 325 325 325 325 326 326 326 329 332 337 340 341 340 338 336
326 326 330 331 333 334 334 335 335 336 336 336 336 338 337 338 337 336 332 331 329 330 328 328 327 325 324 325 323 324 325 325 325 325 326 327 328 330 336 339 339 338 337
332 329 329 331 331 332 332 333 334 334 335 333 334 337 337 337 336 335 333 330 329 327 327 326 324 323 323 323 323 323 324 324 324 324 324 325 328 325 327 334 336 337 337
333 332 331 332 331 331 332 331 331 332 333 332 333 335 335 335 335 332 332 331 327 326 326 325 323 321 321 322 323 324 325 324 324 324 323 324 326 328 327 328 331 334 335
332 333 333 332 330 331 331 331 330 330 330 330 330 332 334 335 332 331 330 328 328 327 325 325 322 322 323 324 323 324 325 325 326 327 325 323 324 326 327 327 327 328 330
328 331 334 335 333 331 331 331 331 331 332 332 331 332 332 334 334 331 330 328 329 329 327 324 325 324 325 325 325 324 325 326 326 326 326 326 324 325 327 329 328 327 325
324 328 330 334 335 333 331 330 330 329 331 332 333 333 332 333 333 333 332 328 329 328 328 328 327 324 324 326 323 322 323 325 324 325 326 326 326 326 327 328 328 327 327
312 325 328 331 334 334 334 332 329 331 332 332 334 333 333 333 333 333 333 330 329 328 327 327 327 323 325 326 321 319 315 317 322 324 325 325 325 326 325 326 327 327 326
301 308 322 328 331 334 335 331 325 326 328 329 331 332 333 333 333 333 333 331 330 330 328 327 328 326 322 325 323 319 311 308 314 321 321 323 324 325 325 325 325 325 325
309 308 317 322 324 327 330 330 326 328 326 327 330 332 334 334 334 334 333 332 331 331 327 327 328 328 325 321 323 320 317 313 308 308 317 321 322 323 323 323 324 324 323
306 307 310 311 312 317 322 326 326 322 324 322 325 327 327 331 332 333 332 331 331 332 330 327 327 327 326 324 322 320 316 315 315 313 309 315 320 323 324 323 323 323 323
303 303 303 304 305 307 310 312 315 316 317 322 323 320 321 326 330 331 332 332 332 332 331 328 328 328 326 325 324 321 318 317 313 312 308 310 314 318 323 323 322 322 322

GFSSE_sfc_thetae_129.txt.gz
Theta_e
341 349 350 352 352 351 350 350 351 353 354 354 354 354 353 354 354 354 354 354 355 355 354 353 354 354 355 353 353 351 351 350 350 351 353 353 351 350 350 350 349 347 349
345 350 348 350 351 351 351 351 352 353 354 355 354 354 353 353 354 354 354 354 354 355 352 353 354 354 352 352 351 350 350 349 348 349 350 350 350 349 349 347 348 347 349
346 349 352 349 350 351 351 351 352 354 355 355 354 353 353 354 354 354 354 354 354 354 352 352 352 351 351 350 349 350 348 348 347 347 348 348 348 348 348 347 347 348 347
348 349 351 348 349 350 350 351 352 354 355 354 354 354 354 354 354 354 353 352 353 354 353 351 351 351 350 349 348 348 347 346 344 345 346 347 347 347 347 347 346 347 346
347 349 351 347 348 349 350 350 351 352 352 352 352 354 354 354 354 353 352 351 352 353 353 351 350 349 347 345 345 345 344 343 342 344 346 346 346 347 347 346 346 346 344
347 349 347 345 347 349 350 350 351 350 349 350 351 353 354 354 354 352 351 351 352 352 352 350 348 347 344 343 343 342 341 341 341 345 345 344 344 346 345 345 345 344 344
347 349 350 343 346 349 350 351 349 348 348 349 350 351 352 353 352 351 350 350 350 351 350 349 346 344 343 341 341 340 338 339 345 344 345 345 346 346 345 344 344 343 342
346 349 350 346 346 347 348 348 346 346 346 347 348 349 351 351 350 349 349 349 349 348 347 345 344 343 342 340 339 337 336 338 342 344 344 344 344 345 344 343 342 342 341
346 347 350 350 348 344 344 344 343 343 344 345 346 346 347 346 346 347 348 348 348 347 345 343 342 341 341 339 337 335 335 336 342 342 342 343 344 344 344 342 341 341 341
343 346 347 348 349 350 350 341 341 341 342 343 344 343 342 342 343 344 344 346 346 345 343 342 340 339 339 338 335 333 333 335 341 341 341 341 343 344 344 341 340 339 340
338 342 344 346 348 349 347 347 342 342 341 341 343 342 340 349 349 349 344 343 344 343 341 340 339 338 336 335 335 333 333 339 340 341 341 338 343 343 343 341 339 340 339
335 338 341 343 345 346 343 345 348 348 348 348 349 349 350 349 349 347 345 341 342 340 340 339 338 336 337 343 340 334 340 339 339 340 340 336 342 343 343 340 338 338 337
335 337 338 341 344 343 342 343 344 346 346 347 348 348 349 348 348 347 349 347 349 342 344 340 340 341 342 342 341 341 340 339 339 340 337 334 341 343 342 340 339 338 337
331 335 338 340 341 342 342 341 342 341 343 343 344 345 345 345 346 347 346 348 347 346 345 344 343 342 341 339 341 340 339 339 338 337 336 331 336 341 341 342 340 338 336
328 333 335 337 338 338 340 340 340 340 341 341 342 342 344 342 342 343 345 346 346 345 344 343 341 340 339 339 339 338 337 337 338 338 339 329 331 337 341 341 340 339 337
329 330 335 334 335 336 337 340 339 339 340 341 341 341 341 341 342 340 342 344 345 345 344 342 340 338 338 338 338 337 337 337 337 337 338 337 327 332 334 339 339 339 338
332 331 333 334 333 334 336 339 339 338 338 338 339 341 340 341 341 340 338 341 344 344 344 342 341 339 337 337 336 336 336 336 336 335 336 337 335 326 328 333 336 337 338
332 332 333 335 334 333 334 336 338 339 338 338 337 338 340 340 341 339 336 337 343 343 342 340 339 337 336 335 335 335 335 335 335 335 335 335 335 336 331 329 331 334 335
328 335 332 336 336 336 336 335 335 336 335 336 336 336 338 338 338 337 335 336 341 341 339 339 336 337 333 332 333 330 330 330 334 334 334 334 334 334 336 330 327 328 330
325 337 336 334 335 337 337 337 336 333 333 334 333 335 336 335 336 335 339 337 340 338 336 336 335 335 334 334 328 326 328 329 331 335 332 331 333 334 334 334 335 331 325
320 334 337 335 335 335 335 334 334 331 333 334 337 339 338 337 334 336 339 339 338 334 334 333 335 333 330 330 326 325 326 329 328 332 334 332 331 332 332 334 334 332 330
313 330 336 337 336 334 333 335 337 336 336 336 337 338 338 339 338 338 337 336 335 333 333 332 332 329 330 330 325 323 320 324 326 328 330 330 332 333 332 332 332 331 331
312 320 332 337 337 337 336 336 336 337 336 335 334 334 336 338 339 340 338 336 335 335 332 331 332 333 327 327 329 328 320 318 322 326 325 329 328 329 330 332 332 331 329
311 316 330 335 338 339 339 337 335 332 330 333 334 334 335 338 338 338 339 337 336 335 334 332 333 334 333 325 327 326 324 325 319 317 322 323 324 327 330 327 327 328 329
314 315 324 330 334 337 339 338 336 336 338 338 336 333 335 335 334 333 332 332 334 334 335 334 332 332 335 333 328 324 323 320 320 319 317 320 324 327 328 328 327 327 328
307 310 313 314 311 314 322 330 335 333 332 331 333 330 332 333 326 324 324 325 332 333 333 334 334 333 333 335 332 329 324 320 318 319 317 319 319 324 327 329 327 325 327